GFSSW_500_rhum_000.txt.gz
RH
17 20 20 20 18 28 31 20 16 15 18 25 32 30 26 23 19 18 14 22 14 22 26 34 40 53 58 52 46 40 29 28 26 16 27 33 21 14 15 26 28 29 20 50 89
18 21 19 17 20 25 22 19 17 20 27 30 34 33 30 29 23 19 22 22 23 18 25 32 37 50 53 57 49 40 33 30 31 18 18 29 31 15 15 24 27 31 36 74 76
18 20 16 18 15 23 31 26 30 30 34 38 41 40 34 24 22 17 24 24 23 19 22 27 41 38 53 57 51 43 33 34 33 25 16 20 36 19 12 19 28 35 71 79 84
18 22 16 29 44 36 38 37 38 44 44 40 40 37 31 28 25 22 22 26 27 25 21 24 34 41 40 54 56 48 40 34 35 31 16 16 34 26 10 15 28 34 44 50 77
20 29 17 22 47 44 42 46 51 53 47 43 49 42 40 35 29 30 31 36 34 32 26 27 33 47 40 52 65 54 44 37 37 34 21 16 24 30 21 14 29 32 34 49 72
14 36 22 25 51 51 56 61 62 51 40 37 39 41 47 40 36 35 32 31 39 32 34 27 30 46 61 61 66 62 50 41 39 37 28 20 22 16 36 15 19 30 36 56 72
15 33 31 28 64 59 63 62 56 53 49 52 57 61 56 53 44 41 36 32 32 47 34 36 35 45 68 62 76 65 53 42 42 40 31 26 23 22 38 27 17 25 34 37 70
15 28 38 27 65 69 68 61 59 66 59 63 73 68 54 64 58 47 40 29 29 49 46 32 38 44 69 67 87 74 57 42 50 42 32 27 29 27 20 32 21 24 33 35 65
15 26 44 35 41 68 70 67 66 68 69 83 83 71 62 75 75 56 41 39 42 49 37 29 31 46 83 72 84 83 55 45 52 41 35 25 32 22 20 26 31 20 33 40 56
15 27 46 42 49 56 58 62 74 75 80 93 93 87 75 67 68 69 53 77 77 53 34 27 33 50 82 80 62 74 59 51 49 42 32 24 35 22 18 22 31 21 33 39 50
15 26 49 40 56 59 73 81 83 74 95 92 92 98 85 76 87 80 73 94 78 66 44 49 51 55 73 67 82 90 74 53 50 43 32 26 34 25 17 27 26 24 38 38 47
15 24 45 41 73 80 92 89 85 90 92 98 100 100 99 95 99 67 86 78 84 99 88 92 53 61 98 92 97 88 72 54 60 43 30 31 32 25 20 24 29 24 40 38 40
16 23 39 40 62 93 99 96 96 99 99 97 100 100 100 99 89 74 84 74 87 100 100 99 46 84 88 88 97 92 69 56 68 46 29 32 34 28 22 24 31 23 35 37 42
16 25 34 31 76 93 96 96 99 100 100 91 100 100 100 100 69 72 96 72 91 100 100 100 91 94 97 89 96 95 71 66 70 50 37 32 30 32 29 25 30 23 36 42 45
16 27 30 29 80 85 96 98 100 100 97 99 100 100 100 99 73 79 99 73 98 100 100 96 96 98 96 84 98 96 77 78 66 53 40 37 34 33 29 26 29 22 43 48 48
16 27 22 46 79 80 96 98 100 100 98 100 100 100 98 95 78 97 91 94 100 100 100 100 94 98 89 96 98 94 85 73 62 52 43 36 35 50 39 40 34 21 37 43 44
17 26 28 38 75 74 99 99 99 99 100 100 100 100 100 81 66 100 97 94 100 99 96 98 98 89 87 98 94 96 87 72 63 54 42 40 35 48 46 45 43 22 10 22 39
18 27 49 26 65 90 98 99 100 99 100 100 100 100 100 79 95 100 100 100 100 86 100 98 99 91 64 95 80 86 80 68 66 58 44 45 36 39 42 50 45 33 16 11 15
18 29 48 28 62 99 98 100 98 100 100 98 100 95 96 84 100 99 91 100 77 90 97 99 96 92 72 68 98 86 75 67 70 57 43 48 39 44 37 34 34 31 26 12 12
19 35 44 35 69 97 99 100 98 99 100 43 53 73 64 79 82 62 74 96 54 94 98 100 100 99 98 94 93 81 80 69 61 57 55 54 46 45 34 26 25 29 31 31 25
19 31 40 26 64 97 98 99 97 95 55 35 46 56 61 57 52 43 58 64 51 85 98 97 86 73 73 76 84 66 85 77 68 53 46 49 42 35 34 32 31 28 28 26 24
19 30 42 25 66 97 98 98 98 77 54 28 34 48 52 45 40 37 40 48 56 67 81 99 72 68 53 66 92 97 87 97 70 51 44 44 50 38 32 30 30 26 20 14 10
20 23 45 33 80 99 98 98 98 84 53 47 38 54 55 37 35 36 46 65 63 79 76 81 84 77 80 81 78 84 76 72 63 51 45 52 39 39 41 41 27 8 3 3 5
21 25 43 26 92 97 97 98 98 91 52 46 51 74 51 43 39 39 49 73 86 87 95 78 81 78 66 57 63 59 51 67 59 51 52 42 53 50 63 49 20 11 6 24 39
23 30 48 25 96 99 97 98 98 96 80 54 37 48 65 48 45 43 52 63 81 92 95 90 81 81 73 74 76 76 79 80 65 55 49 79 50 55 41 24 4 0 5 32 57
25 22 43 23 90 94 97 98 98 98 98 97 63 48 56 56 62 59 60 78 78 67 72 78 79 82 82 69 69 61 67 62 59 57 48 49 52 60 23 6 4 5 32 55 64
26 22 47 24 67 94 98 98 99 96 97 98 100 60 61 69 84 98 88 97 98 98 85 83 81 85 83 72 65 64 55 57 53 52 60 49 59 41 10 2 9 28 44 46 49

GFSSW_500_rhum_003.txt.gz
RH
6 7 8 10 12 18 17 16 20 22 30 21 18 15 14 19 20 26 24 21 15 11 16 14 14 20 25 25 43 58 44 37 36 38 31 21 29 36 19 21 25 30 31 27 23
7 7 8 9 15 17 12 14 23 22 21 19 16 15 16 23 24 25 29 26 20 18 13 15 11 16 23 25 30 54 51 42 38 39 36 29 18 35 26 17 18 25 30 27 22
8 8 8 9 16 19 15 18 19 27 25 21 18 18 23 28 28 31 32 32 29 24 20 18 17 13 18 26 27 36 51 51 41 37 38 34 25 18 32 17 16 23 26 26 30
8 9 9 10 17 26 18 35 40 42 36 28 26 27 32 35 31 24 36 37 30 26 23 22 22 17 15 20 28 26 42 59 43 34 41 38 31 17 30 15 13 18 28 29 49
9 9 10 9 14 28 20 29 48 53 47 41 39 42 44 38 34 33 31 38 33 29 27 25 24 23 16 21 27 32 32 63 50 34 41 40 33 22 21 21 9 12 24 35 60
10 10 10 10 14 27 29 29 53 58 61 58 57 50 45 40 47 43 43 42 40 34 32 30 28 31 25 26 30 32 39 61 56 37 38 39 35 24 20 28 22 9 24 32 39
10 11 10 11 13 22 39 31 60 67 65 56 53 56 48 53 52 56 50 48 44 38 32 34 33 33 31 30 28 44 43 65 57 44 41 39 34 31 24 15 34 24 16 30 31
9 11 12 13 15 21 40 34 41 64 68 62 56 52 51 63 53 67 67 54 50 43 39 37 36 35 30 37 34 39 47 47 57 47 47 40 36 35 22 16 20 32 16 21 33
9 9 12 14 14 23 42 39 50 60 54 58 72 66 56 75 71 74 69 64 55 47 42 36 32 30 35 39 47 59 42 38 65 51 51 37 36 36 31 22 18 30 25 21 34
8 8 12 15 15 22 40 40 44 55 73 84 77 66 62 78 91 88 79 72 63 63 50 39 38 30 32 42 44 51 43 47 64 60 51 42 35 38 33 27 23 21 32 22 34
8 7 10 14 15 24 36 34 52 78 87 80 69 77 69 77 81 98 85 69 55 45 39 42 41 29 25 35 41 68 66 70 73 70 59 46 35 40 31 25 24 21 29 26 31
10 8 7 13 14 27 31 28 67 83 80 85 74 78 78 86 88 99 99 90 68 56 56 58 51 42 24 40 62 71 78 84 90 74 57 49 38 39 30 24 22 24 28 20 32
11 9 7 13 14 27 26 46 86 94 85 70 71 73 92 97 97 98 94 90 67 56 59 79 54 58 53 48 74 69 92 80 90 85 62 45 38 36 37 24 22 22 28 23 35
12 10 8 13 15 25 30 74 87 98 87 63 79 84 99 100 92 100 100 92 73 75 97 92 100 93 66 45 86 73 72 98 96 87 63 47 39 41 36 28 22 20 27 28 26
13 12 9 14 15 37 40 86 88 99 92 86 92 98 100 100 100 100 98 76 75 83 88 57 73 90 63 45 62 84 95 87 97 79 65 46 41 35 33 28 26 25 23 30 24
14 18 14 15 17 44 35 74 91 99 96 98 100 100 100 100 100 99 78 62 88 95 93 77 99 89 49 100 90 94 94 76 96 83 62 52 47 44 38 32 27 27 25 28 22
16 28 17 16 20 44 40 64 96 100 99 98 100 100 100 100 99 96 74 72 75 95 93 100 91 86 90 97 98 97 84 94 96 82 58 61 51 55 40 37 29 28 28 27 18
21 34 16 18 21 41 39 82 99 97 100 100 100 100 100 100 96 74 86 89 81 100 100 98 99 95 90 87 96 81 97 87 77 72 59 53 49 48 40 47 38 36 38 32 17
31 35 16 18 28 39 46 92 99 99 100 100 100 80 100 100 95 70 79 92 98 100 100 90 79 92 97 96 98 99 97 97 86 65 76 51 55 43 44 40 48 46 40 40 34
37 32 15 18 40 34 45 98 96 100 100 100 53 72 100 98 64 74 71 78 86 100 100 99 75 77 85 97 75 97 97 83 76 68 65 62 63 82 47 36 34 37 41 39 35
37 29 18 20 44 30 49 98 98 100 93 57 47 56 79 71 73 74 95 90 82 99 100 100 99 95 94 97 85 96 91 94 74 66 78 92 89 65 48 40 32 24 23 25 25
33 23 17 23 44 33 86 98 96 100 88 36 40 44 67 66 70 94 99 72 80 99 95 99 98 100 58 60 87 98 98 86 75 69 67 58 82 52 49 40 32 27 24 26 27
31 19 19 24 44 40 96 98 96 100 80 35 29 37 47 56 59 90 54 50 74 97 99 99 99 88 96 80 100 78 95 86 85 67 58 57 62 47 56 40 34 31 30 28 25
28 16 21 30 41 35 96 98 99 99 81 50 28 31 38 40 36 49 45 42 86 96 100 94 82 99 90 69 61 65 79 81 75 62 56 49 63 43 68 48 35 30 28 22 13
27 17 24 33 38 36 92 97 99 99 95 46 55 36 32 34 29 29 63 51 49 74 87 73 77 75 68 56 62 67 74 89 71 74 60 57 57 73 60 44 33 29 34 20 11
23 19 26 36 48 28 91 98 99 99 98 80 45 61 46 35 32 36 50 47 50 57 67 78 77 86 82 92 86 78 81 70 60 56 57 54 85 87 68 40 34 31 20 1 5
22 20 26 40 45 25 61 98 98 99 98 97 83 61 66 48 47 68 100 100 89 67 76 62 76 83 80 81 78 73 58 53 59 49 58 56 76 66 74 53 43 24 6 5 26

GFSSW_500_rhum_006.txt.gz
RH
5 6 5 5 6 6 6 7 12 15 11 12 22 28 25 17 14 12 13 16 20 20 20 19 12 15 16 13 20 23 24 39 40 47 44 40 28 27 27 34 24 29 31 28 25
5 6 6 6 6 7 7 7 14 14 11 14 22 22 23 24 15 11 15 16 21 24 24 23 17 12 14 15 15 19 21 23 48 48 46 37 29 33 25 34 27 21 26 28 28
6 6 6 5 6 7 7 8 16 20 13 12 14 26 28 20 16 14 15 22 27 30 33 28 20 15 13 15 14 17 16 23 30 51 46 39 33 39 32 21 35 21 21 21 21
8 7 7 6 7 8 9 8 13 23 19 21 28 34 32 22 18 11 21 41 35 31 35 32 29 23 19 15 18 14 14 26 30 46 50 39 42 33 34 27 28 29 19 17 24
9 8 7 7 9 9 10 10 14 22 25 18 29 38 44 34 39 29 27 39 41 38 39 42 36 31 25 22 20 15 13 18 28 38 48 43 41 40 31 31 22 31 18 14 20
10 9 7 7 10 10 10 12 14 19 32 28 34 42 54 45 57 48 47 47 45 38 38 36 36 33 27 23 23 20 17 17 24 30 34 46 42 41 38 31 22 34 25 10 18
9 8 7 6 8 10 10 12 14 22 36 34 39 56 51 59 53 54 44 47 43 42 40 36 36 36 33 30 25 22 20 21 18 28 26 45 43 37 42 33 29 21 31 13 12
11 10 8 8 6 9 12 12 15 23 31 38 30 37 48 63 48 51 38 42 48 47 44 46 46 42 39 35 30 29 39 19 16 23 26 33 37 45 43 32 32 20 23 34 15
17 13 10 9 7 6 11 12 15 23 28 35 33 36 40 64 57 52 58 58 54 52 54 59 58 52 47 42 40 33 26 22 26 23 29 26 34 51 46 38 35 24 18 23 30
18 17 14 11 9 6 8 12 17 19 27 30 27 36 41 68 73 66 58 55 55 53 59 73 79 61 47 40 26 28 28 25 21 25 34 29 38 52 45 40 36 29 24 17 31
19 17 17 14 10 8 6 12 16 19 24 30 29 60 63 76 72 63 53 53 55 51 71 87 86 62 47 39 35 37 35 38 48 31 33 33 43 52 50 42 35 34 30 22 25
16 17 16 15 12 10 6 13 18 20 25 26 48 72 78 74 65 67 68 66 70 64 88 90 71 66 65 52 41 35 40 36 48 47 48 39 40 55 51 40 38 35 30 23 22
8 17 16 15 12 10 8 15 25 26 27 26 62 67 76 69 78 88 88 93 82 76 80 97 69 78 61 53 44 34 34 28 39 61 49 46 41 56 53 42 38 36 30 23 26
10 14 22 15 13 11 11 15 38 37 29 29 51 71 84 80 73 99 88 99 84 62 94 94 83 87 60 37 44 33 22 14 32 77 52 52 45 62 59 51 42 35 29 22 25
16 16 20 15 14 13 15 19 36 44 36 40 70 87 88 96 98 92 100 100 88 90 100 82 72 57 46 42 39 29 22 15 57 97 72 72 74 68 52 45 35 34 27 20 22
47 18 18 16 15 18 18 22 39 44 37 64 93 94 91 93 93 100 96 100 95 100 94 69 70 75 63 47 35 30 24 48 96 100 65 67 80 62 53 40 33 31 26 20 24
81 20 21 16 17 22 19 20 35 35 46 90 98 97 96 92 94 95 99 99 89 85 86 91 76 93 98 100 72 41 26 94 98 96 96 94 85 65 56 42 30 32 24 22 28
61 22 18 17 22 28 18 19 39 33 57 99 99 97 88 100 91 100 100 87 76 87 82 87 70 76 92 91 70 41 65 98 81 85 82 68 86 62 55 45 38 26 24 24 26
65 20 18 21 30 27 17 28 36 41 90 99 98 86 53 71 100 100 96 84 80 67 100 100 74 95 96 99 88 97 94 97 97 98 75 52 74 56 57 44 42 30 30 29 27
62 23 21 27 32 20 16 43 35 57 98 99 87 45 45 75 98 100 77 87 97 99 100 100 100 100 97 98 72 93 100 97 98 93 88 84 69 54 52 49 39 35 33 32 32
39 24 27 27 26 20 35 39 50 95 98 98 36 46 49 60 76 63 91 98 85 95 100 100 95 94 68 82 99 96 97 92 97 99 83 82 79 59 44 48 41 33 31 33 35
32 25 29 30 28 22 55 35 86 96 98 90 28 39 46 70 92 94 100 91 69 100 100 95 97 100 68 85 96 100 100 97 100 98 84 73 61 51 48 49 48 39 34 30 27
31 27 32 31 22 36 50 43 95 97 98 66 25 39 46 54 77 78 76 94 100 100 100 97 100 88 94 98 98 97 97 94 88 93 83 64 60 65 63 58 50 43 35 30 27
30 31 29 26 22 31 53 42 98 97 98 69 25 36 50 54 90 96 100 99 100 99 100 98 98 97 90 76 70 74 78 88 94 85 77 85 65 57 60 54 50 45 34 27 26
30 31 28 23 27 36 42 49 98 100 97 77 35 31 40 44 63 54 86 93 96 97 98 98 98 99 91 75 94 96 96 96 93 83 71 71 61 55 51 51 48 50 42 32 28
28 33 28 28 36 45 46 44 98 100 98 97 59 26 30 33 33 44 65 84 89 100 97 100 97 76 72 79 69 71 83 83 89 93 81 82 78 64 48 43 56 53 40 33 29
33 31 25 34 39 43 48 34 98 99 97 99 57 43 29 31 29 30 67 68 70 88 79 100 91 70 68 70 78 66 59 54 56 54 75 65 85 76 70 82 52 43 53 45 30

GFSSW_500_rhum_009.txt.gz
RH
6 6 6 6 6 6 5 6 6 6 6 8 11 12 11 12 15 21 15 12 12 14 16 18 17 20 21 20 21 18 10 14 17 42 56 50 38 30 33 28 26 30 30 32 30
8 7 6 6 5 5 6 6 5 5 6 10 12 13 11 11 15 20 26 18 14 13 14 16 21 22 22 24 15 11 8 10 21 26 50 55 44 32 35 34 27 31 28 26 25
9 9 8 7 6 5 6 6 6 5 6 8 12 15 14 12 10 22 24 23 18 15 14 15 20 24 24 25 20 14 9 13 17 23 31 52 45 34 39 39 32 22 30 26 24
9 9 9 8 7 6 6 6 7 6 7 8 11 15 16 14 22 29 35 36 23 18 16 14 20 23 27 27 24 16 13 12 16 20 22 27 45 39 35 43 36 30 22 33 26
9 9 8 8 8 7 6 5 6 7 8 11 13 14 21 21 31 22 33 38 34 28 28 26 26 27 28 30 29 23 18 16 14 14 18 21 23 43 41 42 37 35 26 24 31
11 9 8 8 8 7 6 6 7 8 9 10 12 17 25 35 35 26 33 45 54 49 43 40 37 36 31 31 32 28 20 14 14 13 12 17 16 23 49 50 35 36 33 22 27
14 12 10 8 8 8 7 6 7 8 10 10 11 14 33 36 29 36 40 53 56 53 46 40 38 33 29 26 25 23 18 17 12 16 13 20 12 12 42 53 41 36 35 27 23
18 17 15 11 9 8 9 8 6 7 9 10 11 11 32 31 30 35 40 60 52 49 44 39 40 40 37 34 31 24 20 15 17 19 18 19 8 14 22 51 44 38 35 28 21
18 19 20 20 17 13 11 10 9 6 5 8 9 10 25 32 28 29 39 52 45 43 40 40 41 41 43 39 38 34 26 22 22 22 22 19 11 16 26 39 47 42 40 30 22
17 16 19 20 20 17 15 14 11 8 6 5 10 14 20 32 30 36 46 52 47 59 61 58 49 43 43 39 35 42 46 40 27 32 29 20 12 14 29 31 44 46 39 26 25
48 35 12 19 20 19 17 15 12 10 8 6 6 13 22 31 29 53 63 64 68 64 59 54 42 37 53 67 68 66 55 43 38 34 40 25 19 18 27 33 44 47 42 31 29
45 51 44 12 16 20 18 15 14 12 9 7 9 16 30 30 40 63 62 60 64 66 68 51 35 67 73 69 66 66 62 46 40 39 44 40 29 28 30 29 47 55 42 36 33
19 51 55 44 10 14 18 15 15 14 11 9 19 24 34 35 42 80 74 71 65 63 68 52 55 86 77 78 74 69 64 52 41 43 51 48 40 30 27 25 49 57 46 38 36
10 40 57 40 29 9 16 16 16 14 11 12 18 32 40 50 56 86 76 72 66 71 84 54 85 85 86 70 75 64 71 57 41 43 39 61 40 32 23 19 41 60 49 39 38
7 22 61 47 77 15 16 17 17 15 16 18 25 30 39 68 72 88 87 83 76 79 88 73 83 100 94 67 97 62 79 67 43 37 50 65 62 27 50 32 37 62 53 42 34
8 23 57 42 82 23 16 14 24 16 16 22 30 33 51 92 92 92 90 96 95 100 100 93 97 89 72 80 97 81 71 68 39 40 79 39 83 27 50 36 33 59 54 40 33
40 42 58 49 79 30 16 16 20 18 28 27 33 45 83 96 81 60 70 99 97 100 100 99 98 95 91 87 86 89 81 59 63 50 20 81 96 66 68 55 52 57 49 35 31
75 71 56 55 80 31 17 24 18 23 37 33 41 79 98 64 35 37 62 99 92 100 100 99 76 92 80 65 66 62 78 45 52 32 34 38 89 78 72 66 75 58 49 32 27
99 63 51 66 86 25 39 19 24 43 34 39 82 96 54 44 44 60 90 95 98 91 54 67 61 80 74 97 100 55 45 36 51 36 39 31 94 98 96 96 69 47 41 33 28
99 59 57 100 61 34 25 25 40 40 40 74 97 66 41 52 49 58 64 85 95 78 69 88 97 100 100 95 95 91 31 35 46 28 19 26 93 93 83 59 50 42 39 32 31
89 61 80 100 39 38 21 42 48 44 51 97 94 41 45 63 57 53 57 74 89 90 97 100 99 100 100 65 77 99 40 28 30 96 95 98 85 99 78 69 53 47 37 29 27
83 63 78 92 38 26 28 38 53 47 94 98 78 37 40 69 42 52 58 79 100 98 100 100 100 100 100 100 88 100 96 28 77 94 97 92 70 81 81 58 49 44 37 34 33
100 63 85 74 28 24 41 42 51 60 100 97 74 30 28 20 25 31 42 69 92 100 100 100 100 98 95 98 82 57 64 73 98 97 97 88 77 75 67 55 44 41 42 41 37
86 96 92 42 27 31 44 44 52 93 100 97 49 31 49 38 52 33 52 87 100 100 100 100 100 100 72 60 69 84 92 97 97 96 95 85 73 64 54 51 53 51 50 41 33
100 91 90 28 29 42 38 53 47 100 99 94 45 31 46 46 67 70 47 69 95 98 99 98 98 81 73 94 94 99 98 96 97 98 100 83 86 67 57 59 56 50 46 44 39
75 87 49 35 39 37 33 54 69 100 98 92 64 27 39 42 43 45 67 88 88 97 97 98 99 100 94 100 90 94 98 98 98 98 92 90 78 70 62 54 52 46 44 39 39
82 69 36 35 51 47 49 69 43 92 95 97 48 40 28 33 31 34 52 67 81 92 98 97 99 99 99 84 93 95 96 72 93 99 92 86 81 77 71 62 54 46 49 57 50

GFSSW_500_rhum_012.txt.gz
RH
10 10 8 7 6 7 7 7 6 6 6 6 6 6 8 9 11 11 12 16 18 14 12 13 15 16 14 16 16 16 10 7 11 18 40 58 45 37 41 35 30 30 24 24 25
13 12 10 8 7 7 7 7 6 6 6 6 5 6 9 8 10 14 13 14 20 21 13 14 14 16 16 16 17 18 14 7 15 15 24 50 46 40 33 37 36 30 26 19 25
15 13 12 11 8 8 8 8 7 6 6 7 5 6 8 9 13 20 14 12 16 22 23 15 14 14 15 17 18 20 11 16 15 12 15 26 27 41 37 39 41 38 30 21 18
13 12 11 10 10 10 9 8 8 7 6 6 6 5 7 11 13 26 28 25 21 22 22 22 17 14 14 14 18 16 19 19 20 14 12 15 26 22 37 43 45 40 33 25 23
14 12 11 10 10 9 10 9 8 8 7 6 6 6 7 12 18 12 25 29 30 31 27 23 20 17 15 14 16 14 16 21 23 18 12 12 12 16 18 39 56 45 38 32 27
17 15 13 12 12 10 9 9 8 7 6 6 6 7 8 10 11 14 20 38 38 34 36 31 26 19 14 14 13 14 16 21 22 24 18 13 10 10 14 23 49 47 42 38 35
19 18 16 15 14 13 10 9 8 7 6 6 6 6 10 9 11 13 22 28 29 37 40 48 45 34 26 24 21 18 23 24 25 28 28 23 12 8 12 25 33 46 43 40 36
16 18 19 18 16 15 13 11 9 8 7 6 5 5 8 8 10 11 17 26 23 23 33 54 56 54 50 43 37 32 28 23 21 22 26 30 8 12 10 17 29 45 46 41 36
52 28 16 19 19 18 19 20 16 12 9 7 7 6 5 9 11 14 16 25 24 25 24 35 54 55 50 42 37 33 29 25 24 29 30 28 11 18 14 12 21 38 55 46 40
34 51 42 17 17 19 19 20 20 18 14 10 9 8 8 10 11 15 18 24 25 28 40 38 36 42 34 32 24 29 32 38 37 46 42 34 17 20 22 16 18 24 37 49 43
21 37 43 49 36 15 17 20 20 19 18 14 11 12 10 9 10 14 18 26 29 30 49 61 43 26 39 56 53 45 39 37 42 43 47 33 26 22 24 18 13 17 26 36 50
36 19 27 38 49 48 29 13 18 19 19 18 13 12 12 10 12 25 26 25 32 35 40 44 46 55 60 60 52 44 37 33 34 41 42 42 29 29 26 19 13 15 26 26 50
24 36 21 20 38 51 46 35 14 14 19 18 17 18 17 15 15 25 33 32 40 43 58 62 59 62 62 62 56 47 41 44 43 56 42 43 27 27 29 25 15 12 23 26 47
5 10 22 16 18 38 54 43 31 14 14 16 17 23 25 23 20 26 30 43 47 65 77 63 58 58 62 58 67 46 64 64 59 59 46 62 27 32 37 28 19 14 22 24 38
21 6 7 13 14 30 50 49 37 37 15 16 19 29 30 23 23 29 41 65 77 84 83 70 70 79 59 79 97 70 92 82 72 70 74 57 43 23 33 28 19 19 26 26 50
100 84 7 6 12 30 50 50 46 54 22 19 26 35 31 26 26 33 76 88 78 65 61 76 80 86 92 100 93 97 96 98 87 82 65 44 48 23 34 23 29 27 34 30 53
100 91 32 12 38 31 47 47 52 66 37 26 34 32 26 30 39 76 79 38 30 31 44 88 85 89 100 100 100 100 100 100 98 84 44 57 50 20 29 34 30 32 28 31 57
100 99 99 62 61 48 46 42 53 50 20 22 28 23 32 54 85 60 31 34 31 48 96 100 92 94 98 99 100 100 100 100 97 78 73 68 43 26 28 56 52 47 37 43 62
99 83 100 73 76 59 39 34 60 42 23 25 24 28 54 96 58 32 43 37 52 68 97 89 99 100 95 95 100 93 98 85 100 94 87 53 41 31 55 38 37 48 38 40 58
75 88 60 70 83 53 42 43 63 27 28 26 30 42 97 69 33 48 43 46 51 63 72 60 45 59 62 59 70 82 86 100 94 82 54 45 43 29 37 79 56 48 58 61 54
100 93 100 79 80 55 40 79 47 32 28 28 40 85 96 21 17 25 25 33 32 33 38 59 63 75 93 85 96 82 89 84 71 66 64 56 40 25 46 92 74 69 68 57 47
98 100 100 77 70 51 62 62 30 28 30 36 66 98 38 14 17 23 31 51 51 70 80 100 98 100 100 98 100 100 77 52 55 60 56 66 44 29 44 87 97 95 70 52 41
95 100 100 83 69 57 87 32 28 38 38 48 93 98 26 14 18 22 35 64 94 97 97 99 100 100 100 100 94 92 58 36 44 49 40 98 67 44 94 93 77 62 50 43 42
96 100 88 65 99 94 70 30 30 36 50 61 98 80 30 19 25 60 43 79 99 100 99 100 99 100 99 100 94 77 56 28 31 31 97 93 98 91 97 69 66 62 56 55 48
100 92 78 43 59 87 44 31 38 54 66 93 99 49 36 34 37 41 62 88 99 100 100 100 100 100 92 88 97 100 94 98 62 76 95 99 99 86 99 81 78 70 62 54 46
100 95 100 69 84 78 30 39 53 67 66 99 99 45 33 37 35 40 51 78 99 98 99 99 99 98 71 85 87 73 77 94 95 97 96 98 98 96 94 87 76 65 61 60 53
100 100 99 89 99 48 42 42 56 54 92 99 97 63 32 31 37 46 68 75 94 95 97 98 100 99 95 94 98 97 95 97 98 99 97 98 96 100 91 79 62 57 55 51 50

GFSSW_500_rhum_015.txt.gz
RH
18 16 14 11 9 8 7 7 7 8 7 7 8 7 6 6 8 8 10 10 12 13 16 15 13 9 11 12 13 13 10 9 10 14 19 29 40 52 47 39 36 30 25 22 22
19 16 14 13 11 9 9 8 8 9 9 9 8 6 6 6 8 11 7 9 11 12 14 18 16 12 12 14 15 13 10 10 17 19 21 24 24 32 50 50 44 38 30 26 23
19 17 16 16 14 12 10 11 10 9 9 9 7 6 6 6 7 13 9 11 13 12 13 14 18 18 12 14 14 13 10 14 18 23 21 19 16 18 26 47 54 47 36 28 24
21 20 18 16 14 13 12 12 11 10 9 9 8 7 7 7 9 14 12 11 13 14 14 14 16 18 20 12 14 12 13 16 22 25 24 16 14 10 14 23 49 54 45 33 29
21 21 18 15 13 11 11 12 12 11 9 8 9 8 7 7 7 8 14 16 15 16 17 18 26 22 20 20 14 13 13 14 18 23 24 23 13 9 8 14 28 49 50 42 31
24 21 20 17 14 11 10 11 12 11 10 9 9 8 8 8 7 10 14 15 16 15 16 17 19 21 24 21 19 15 12 12 12 16 19 22 22 14 10 10 16 28 49 49 45
56 30 20 20 17 14 13 12 12 11 11 9 8 7 7 6 8 10 12 12 13 15 19 18 19 23 30 32 23 19 15 12 12 13 17 25 20 17 16 14 13 18 43 54 51
44 55 37 19 20 18 17 16 16 14 11 10 9 8 6 6 6 6 7 9 11 13 14 19 17 16 24 48 38 28 22 16 14 17 18 32 12 18 21 21 14 13 23 47 60
18 40 51 47 17 20 20 19 18 17 15 12 10 10 8 7 6 6 6 6 7 12 14 15 17 19 19 28 49 46 40 39 29 31 29 30 15 25 28 22 18 14 15 24 49
36 17 38 46 52 21 18 19 19 19 19 19 18 14 11 10 9 8 8 7 7 8 11 16 19 16 18 27 24 55 57 52 46 44 48 32 18 18 26 21 16 17 13 16 21
46 39 18 37 39 53 36 15 19 20 20 20 19 18 16 14 12 11 10 9 9 9 14 15 15 14 30 43 41 30 44 44 43 38 35 33 25 22 23 21 16 15 14 12 14
4 45 42 21 33 38 49 46 24 15 18 20 20 20 19 17 14 13 13 12 12 13 18 17 16 24 30 35 42 47 34 30 26 35 36 37 23 23 19 19 18 18 16 13 11
3 7 36 38 24 25 39 48 49 43 23 14 16 19 19 19 18 18 22 20 17 16 19 21 20 28 26 38 47 52 52 53 48 57 50 40 24 27 24 22 24 21 20 16 12
3 9 43 19 34 31 22 39 49 51 45 36 17 14 17 18 17 19 27 28 25 23 22 18 19 34 56 53 71 61 70 67 61 59 51 51 25 30 24 23 24 26 24 18 14
42 49 94 6 20 26 41 30 32 50 43 39 38 31 22 17 20 24 28 30 27 22 22 27 32 54 56 60 75 58 72 69 66 62 49 46 41 19 29 21 20 22 24 20 17
100 100 100 100 5 14 35 32 31 37 36 38 37 38 37 27 23 25 29 28 22 24 42 56 62 57 58 70 76 76 81 80 86 79 43 43 49 19 21 24 24 25 29 28 20
100 99 95 100 60 14 22 34 35 26 29 31 37 44 48 36 26 28 28 24 37 68 56 38 30 24 23 30 59 95 100 100 100 100 53 47 51 21 22 23 25 28 34 32 23
100 100 96 100 73 26 15 35 29 25 27 35 43 52 42 25 27 31 29 67 64 35 32 28 25 28 35 60 100 100 100 100 100 90 81 87 41 28 24 28 32 32 36 33 25
99 96 100 100 100 91 30 26 27 27 29 39 52 50 25 26 31 55 76 38 22 22 31 36 36 50 74 100 100 99 97 89 100 100 100 89 46 40 35 30 34 39 37 34 30
82 100 100 100 88 77 27 28 33 35 37 51 55 41 29 33 66 41 13 17 18 18 25 42 43 49 57 76 80 85 98 100 100 96 97 66 51 42 37 38 38 36 37 40 37
100 100 100 100 100 100 33 44 39 43 56 56 47 32 33 66 58 12 23 18 27 32 34 39 40 60 33 33 45 42 40 71 99 96 66 54 46 44 48 46 61 52 56 50 49
100 100 100 100 98 65 50 56 49 61 64 62 39 31 46 94 23 15 18 29 35 48 70 74 75 96 96 86 93 98 73 83 99 75 60 50 33 30 48 48 65 51 44 61 61
100 100 100 100 59 47 68 57 53 74 71 41 31 47 99 68 18 16 18 24 38 72 96 100 89 99 98 100 100 99 100 100 73 96 58 46 26 47 61 45 83 97 84 91 82
100 99 100 98 74 92 74 60 82 80 36 30 43 76 95 50 20 17 23 46 75 98 98 91 96 100 100 100 100 100 100 70 60 52 37 18 95 96 57 70 97 98 90 96 82
95 99 98 67 73 100 69 66 99 44 41 53 55 89 97 33 27 21 32 89 97 98 99 98 100 100 100 100 99 98 50 26 26 32 49 79 97 99 86 79 85 95 97 82 59
100 97 96 100 92 100 99 100 74 47 60 60 72 87 100 36 34 30 55 80 98 100 100 100 99 99 96 97 93 87 52 21 26 38 74 97 98 98 98 97 88 76 88 88 67
93 93 100 100 84 82 96 100 58 52 75 76 93 100 100 36 38 41 46 88 95 97 100 100 96 100 98 99 96 91 80 75 87 92 96 98 90 87 95 78 79 81 93 80 66

GFSSW_500_rhum_021.txt.gz
RH
35 22 24 25 25 23 25 19 20 19 18 16 10 7 7 6 5 9 12 11 11 9 7 9 10 9 12 13 12 11 9 11 14 16 18 19 18 18 17 16 29 43 41 36 37
57 17 28 33 38 21 19 22 18 18 17 16 11 8 7 6 5 11 10 11 8 6 8 9 9 9 11 14 12 10 11 11 9 15 18 19 20 19 17 16 15 22 36 39 40
40 38 23 31 44 29 17 19 19 17 15 14 11 9 8 7 8 10 9 8 7 7 7 8 10 10 10 11 11 11 13 13 10 11 13 18 19 19 13 12 17 16 16 28 39
21 27 29 21 40 44 19 19 18 16 15 14 12 10 8 8 8 10 8 10 9 7 7 8 10 11 11 11 10 8 13 16 14 12 12 12 12 12 11 11 12 11 14 15 27
25 22 33 17 36 54 23 21 19 18 18 18 16 14 11 11 14 11 12 11 8 8 8 10 12 12 11 12 12 11 12 11 14 17 14 14 14 14 14 15 14 11 10 13 16
5 15 13 37 22 55 40 22 20 19 19 19 18 18 15 15 12 14 14 12 9 8 8 11 11 11 13 16 13 14 16 16 15 16 17 15 15 13 16 18 16 18 18 12 13
6 5 5 26 28 38 56 23 22 20 17 18 18 18 19 13 14 14 14 12 9 8 7 9 10 11 15 17 14 13 13 14 18 19 13 16 11 12 16 20 18 15 20 20 14
5 4 4 4 41 26 47 48 23 20 16 15 15 17 19 18 15 14 14 14 11 9 8 8 8 9 11 11 11 11 12 14 16 18 16 14 10 14 14 15 20 17 14 20 20
3 3 3 4 28 45 27 55 31 22 18 14 13 15 16 17 16 15 15 14 13 11 9 8 8 8 8 8 9 12 10 11 12 14 13 12 11 15 15 14 14 15 13 13 21
2 2 3 3 5 50 43 33 56 22 20 16 14 13 14 14 13 11 10 9 9 7 6 6 5 5 5 10 9 9 8 9 11 13 13 12 9 12 14 14 12 12 13 12 14
2 2 2 3 9 20 49 40 46 45 21 20 18 16 14 13 14 12 11 10 10 9 8 7 7 7 8 8 8 7 8 8 9 12 14 12 10 11 13 13 14 14 11 12 9
2 2 2 3 4 94 57 45 32 51 34 20 20 19 18 17 15 14 14 14 13 13 12 11 10 12 12 12 12 11 10 11 11 12 12 13 12 13 14 14 15 18 14 12 10
5 2 2 3 56 94 49 48 44 40 51 26 19 20 20 20 18 18 18 18 18 18 18 19 19 19 19 18 18 19 18 18 18 17 16 15 14 15 14 14 15 19 27 25 15
4 4 2 3 4 100 81 100 54 36 51 49 26 18 19 20 21 21 20 20 19 19 19 18 18 17 16 17 19 17 19 20 20 19 17 19 13 12 15 18 18 19 26 34 33
32 8 5 3 8 97 100 97 96 52 41 47 47 32 19 18 19 21 20 19 18 16 16 17 17 18 17 19 20 19 19 21 23 23 21 18 20 10 12 16 19 33 30 30 34
89 42 6 4 16 96 100 100 94 77 42 39 47 48 45 34 24 21 22 27 32 34 36 35 34 32 30 28 29 31 33 36 39 37 28 27 30 16 19 18 18 31 44 35 28
79 76 6 4 100 100 100 100 100 70 64 38 37 45 48 47 46 45 44 41 39 37 35 34 35 33 33 34 35 35 39 44 44 43 34 38 39 21 20 20 21 28 42 48 36
83 94 6 57 97 100 100 100 98 59 60 49 34 36 40 43 44 43 41 36 33 34 40 36 33 28 23 17 14 13 16 19 28 29 35 40 34 26 25 26 30 33 41 43 41
66 26 6 50 100 100 100 100 100 63 57 54 35 30 31 29 28 29 30 35 38 37 34 34 24 14 15 20 43 47 34 40 26 23 25 20 16 15 22 28 27 29 37 48 43
29 94 8 31 100 92 100 100 100 82 60 54 43 36 31 29 28 34 35 35 37 35 37 22 13 16 18 27 49 55 53 52 61 54 42 31 26 22 32 43 45 26 24 41 48
20 100 58 100 100 100 100 98 98 79 50 43 45 39 34 29 32 35 37 38 34 42 27 17 18 23 29 52 88 99 98 97 99 97 96 84 59 39 48 58 46 38 29 24 44
52 100 75 81 93 100 100 100 100 68 43 35 42 39 33 34 34 40 45 33 36 52 17 21 22 42 73 99 100 99 100 100 100 97 100 100 43 64 50 42 63 48 46 27 35
98 100 66 98 99 99 100 97 85 63 36 32 38 37 33 37 35 41 37 34 72 33 16 34 60 69 66 90 98 94 100 100 100 100 97 100 50 76 100 57 56 66 72 40 27
100 100 98 100 98 85 82 88 98 70 48 39 38 37 41 40 46 37 37 78 46 19 32 81 80 75 94 99 98 100 68 100 100 93 96 70 70 74 87 60 83 93 84 61 41
100 100 100 86 84 99 100 100 100 68 55 57 52 45 41 55 43 39 82 51 25 40 80 76 81 94 98 98 99 99 54 23 24 31 44 63 61 55 64 69 94 96 100 65 46
100 100 68 100 100 100 100 100 88 70 62 58 53 50 60 42 54 91 42 27 44 69 92 85 95 98 99 97 95 89 75 39 21 26 34 50 65 56 80 97 100 98 99 68 51
99 84 89 80 99 68 89 84 71 74 82 78 72 67 44 62 91 63 33 39 67 92 93 94 98 96 98 98 99 98 68 72 32 36 32 58 89 91 100 100 98 99 71 78 82

GFSSW_500_rhum_024.txt.gz
RH
38 54 88 44 22 29 28 22 22 22 18 15 14 14 14 10 7 7 7 6 6 6 10 12 12 12 9 8 9 10 8 8 12 14 16 17 16 14 14 14 14 22 35 37 35
21 35 56 64 66 24 28 26 22 24 21 17 17 16 16 14 8 7 6 6 6 8 13 12 12 10 7 10 10 10 9 12 12 12 14 17 17 16 14 14 15 16 16 27 39
6 9 23 36 70 82 30 34 30 21 21 20 18 20 18 16 11 8 6 6 6 7 15 12 10 6 6 9 9 10 11 13 14 12 10 11 14 16 13 12 15 18 17 16 18
7 6 8 18 19 41 30 41 46 19 18 19 18 18 16 14 11 11 7 6 7 7 14 11 6 6 9 8 9 9 11 12 14 13 11 8 7 9 11 12 13 14 13 13 14
7 6 6 6 21 19 40 24 52 29 20 19 18 16 15 13 12 12 9 7 7 8 11 12 8 8 7 8 9 10 12 11 11 14 14 11 10 9 9 14 12 11 11 12 11
8 8 6 6 5 18 20 35 43 38 23 21 18 16 15 16 13 12 11 10 9 9 10 13 10 7 8 9 10 10 12 12 13 14 12 12 13 9 13 13 11 11 12 14 13
8 6 6 6 5 5 13 33 27 52 24 23 19 19 19 18 17 22 20 21 15 12 13 12 10 7 11 12 10 11 14 15 17 16 13 12 11 10 16 12 11 11 11 14 17
6 7 6 4 5 4 4 13 32 52 33 25 21 20 20 19 20 22 27 25 20 16 14 12 11 10 12 12 14 14 15 14 17 14 12 11 12 13 17 14 13 13 11 12 17
3 3 3 5 4 4 4 5 48 40 53 25 22 19 18 18 20 22 26 27 22 16 13 12 12 12 15 16 16 16 14 14 14 14 11 9 9 13 14 12 13 12 14 12 13
2 2 2 2 3 3 21 19 45 35 54 27 25 20 16 16 18 25 27 27 23 17 14 13 13 12 15 18 14 11 8 9 9 11 11 10 8 9 10 10 11 13 12 12 12
3 3 3 2 2 3 92 100 26 41 36 42 26 21 16 15 16 20 25 26 24 20 19 16 11 12 12 9 7 8 7 7 8 10 10 9 6 8 9 9 10 11 14 15 13
3 3 4 2 2 4 98 89 18 72 47 57 22 24 18 16 15 16 17 16 15 14 10 9 8 10 9 10 9 8 8 8 8 8 8 8 6 8 10 11 12 13 13 13 17
41 25 5 4 3 63 92 92 95 91 55 61 31 23 23 18 16 15 15 15 14 13 12 12 11 13 12 12 13 14 14 15 15 16 16 14 6 10 10 11 13 14 15 15 16
90 99 47 6 3 54 100 100 100 100 70 50 51 21 22 21 19 18 17 16 16 16 16 17 18 19 19 19 18 17 17 16 16 16 16 16 12 12 15 16 15 18 18 17 16
100 83 88 14 4 38 100 100 100 100 92 57 52 35 21 22 20 20 20 19 19 19 20 19 19 19 17 19 18 20 20 23 23 22 19 16 15 12 11 11 12 14 16 19 18
99 86 97 57 4 54 100 100 100 100 93 67 49 48 28 20 21 21 21 21 21 21 19 17 20 29 35 35 34 31 30 31 31 30 25 23 28 11 17 17 17 18 18 19 19
82 77 100 44 4 82 100 100 100 99 83 75 46 47 47 29 19 19 19 19 19 19 26 37 38 36 33 29 29 29 30 27 23 21 20 18 19 16 19 23 24 27 29 23 23
100 85 100 11 51 100 100 100 100 88 94 76 57 39 48 48 41 36 31 30 35 44 42 38 34 30 31 28 27 21 17 28 40 40 38 18 12 13 13 13 17 29 32 35 26
88 99 52 5 14 99 95 100 100 94 97 77 68 36 40 47 49 48 47 46 45 42 38 28 33 34 30 20 14 17 24 37 53 63 78 62 35 21 23 36 33 19 23 32 30
82 89 6 11 31 81 90 100 92 99 100 81 83 45 35 39 42 43 41 39 38 32 28 34 36 29 19 20 23 28 46 76 100 93 97 65 74 58 43 47 45 38 36 22 29
97 26 27 100 100 100 100 100 100 100 100 80 84 66 33 34 33 33 32 31 32 31 38 41 39 16 18 31 44 68 83 98 100 100 100 95 75 81 57 59 73 35 37 41 24
91 15 48 100 100 100 80 97 100 99 94 72 66 87 39 35 34 35 34 31 35 42 37 45 16 15 29 58 69 70 88 97 100 100 100 98 58 100 98 93 79 33 36 53 40
100 77 75 100 100 99 100 100 100 96 82 63 57 86 51 43 43 40 32 34 43 34 50 33 16 32 61 62 61 82 100 100 62 47 71 100 64 100 100 98 95 67 38 47 68
100 97 71 97 96 99 85 100 100 92 67 64 47 54 67 47 42 34 33 43 34 51 38 18 38 62 66 76 90 91 92 89 42 31 67 44 62 100 100 89 85 66 37 48 69
78 53 66 99 81 76 99 100 99 85 65 50 43 41 45 46 38 31 43 34 58 37 23 61 74 65 87 85 100 95 95 96 34 23 28 40 61 78 54 57 39 32 36 52 83
60 40 68 77 74 85 100 88 90 84 54 41 47 46 47 41 35 50 38 53 43 29 64 85 87 90 100 94 95 94 84 61 55 27 28 38 58 66 74 57 35 51 61 70 99
32 34 67 79 99 99 99 94 78 77 52 50 56 53 48 41 45 42 61 42 31 67 88 82 95 95 98 97 98 97 76 87 90 70 44 52 72 100 100 98 88 99 99 86 67

GFSSW_500_rhum_027.txt.gz
RH
8 8 30 48 74 34 22 32 27 24 22 20 17 13 13 12 12 10 9 10 10 10 10 10 9 9 10 11 13 14 9 6 8 12 15 15 10 13 12 12 12 16 27 24 32
8 9 7 15 36 78 55 24 32 29 26 24 20 16 14 13 13 12 11 8 9 9 9 8 6 6 10 12 12 13 9 8 13 13 12 11 12 14 10 12 12 14 14 19 30
12 9 7 7 6 31 65 84 26 34 38 26 26 20 18 16 14 15 13 10 8 8 7 6 5 7 10 14 12 10 8 13 12 12 13 10 10 13 11 12 12 14 16 15 16
17 13 9 7 6 6 20 42 89 35 32 37 22 24 19 18 16 16 15 12 9 7 7 6 6 8 12 13 12 8 8 11 12 14 13 12 11 11 10 11 10 11 11 10 17
18 16 14 10 6 6 6 12 36 70 59 44 24 19 21 19 18 17 15 13 10 8 6 6 7 8 13 12 9 6 10 9 11 12 14 13 12 11 8 11 11 9 11 11 13
17 16 13 10 10 7 5 5 17 32 36 67 37 20 20 19 18 17 16 14 12 8 7 8 8 9 13 11 8 8 8 9 11 12 11 9 12 8 9 11 9 8 7 9 10
15 15 13 11 8 8 7 5 5 10 39 37 53 24 21 19 18 18 15 14 13 12 8 10 10 10 12 10 10 8 10 11 11 12 10 10 9 9 12 11 9 9 9 8 8
5 7 9 9 10 9 7 6 5 4 25 34 47 26 23 20 19 19 16 14 12 13 14 10 12 10 12 10 15 13 11 13 12 13 11 10 10 11 13 11 11 11 11 11 9
3 3 2 3 6 8 8 6 4 6 7 36 47 29 27 22 22 21 20 17 18 19 21 20 20 16 16 15 16 18 16 15 13 15 11 10 10 12 12 12 10 11 11 11 10
2 2 2 2 2 3 5 6 19 92 7 36 42 35 28 23 22 21 20 21 22 31 32 30 32 23 20 19 20 21 17 19 18 16 14 11 9 12 9 10 8 9 10 11 12
3 3 4 4 3 2 3 5 100 66 30 24 43 44 30 25 22 20 20 22 25 30 32 34 29 26 33 21 20 20 21 23 21 18 14 11 8 8 9 9 8 8 8 9 11
24 30 27 6 4 3 3 12 100 100 77 29 52 67 30 28 23 19 19 22 26 31 28 30 28 42 29 27 24 20 16 14 13 12 10 9 7 6 8 8 9 9 9 10 11
100 100 100 76 8 4 11 100 100 100 100 58 55 87 30 30 24 19 19 23 31 31 32 31 32 30 22 17 13 12 10 10 10 10 9 8 5 8 6 6 8 10 10 12 13
83 99 100 100 32 6 84 100 100 100 100 58 53 79 30 28 25 19 16 19 19 21 20 17 18 18 16 14 14 13 14 17 19 19 18 16 9 9 9 8 10 14 16 15 15
100 100 100 78 75 8 31 100 100 100 100 69 68 66 39 26 24 20 17 17 19 17 16 15 18 17 18 20 19 18 18 17 17 17 15 16 18 4 8 9 12 13 14 15 17
100 82 93 92 79 5 71 100 100 100 100 93 71 66 53 23 26 25 20 18 18 18 18 18 19 20 20 18 17 20 24 30 28 22 16 17 19 8 13 13 13 13 14 17 19
73 74 96 100 41 4 78 100 100 100 95 94 74 62 63 24 23 24 23 21 21 20 20 21 20 18 18 32 34 31 27 23 21 20 16 19 15 8 15 13 12 11 12 13 16
88 100 85 96 66 24 100 100 100 99 96 95 82 66 62 35 22 24 23 23 22 21 21 20 20 25 39 34 30 27 24 25 20 16 13 16 11 15 28 28 21 14 19 20 14
99 94 100 87 40 96 100 100 100 89 100 100 91 67 66 49 29 21 21 20 20 20 21 25 36 41 38 31 29 25 22 18 17 20 28 29 33 35 45 56 50 46 25 36 24
70 100 94 72 8 99 100 100 88 100 100 99 97 71 47 49 47 37 31 33 36 39 43 43 42 37 30 32 28 21 17 20 43 47 61 40 47 52 77 91 89 57 83 99 65
100 88 100 36 7 99 100 100 100 100 100 98 93 88 42 43 49 49 49 48 48 47 45 42 34 31 36 31 18 16 28 56 64 64 78 65 35 86 72 55 72 98 96 87 62
48 19 14 18 98 100 99 97 100 100 99 82 79 90 43 39 46 47 48 47 46 42 33 30 32 35 39 17 16 31 55 59 64 85 77 77 23 69 39 41 83 94 99 90 54
64 100 100 97 99 100 100 98 99 100 95 87 77 95 44 46 46 46 42 39 34 31 31 34 36 43 21 20 40 52 75 83 85 82 73 96 34 86 40 47 76 90 99 99 56
56 100 82 85 94 100 88 96 100 98 88 85 77 99 55 45 45 46 41 35 32 34 37 40 46 23 25 58 56 66 75 98 100 84 90 51 36 39 69 64 59 63 79 77 51
61 88 92 82 87 80 85 100 100 96 85 78 70 79 87 68 50 47 42 35 34 35 46 48 21 31 71 69 93 90 90 99 100 95 72 65 49 68 90 100 91 55 68 83 64
60 86 86 97 95 99 97 100 100 86 78 60 66 61 79 69 59 48 35 33 34 52 48 23 46 74 97 100 92 95 86 81 87 87 88 87 70 82 100 100 100 89 44 44 57
52 98 100 99 96 86 72 76 74 68 56 51 56 54 56 57 50 39 37 37 57 42 35 66 85 93 98 99 93 75 96 78 76 74 66 65 93 98 100 99 99 94 82 50 46

GFSSW_500_rhum_030.txt.gz
RH
15 11 11 9 18 39 81 81 39 58 33 21 19 28 26 23 17 14 13 12 11 12 14 14 13 13 14 14 12 12 10 9 11 12 11 12 13 7 11 11 10 9 15 13 9
23 19 14 10 9 9 30 56 83 27 39 27 24 23 24 24 21 17 16 12 11 11 11 13 13 13 12 12 11 10 8 10 13 14 11 10 11 7 9 12 11 10 10 10 17
19 22 21 17 11 8 7 13 29 76 40 36 26 26 25 26 18 21 17 15 11 10 11 11 11 11 11 10 9 8 8 12 14 13 9 10 10 9 9 10 11 10 11 11 12
19 19 19 21 18 13 8 7 12 29 97 38 41 29 26 22 16 18 18 15 14 12 9 9 10 10 10 9 7 5 7 13 16 11 7 9 11 8 8 9 11 10 10 8 9
16 17 20 18 19 18 14 7 6 13 41 97 42 45 34 25 23 20 20 17 17 14 13 9 9 9 8 8 6 5 6 13 14 9 7 11 11 11 8 9 12 10 10 10 8
12 11 13 16 18 18 17 13 7 6 17 40 91 42 46 26 23 21 20 19 18 16 14 12 9 9 8 7 6 7 6 12 12 8 9 9 11 10 9 13 12 10 8 8 6
9 7 6 6 9 17 16 15 11 6 5 10 35 95 52 37 21 24 20 19 18 17 16 13 10 9 8 7 6 6 10 13 10 11 11 10 8 8 10 10 9 8 8 7 7
5 4 3 3 3 6 15 15 11 8 6 5 7 40 68 51 24 22 21 18 17 16 17 18 11 9 8 7 9 13 12 14 12 12 11 9 8 9 8 10 8 8 8 9 9
4 7 9 7 4 3 5 14 12 9 7 5 5 18 37 64 36 23 20 19 18 25 18 30 13 10 9 10 11 14 14 15 13 12 12 10 8 12 9 10 8 8 9 9 9
21 19 12 5 3 3 2 5 9 10 8 15 11 8 32 40 59 28 21 19 20 22 67 49 16 12 10 12 14 23 18 15 14 12 14 10 9 10 10 9 10 8 9 9 8
13 7 7 10 5 3 2 3 5 10 9 11 11 7 30 40 34 29 23 20 21 20 20 34 19 15 38 25 34 21 19 18 20 17 13 15 10 10 12 9 11 9 8 8 8
16 94 68 95 82 16 3 3 3 9 10 15 43 14 29 44 35 28 23 21 20 22 22 23 24 42 34 33 37 30 26 27 31 28 17 20 13 12 11 11 11 10 10 10 10
56 100 89 97 100 64 5 4 5 35 24 83 100 25 39 46 35 31 25 22 23 26 24 30 38 38 36 35 33 34 29 31 24 24 22 17 12 14 11 10 10 10 11 12 13
94 99 100 91 93 100 12 4 98 100 100 100 89 28 48 49 35 36 24 22 23 28 33 29 31 38 34 35 36 30 24 19 14 12 11 10 8 8 8 7 7 9 8 8 10
100 100 94 85 83 81 8 64 100 100 100 92 64 79 54 62 48 30 24 20 23 32 36 38 41 40 37 27 19 16 13 14 15 17 16 16 14 5 7 9 11 11 11 10 12
87 91 96 100 93 65 20 100 100 100 100 95 85 74 57 58 43 30 22 20 24 23 22 24 22 22 21 19 17 18 19 18 17 17 16 18 16 5 7 7 8 10 9 9 11
73 79 68 72 78 77 66 100 100 98 100 74 64 81 56 66 32 27 22 19 21 22 23 21 23 22 21 21 20 18 18 22 26 20 14 14 9 6 9 10 10 11 19 30 24
100 82 72 72 98 57 99 100 100 100 100 100 96 66 63 75 34 28 24 21 21 22 22 20 20 21 22 20 18 22 28 35 24 16 14 15 9 9 11 12 18 21 32 38 26
75 87 100 84 91 77 98 100 100 100 100 96 98 88 72 87 36 24 25 26 23 23 23 24 21 21 20 20 27 32 32 27 23 21 16 12 10 14 27 33 48 47 35 26 23
92 79 97 91 70 81 99 100 99 100 96 100 95 80 76 76 40 23 24 24 25 26 24 22 20 20 25 38 38 34 30 26 24 19 15 13 18 25 50 58 39 31 32 36 40
40 74 100 69 45 93 100 100 100 100 100 95 95 92 72 80 46 24 24 24 24 21 20 22 26 35 42 39 32 30 31 28 17 19 36 26 22 55 68 78 82 60 40 51 53
41 60 63 92 94 96 100 100 100 100 98 97 95 85 72 90 55 45 34 28 28 32 41 46 46 44 35 29 25 31 33 16 24 56 55 53 30 64 95 82 80 56 52 92 64
89 46 89 98 100 100 100 100 98 98 100 95 99 62 67 71 66 51 49 48 49 50 48 46 39 32 31 29 39 32 19 42 64 66 66 71 50 82 79 87 72 55 92 99 94
55 56 93 100 100 100 100 100 100 99 97 83 90 81 47 50 58 55 53 51 50 47 38 31 31 33 39 43 26 30 70 68 67 67 75 58 23 67 56 89 100 97 100 99 90
78 89 82 75 89 98 100 100 100 96 93 80 78 92 54 51 50 52 50 43 35 32 30 30 36 42 47 24 47 60 63 74 86 89 65 66 51 42 87 99 99 100 99 100 72
62 66 78 72 75 89 99 100 100 93 81 81 75 90 65 52 51 50 44 40 39 35 33 34 55 35 35 74 76 82 74 86 75 72 69 79 71 87 95 73 100 100 100 100 48
36 59 99 82 71 74 68 57 66 66 63 58 59 68 89 89 73 55 50 49 36 34 40 54 31 64 96 82 74 80 84 79 76 75 77 73 74 91 92 62 70 82 97 60 31

GFSSW_500_rhum_033.txt.gz
RH
10 11 17 24 20 14 10 14 40 92 85 56 32 18 37 32 23 17 17 15 13 17 17 14 15 16 17 16 16 15 9 10 11 11 13 13 10 10 10 8 12 12 9 8 7
12 10 11 14 23 21 12 11 8 21 92 76 87 33 18 29 31 22 21 16 13 15 18 17 16 16 16 16 14 11 8 9 13 14 14 12 10 8 8 7 14 10 10 10 9
13 12 11 11 14 21 22 14 9 7 20 93 43 79 35 21 24 37 24 20 16 13 14 17 17 16 13 14 13 11 9 12 12 12 12 11 11 8 7 6 10 14 11 11 10
14 11 12 14 12 17 21 21 15 9 6 15 78 38 51 28 22 29 30 27 21 17 12 13 14 15 14 14 14 12 11 11 11 10 9 10 11 8 7 7 8 15 10 7 9
12 16 13 14 15 12 19 22 20 16 9 6 10 70 38 35 24 24 27 31 28 22 18 14 12 12 13 14 14 12 11 10 9 7 6 9 12 7 7 8 12 12 12 9 8
11 9 8 7 13 13 13 18 22 20 16 7 6 44 56 35 28 25 23 23 24 23 24 19 14 11 11 11 11 10 10 9 8 5 4 9 12 7 7 9 10 11 9 9 8
8 8 8 6 5 13 12 12 18 20 18 12 6 6 73 46 37 28 28 22 21 21 21 21 18 14 11 10 10 10 9 8 7 8 9 14 10 6 9 9 8 9 10 8 8
15 21 23 22 11 4 4 8 10 19 20 16 9 6 26 81 38 43 28 26 22 22 21 20 19 17 14 11 9 9 8 8 16 11 11 13 7 8 11 8 7 8 7 8 8
22 29 28 26 26 23 18 5 6 12 19 15 10 9 14 45 76 48 32 25 24 21 21 20 19 17 15 12 10 8 8 9 12 14 13 10 7 9 9 7 7 7 7 7 8
15 14 11 10 8 6 8 14 4 8 13 61 24 29 10 17 60 65 40 24 24 23 25 36 32 29 17 14 11 12 10 8 9 10 9 9 6 7 9 7 8 8 8 8 8
8 10 54 60 94 68 25 4 4 5 9 62 24 23 12 13 40 66 58 28 25 30 33 28 36 54 99 33 14 11 9 9 11 13 10 11 9 8 9 8 8 9 9 9 10
8 64 98 98 98 98 92 6 5 36 100 92 26 14 17 34 38 51 75 38 25 22 23 37 46 68 62 30 17 11 9 14 15 14 9 10 9 8 9 11 11 12 11 12 12
9 100 98 93 100 100 100 14 5 93 100 56 28 12 26 32 37 43 48 80 32 25 21 20 26 50 33 21 23 21 17 20 16 20 18 10 8 11 12 14 15 16 15 13 12
25 100 99 100 96 100 98 10 6 100 100 100 44 22 41 16 30 44 38 34 38 38 26 21 28 35 31 34 40 33 28 28 27 27 19 16 7 12 15 15 17 16 14 13 12
77 91 74 60 96 86 72 5 13 100 100 80 98 46 27 21 30 41 36 29 24 22 22 25 27 32 38 44 35 33 31 32 28 22 18 15 10 7 10 10 10 9 8 9 10
86 82 70 80 63 79 61 55 35 100 99 100 88 35 40 23 38 43 35 27 24 21 21 28 38 53 45 44 36 32 25 19 15 13 11 14 12 6 7 8 9 9 10 10 10
83 80 77 59 74 57 85 100 97 99 100 100 41 63 56 32 42 44 34 26 21 19 27 40 49 47 40 32 23 19 19 19 18 17 14 12 10 6 9 12 11 10 11 11 11
80 75 78 76 74 69 98 100 100 100 100 70 81 79 60 47 54 65 34 27 22 22 27 31 34 28 24 21 20 21 21 20 18 16 15 13 8 8 11 14 12 12 17 18 23
83 77 98 84 42 92 97 100 100 100 100 78 87 68 44 57 54 67 30 24 21 23 29 25 25 25 24 23 22 24 24 26 28 25 18 14 12 12 13 16 30 40 34 34 33
67 73 88 33 53 98 100 100 100 100 86 94 71 67 67 49 67 38 28 23 22 26 25 23 24 23 24 24 24 26 30 30 28 21 16 14 14 12 34 53 41 41 45 44 44
53 58 61 91 100 100 100 100 100 100 100 91 81 66 54 59 75 32 27 27 28 26 22 23 23 26 25 26 31 36 34 26 23 24 19 16 21 54 71 48 37 39 54 48 57
34 86 100 100 100 100 100 100 100 100 100 93 78 86 78 79 75 30 26 29 28 26 25 24 22 29 33 41 40 36 25 22 27 17 24 52 30 74 58 61 52 54 72 99 100
80 84 89 98 100 100 100 95 99 99 95 89 79 80 77 93 79 33 25 25 25 24 23 26 36 46 46 40 30 24 28 32 21 40 81 64 63 68 53 55 68 85 91 96 96
81 53 57 87 87 99 93 97 93 90 89 92 80 82 74 90 66 51 34 30 28 37 41 48 49 44 35 28 26 33 28 31 60 78 57 81 46 58 44 39 52 52 61 89 99
50 65 52 73 86 98 100 97 94 92 86 89 74 63 64 82 78 56 51 51 52 52 50 45 35 30 29 29 34 26 52 85 80 86 70 60 67 43 54 42 20 18 30 88 97
49 61 68 63 69 66 57 62 73 68 82 75 82 77 50 55 66 64 57 55 49 42 33 31 35 36 38 39 24 70 89 77 94 95 77 67 66 51 70 44 21 21 20 21 60
30 34 37 47 58 55 49 51 63 56 56 57 64 80 69 52 52 52 46 42 39 38 36 33 34 52 37 35 82 91 97 98 95 82 64 58 61 60 72 66 33 23 28 33 23

GFSSW_500_rhum_036.txt.gz
RH
31 22 18 15 14 11 9 15 19 10 10 83 87 64 28 26 29 22 21 23 17 18 19 16 16 16 10 10 10 10 7 7 10 12 14 15 12 11 10 7 7 7 5 7 6
31 26 20 18 14 12 11 10 19 18 9 8 56 89 48 20 30 26 28 22 20 17 18 22 20 16 13 14 13 11 7 9 13 14 15 15 10 10 9 8 8 7 9 7 8
29 25 25 21 17 14 13 13 13 23 17 8 7 73 92 53 19 37 32 23 22 20 16 19 21 15 14 16 12 13 9 13 14 16 17 13 11 10 8 8 7 6 7 6 7
22 16 18 17 16 16 15 13 14 21 24 17 8 8 94 89 47 24 34 33 25 23 18 15 18 19 16 16 16 14 14 14 14 14 12 12 12 10 8 8 8 6 7 7 7
10 8 8 9 12 14 21 17 16 18 25 23 16 6 18 93 74 39 24 36 34 24 22 17 15 18 19 18 19 16 14 14 14 13 12 10 9 10 10 10 10 7 6 6 6
8 11 14 13 14 16 10 25 20 20 26 25 23 12 6 50 79 57 30 28 37 34 26 21 18 15 17 19 18 14 16 14 12 12 11 10 9 8 9 13 12 8 6 7 6
11 7 11 11 19 24 21 10 28 25 23 28 25 17 7 16 90 64 39 44 37 38 34 27 23 16 14 15 15 15 15 14 13 14 12 11 8 5 8 14 10 8 6 6 7
10 12 16 20 35 33 27 18 13 27 23 27 25 20 10 7 60 65 52 30 43 32 36 34 28 23 19 14 13 13 13 12 13 14 12 10 6 6 6 11 8 6 8 7 7
23 10 15 48 64 28 22 16 7 23 24 24 22 22 13 9 29 81 64 32 29 26 44 28 29 27 23 18 14 11 10 11 12 12 11 9 6 8 7 7 8 7 7 7 8
34 8 10 57 75 80 28 17 8 8 23 21 19 42 30 14 27 99 56 55 31 29 35 58 28 22 22 19 16 15 13 10 10 10 8 8 6 7 9 8 9 8 8 8 8
48 9 56 100 100 100 85 18 12 5 15 18 18 45 81 26 26 95 62 47 45 44 27 31 65 35 20 23 19 16 13 11 10 9 8 8 6 6 11 10 9 10 8 9 9
73 29 66 78 94 100 100 76 16 5 6 14 18 32 47 47 69 51 94 47 47 61 47 34 34 49 100 58 30 20 16 14 12 10 8 7 6 7 9 10 10 9 9 9 11
100 74 74 76 80 97 88 84 10 6 8 11 22 38 68 80 30 29 86 65 38 34 43 41 39 40 59 96 75 66 28 16 13 11 9 8 6 7 10 10 11 10 10 9 11
100 99 86 91 76 84 73 35 5 13 100 85 100 84 97 57 29 40 74 99 46 30 40 85 45 56 59 50 55 37 26 18 15 13 9 10 7 9 11 10 11 13 12 14 18
90 87 94 64 62 81 61 6 9 93 100 100 100 99 82 29 36 37 68 80 80 33 26 28 25 26 30 34 27 26 25 27 24 15 10 14 9 8 14 13 13 14 14 15 16
80 83 67 80 74 76 10 60 98 100 100 91 77 61 30 20 29 41 55 52 67 72 48 38 40 30 26 26 28 32 36 32 25 22 12 16 11 9 11 10 11 12 12 12 11
81 62 41 67 79 30 11 92 100 98 100 100 61 43 26 27 16 29 46 42 37 32 30 25 28 28 26 27 30 38 40 31 24 19 14 13 11 10 13 15 13 12 13 11 10
64 37 46 66 98 58 28 82 100 100 100 82 60 49 31 25 21 30 45 38 31 27 32 36 38 39 38 40 40 41 27 19 16 15 15 13 10 13 18 19 17 14 12 12 11
36 60 96 100 100 100 100 100 100 100 100 81 77 57 48 36 22 40 42 35 28 27 27 36 43 39 37 35 26 24 21 20 19 17 13 16 16 17 20 18 14 12 11 11 10
44 93 100 100 100 91 93 100 65 79 81 89 56 45 58 26 30 49 46 31 30 26 31 30 32 28 25 25 24 22 22 26 27 23 18 15 14 17 28 24 20 20 21 22 25
84 83 92 100 100 70 72 80 86 65 50 64 74 51 53 42 44 65 64 33 27 23 27 27 28 26 25 23 23 23 24 27 30 26 21 15 15 49 45 38 36 38 34 33 36
45 55 90 100 92 90 90 69 77 78 77 72 72 83 72 54 60 71 35 31 27 22 25 27 27 27 24 23 24 32 39 36 26 21 25 23 51 60 58 53 54 48 45 28 25
45 24 24 37 69 99 100 96 79 82 81 76 74 69 60 66 76 65 29 30 26 24 26 30 26 24 23 28 38 42 33 25 25 26 46 60 61 54 58 68 58 24 15 15 17
31 30 28 23 27 61 87 93 92 87 77 72 70 63 69 69 84 47 26 26 28 26 26 25 24 29 36 39 37 29 27 29 23 56 67 79 65 54 62 46 42 19 19 27 25
36 36 39 35 39 41 62 66 62 56 73 69 75 77 77 89 67 35 25 25 25 25 26 30 44 47 46 35 27 31 37 26 76 83 65 70 57 51 51 46 38 20 29 38 29
38 48 42 43 48 41 47 48 50 55 58 76 66 77 72 96 70 55 48 43 42 45 51 51 47 39 28 28 31 36 32 76 84 69 79 62 68 63 54 53 58 42 30 48 32
23 33 50 53 49 45 42 45 42 41 38 41 61 74 55 70 94 73 59 55 54 52 47 37 34 33 30 36 32 43 81 89 76 91 81 70 65 65 65 66 62 68 44 46 44

GFSSW_500_rhum_039.txt.gz
RH
35 34 31 29 27 23 23 21 16 13 13 19 12 41 80 82 39 30 26 31 24 23 24 20 20 21 24 27 24 22 16 12 15 15 12 13 9 8 6 6 6 5 6 6 6
24 24 21 19 20 18 22 25 22 16 13 18 16 10 71 96 76 29 38 31 29 24 21 25 23 20 15 14 16 17 14 14 17 12 14 13 10 8 8 6 7 6 7 6 6
19 15 10 8 8 13 22 26 28 21 15 15 24 12 19 81 92 50 36 34 28 29 25 20 25 21 18 14 10 10 10 11 14 13 15 14 12 11 9 9 8 8 6 6 6
12 9 12 13 14 13 14 13 24 26 19 17 26 23 11 27 89 76 37 38 34 29 29 24 18 22 19 16 11 9 8 11 15 17 16 13 12 9 10 11 9 9 7 6 7
9 16 18 26 21 16 14 19 16 29 26 22 25 29 26 10 58 98 56 32 42 33 28 27 23 17 21 22 18 12 11 14 18 18 15 14 12 12 10 11 9 10 9 8 6
21 22 53 45 17 38 32 14 18 25 29 32 33 32 57 56 30 93 94 44 36 43 32 27 26 21 18 23 20 15 15 16 18 17 16 14 12 11 11 12 11 10 9 8 7
24 57 77 30 36 84 99 66 22 19 32 34 40 37 28 88 24 72 98 63 33 47 42 33 30 25 18 17 23 18 16 17 16 17 16 15 12 8 11 11 9 8 9 7 6
30 91 87 13 46 96 100 100 90 28 36 37 41 38 28 88 16 47 99 93 69 50 58 44 32 27 24 16 16 20 20 17 16 18 17 16 8 11 10 11 8 6 6 7 7
42 96 41 15 87 100 100 76 77 32 22 39 39 37 28 39 14 37 98 98 98 93 72 57 42 30 26 21 16 15 16 16 18 18 17 13 9 12 11 10 8 6 4 6 9
60 91 23 87 100 100 100 89 38 26 15 39 39 32 29 30 20 41 79 97 100 100 88 79 51 38 28 21 17 15 15 14 14 15 13 12 8 11 11 10 8 7 6 7 9
81 83 61 74 100 99 100 100 45 20 11 36 36 37 28 80 29 36 68 100 99 74 71 82 76 42 34 31 28 21 16 13 12 12 11 11 9 9 10 9 9 8 7 8 11
100 95 66 88 100 96 100 100 72 23 11 33 32 28 46 47 100 39 71 97 93 95 57 63 72 61 38 30 28 24 19 16 16 14 11 10 8 9 9 8 8 7 7 8 10
100 100 98 91 89 80 78 82 49 14 12 30 29 41 41 46 64 35 66 91 94 99 69 47 63 94 81 50 29 20 18 20 17 15 12 11 9 9 9 8 8 7 7 8 10
82 98 100 84 88 72 74 73 16 9 18 26 31 51 96 100 87 56 92 94 96 98 96 61 34 50 84 100 86 65 39 27 23 21 17 16 13 12 10 9 8 8 9 10 10
69 58 74 82 78 72 63 20 9 12 18 22 55 94 100 47 88 46 83 99 76 94 90 53 50 48 36 93 96 63 71 71 50 32 22 16 15 14 15 15 15 15 13 12 12
30 65 49 48 62 41 11 10 13 32 57 31 39 66 48 57 52 40 74 98 71 50 87 97 84 54 52 52 51 64 59 37 24 18 15 18 15 16 15 14 14 14 14 12 12
70 47 30 19 12 6 14 80 100 99 33 33 56 58 96 58 36 41 46 72 87 43 39 74 72 34 29 25 23 26 26 21 20 18 17 19 14 15 16 13 13 14 13 12 12
76 93 96 16 6 48 99 100 100 72 100 100 100 100 79 38 32 38 56 63 81 83 54 41 47 46 44 46 31 25 24 24 23 23 21 16 13 17 24 22 17 12 10 10 9
74 57 78 42 83 99 98 100 100 94 99 90 88 79 49 19 23 42 50 52 53 48 78 75 67 49 31 32 33 33 31 39 26 18 16 15 17 26 26 21 16 14 12 11 10
80 74 48 84 83 76 100 81 88 62 81 59 50 50 23 32 33 34 44 74 41 40 35 34 35 45 48 48 47 39 34 24 19 16 17 16 22 26 19 16 13 11 11 13 13
28 65 38 56 57 44 56 71 95 79 75 59 44 34 54 40 32 43 46 58 46 40 27 28 40 49 44 36 29 24 24 22 24 22 19 18 26 21 18 17 26 32 31 29 27
21 17 42 33 28 33 27 38 62 61 62 59 57 77 61 48 54 50 52 39 33 28 33 38 37 35 28 26 26 25 24 25 28 30 25 21 31 34 30 43 37 35 36 34 19
23 23 20 66 64 47 53 41 49 28 72 75 65 65 66 50 52 65 86 46 29 27 30 32 30 30 26 26 24 25 33 40 35 26 26 24 58 52 50 45 44 46 51 27 22
22 22 23 20 28 54 60 48 46 53 54 52 60 65 54 52 62 71 42 31 30 28 29 27 27 27 26 26 31 41 40 34 26 28 26 74 78 54 51 56 61 67 52 35 23
29 27 24 25 43 40 45 38 45 56 65 64 67 54 53 59 74 72 34 28 30 29 28 28 26 25 28 37 44 42 32 26 29 27 89 74 70 74 66 60 56 50 44 41 32
32 40 27 27 25 37 48 41 46 49 50 62 74 75 74 78 92 48 30 26 28 29 28 25 26 38 45 47 37 28 27 31 34 86 82 85 79 72 64 52 54 50 49 51 46
24 30 39 46 43 39 36 32 30 27 32 33 48 70 74 93 88 55 36 30 27 29 29 42 47 48 44 35 29 32 33 44 93 86 76 75 69 62 60 67 59 52 50 54 46

GFSSW_500_rhum_042.txt.gz
RH
19 16 21 22 20 19 17 18 19 20 28 21 13 19 13 73 94 73 36 37 38 40 61 43 57 60 47 38 32 28 24 17 16 19 23 23 16 12 9 6 5 4 5 6 7
16 16 14 11 10 11 13 13 14 19 38 33 18 14 18 15 67 88 63 43 41 37 48 77 38 40 52 46 38 33 21 17 19 23 28 24 16 12 9 6 6 6 6 7 8
14 12 9 10 14 17 21 30 17 16 32 44 29 14 23 14 14 83 96 56 44 39 36 50 41 33 26 35 37 30 21 21 26 29 29 26 18 12 8 6 7 8 7 8 8
11 9 12 22 29 50 63 63 45 26 19 38 38 20 20 42 32 74 98 98 50 45 38 36 34 30 25 24 22 25 24 22 23 24 24 22 18 12 8 9 8 9 8 8 8
9 12 26 42 53 97 90 78 51 26 32 24 42 30 25 32 26 38 99 98 85 46 41 34 30 24 25 22 19 16 15 15 17 16 16 17 14 9 8 10 9 10 9 8 8
10 22 64 67 71 84 68 79 100 99 29 28 41 39 32 45 98 37 85 99 94 44 47 35 33 30 25 23 25 19 16 18 18 16 14 13 11 9 9 12 11 11 10 9 8
13 61 100 64 53 54 78 94 100 100 67 26 40 46 32 22 81 100 42 96 97 42 47 45 35 33 33 27 20 21 19 18 17 16 14 11 10 8 14 14 12 12 11 9 8
16 85 89 40 54 94 90 100 99 100 99 30 42 48 29 32 78 87 43 94 100 60 43 51 40 33 31 29 20 18 20 18 18 16 15 15 10 11 14 13 13 11 10 9 7
20 82 88 58 96 96 100 100 86 98 100 66 43 47 35 33 66 100 50 90 100 98 66 54 48 36 30 28 24 18 15 16 21 20 18 14 10 13 12 12 11 11 11 9 8
25 96 87 76 89 100 100 100 100 100 100 45 47 45 32 34 100 100 41 97 98 99 98 77 54 44 32 26 23 20 16 16 21 22 18 14 8 13 14 14 12 11 13 12 10
50 82 93 64 95 96 100 100 98 81 93 34 48 40 37 34 82 66 72 95 98 100 92 95 75 43 37 29 27 25 22 16 15 17 17 16 12 12 14 13 13 12 12 11 10
56 73 100 100 68 89 88 96 96 85 41 31 49 53 34 36 99 54 53 90 99 99 94 98 81 80 49 39 30 24 22 20 17 15 14 14 13 13 13 12 12 11 11 10 10
33 52 79 99 79 80 74 82 75 37 25 42 56 47 31 40 93 38 49 73 91 99 99 99 100 95 78 51 40 30 24 24 23 20 15 12 11 11 11 11 10 9 9 9 8
79 56 48 90 84 68 75 67 36 19 33 46 85 44 35 86 68 40 50 79 89 95 97 87 88 97 85 82 52 34 32 31 27 21 16 14 10 14 13 12 11 9 9 8 7
49 6 17 33 46 54 40 20 15 29 40 42 36 40 100 81 100 93 53 96 98 97 95 66 66 90 97 89 66 42 35 30 22 18 15 14 12 16 19 17 16 13 10 9 8
11 13 20 24 8 11 13 17 29 35 51 63 52 42 32 41 65 46 70 98 94 100 99 80 60 49 90 97 100 100 95 69 47 36 20 31 26 26 21 20 18 16 14 12 11
38 60 88 100 96 17 26 35 38 78 85 96 94 69 96 87 64 55 77 92 93 91 99 88 70 52 44 48 82 100 96 68 49 40 27 27 22 20 23 19 16 14 13 12 11
39 61 81 100 100 31 27 57 41 35 61 98 88 98 87 68 85 50 88 99 89 85 92 93 100 78 57 54 57 53 47 41 31 25 24 23 22 22 20 16 13 12 12 11 11
31 43 57 65 80 52 26 21 22 24 29 50 38 39 40 45 41 39 55 91 99 63 59 95 97 90 46 31 29 30 24 27 24 24 26 24 21 18 16 16 15 12 10 10 10
21 28 31 37 49 67 61 84 94 81 85 55 48 52 54 47 43 40 58 80 98 95 76 59 60 60 49 49 49 47 47 38 29 28 25 21 21 22 20 16 14 13 12 10 10
32 31 43 31 33 35 46 58 70 98 99 94 89 61 54 35 42 47 52 74 73 63 64 75 64 59 51 41 39 38 46 41 34 24 20 23 29 24 19 14 13 12 12 28 34
38 42 48 46 38 24 21 43 40 69 74 48 45 42 52 50 38 44 51 70 64 48 43 37 38 44 44 45 46 44 35 28 26 26 25 31 28 22 16 15 15 36 41 36 27
20 39 33 38 41 44 57 24 38 41 41 37 46 48 42 33 40 47 49 71 85 38 37 35 35 38 39 33 30 28 27 26 27 33 36 31 24 18 20 40 40 41 38 32 33
22 32 43 41 39 45 40 34 46 48 48 36 33 47 49 46 49 51 67 59 37 33 30 36 36 34 29 28 28 27 27 34 37 38 30 31 32 34 54 53 46 41 40 44 43
20 26 31 44 49 38 35 36 37 53 55 47 55 51 48 51 55 66 86 60 35 30 32 30 30 29 27 27 28 32 39 41 36 28 30 38 70 73 64 67 60 52 49 43 34
19 30 32 38 31 48 40 37 35 38 50 64 61 55 54 54 66 74 51 31 32 30 32 30 29 27 25 29 42 47 44 33 28 31 58 82 75 80 72 66 54 48 41 39 37
14 18 27 41 42 40 36 29 24 30 30 33 54 74 71 68 76 82 44 27 26 27 25 26 25 25 29 44 48 40 31 30 33 35 88 88 83 69 66 43 31 34 35 42 38

GFSSW_500_rhum_045.txt.gz
RH
37 24 19 17 13 12 11 13 19 27 26 37 39 40 30 16 34 86 72 55 48 45 41 92 96 79 62 45 39 32 28 22 20 19 23 26 25 22 17 15 12 11 10 9 9
24 20 15 11 9 10 14 18 16 15 19 28 49 52 40 19 18 64 79 80 66 47 52 67 97 95 78 54 43 36 25 22 23 22 30 28 24 23 18 15 13 10 8 6 6
19 14 8 8 10 13 32 54 55 41 20 19 40 60 52 27 17 21 90 94 90 52 50 56 75 94 97 76 47 35 26 24 25 29 31 26 23 22 18 16 13 10 7 6 7
7 8 12 22 21 42 67 74 64 77 70 40 26 33 61 34 20 19 70 100 98 65 48 68 52 92 89 64 59 41 32 30 33 34 30 26 24 22 19 18 14 11 7 6 7
12 18 32 28 59 97 98 97 96 95 92 70 55 36 52 44 24 20 30 91 97 94 49 70 52 80 93 52 45 52 42 40 47 39 33 27 21 21 20 18 15 12 8 8 8
41 47 40 71 87 60 61 79 78 80 83 86 72 54 32 52 42 35 36 25 94 100 63 52 62 54 82 91 50 31 35 39 42 39 32 27 23 18 18 20 16 12 8 8 9
54 68 68 85 53 80 75 91 89 96 100 99 100 47 34 50 52 86 100 58 92 100 91 50 51 43 53 86 79 50 28 24 24 23 21 19 17 16 20 17 16 13 10 10 10
79 75 88 74 60 99 100 94 83 95 97 100 100 58 30 50 39 43 49 30 73 100 97 84 56 54 43 72 60 38 33 26 21 18 15 13 11 11 14 16 16 13 12 11 11
61 99 100 92 75 78 100 100 98 98 100 100 100 46 36 49 36 47 100 56 50 98 98 95 81 68 44 53 57 43 23 24 22 22 18 13 13 13 13 14 15 15 14 14 14
13 86 100 100 92 61 86 93 88 93 91 100 96 37 38 46 58 100 100 91 46 99 98 100 99 65 47 46 45 48 44 31 22 24 22 16 10 14 15 14 16 16 17 16 14
77 44 85 100 99 62 92 100 88 100 85 97 60 46 53 46 52 95 98 90 96 100 96 94 80 62 43 38 52 38 39 53 21 18 19 18 11 13 15 17 17 16 15 15 15
61 46 52 95 99 74 70 83 87 96 80 82 53 60 54 41 68 94 91 99 99 99 99 98 76 65 48 38 34 33 28 29 26 19 16 16 15 17 18 16 15 14 13 14 14
60 73 13 54 76 53 67 70 72 57 80 48 63 56 44 47 73 69 96 96 99 95 100 95 83 69 49 42 38 30 26 25 25 23 18 15 14 16 16 16 15 13 13 13 12
86 72 13 19 30 42 43 35 33 52 60 62 63 50 37 91 100 83 100 97 99 100 100 100 99 99 90 62 46 38 31 28 26 22 20 17 15 17 14 13 12 12 11 11 10
67 58 11 47 38 17 19 27 44 65 100 76 68 45 45 76 85 46 65 99 100 99 100 100 100 100 98 100 69 48 40 35 28 23 20 18 17 18 15 14 12 10 10 10 8
43 50 13 47 24 19 24 50 94 100 100 72 44 70 47 68 80 45 31 91 100 98 100 98 99 96 97 98 90 79 53 39 33 30 25 23 20 21 16 13 12 11 13 14 14
36 45 17 23 29 30 35 39 61 56 69 45 52 37 85 95 58 27 44 97 98 99 99 99 93 94 100 100 100 98 73 50 38 28 25 31 27 28 25 22 21 20 19 18 17
32 36 44 25 35 45 42 49 35 40 42 60 97 84 97 56 91 65 94 100 100 100 100 100 88 59 65 96 97 99 100 92 66 61 62 50 34 28 25 21 19 18 16 16 15
34 32 34 36 27 34 34 44 44 66 76 34 38 43 39 43 36 59 92 99 98 100 98 97 84 57 45 46 57 77 96 92 82 64 42 31 27 24 23 20 17 15 14 12 12
26 36 33 28 31 49 53 34 36 56 47 75 92 87 71 73 46 37 98 100 100 99 99 99 90 94 77 64 62 63 70 51 38 32 28 32 27 23 20 17 15 15 13 12 11
30 35 30 24 30 45 36 45 52 41 49 50 64 66 52 64 47 46 74 95 100 91 73 84 94 96 94 51 45 44 42 40 42 35 38 31 24 20 17 16 16 14 13 12 11
27 33 43 27 32 32 34 31 37 55 56 47 48 50 40 34 38 44 54 86 94 93 87 81 85 91 78 70 62 52 47 46 51 45 30 24 25 21 18 18 16 14 13 15 23
23 32 42 39 42 43 30 28 38 48 45 24 26 23 22 30 29 37 51 58 88 86 57 56 60 50 50 49 51 49 49 42 39 29 28 26 23 22 20 18 15 20 24 31 30
23 26 38 43 61 59 51 44 50 44 30 27 32 38 37 33 33 36 48 58 86 70 69 52 39 39 46 44 38 34 30 27 27 34 34 32 24 20 24 42 49 50 44 36 30
17 25 28 37 49 54 59 62 55 50 50 50 46 38 42 38 38 48 49 71 54 42 36 33 40 38 40 34 30 28 27 29 38 38 34 26 25 37 66 55 51 54 46 41 34
15 20 24 30 40 43 41 45 50 55 60 68 67 59 61 51 47 56 68 90 52 34 32 31 34 32 31 30 28 28 32 41 41 36 28 27 45 85 78 78 67 53 44 37 37
23 15 18 25 38 36 36 30 34 38 37 48 72 72 64 58 61 69 72 61 34 30 27 28 29 29 28 27 31 39 42 43 34 28 29 42 83 90 79 69 45 29 31 28 27

GFSSW_500_rhum_048.txt.gz
RH
52 32 19 12 9 9 9 10 12 18 28 34 34 27 31 34 36 23 15 66 85 51 45 82 83 87 71 60 42 35 36 44 50 39 28 27 27 22 19 16 15 14 14 14 14
13 8 9 11 18 25 35 29 27 23 20 20 37 46 42 40 42 33 15 57 91 74 45 65 92 99 92 57 41 38 31 33 40 35 30 30 30 24 20 18 16 15 14 14 13
9 14 15 19 20 35 51 52 43 48 46 43 20 37 53 61 55 38 24 46 85 89 50 48 92 90 98 83 66 42 30 31 34 33 32 29 30 28 25 21 18 16 14 13 12
16 14 15 13 29 42 78 82 88 93 100 95 46 27 34 68 67 48 28 25 83 92 67 49 72 89 93 92 84 59 42 34 35 36 34 29 28 30 30 23 19 16 16 15 12
22 36 32 33 90 73 55 75 69 82 97 100 100 81 42 38 72 56 35 23 76 90 88 56 56 84 76 98 82 73 51 47 43 43 36 29 26 27 32 28 20 19 17 15 12
36 41 36 98 86 66 74 79 86 76 88 100 99 100 83 37 47 68 67 26 46 98 93 81 52 74 71 91 98 72 59 72 60 47 38 29 25 22 28 31 22 18 18 16 13
57 63 75 100 97 72 87 86 78 92 85 87 100 100 88 56 32 68 50 46 38 95 100 99 54 54 75 94 97 94 70 79 71 58 42 33 24 21 28 29 22 18 18 17 15
33 65 91 100 100 80 64 86 88 85 92 100 96 90 89 60 34 61 49 53 42 68 100 98 83 54 78 89 98 96 56 43 51 60 45 40 30 21 27 25 24 19 18 17 16
19 11 47 98 100 87 57 85 82 70 100 98 100 96 82 59 35 82 99 62 41 36 93 99 92 61 87 78 95 94 68 46 33 33 39 36 29 25 24 23 21 20 18 18 16
14 12 19 88 100 100 72 67 82 82 81 100 99 98 78 49 41 100 91 84 67 29 96 100 98 63 83 85 76 73 78 64 45 30 25 22 22 19 17 15 14 15 17 16 15
13 30 38 42 100 100 73 80 80 86 84 97 100 100 92 74 57 91 100 76 56 52 93 100 98 82 67 78 60 62 73 66 34 31 31 24 17 16 16 16 18 15 14 15 15
16 14 24 23 38 55 64 74 69 83 73 98 100 99 97 72 52 41 55 59 85 44 96 100 89 96 72 77 62 54 64 64 40 28 32 28 18 19 16 16 18 17 16 16 15
21 15 16 22 24 32 48 59 63 69 79 98 88 98 100 49 66 97 100 100 79 78 93 100 96 100 81 74 68 50 57 44 47 50 52 41 21 19 20 17 13 13 15 16 15
24 20 21 18 20 28 45 63 72 89 94 88 98 100 74 99 95 86 100 100 90 93 99 98 99 97 83 62 50 40 62 57 42 38 47 54 25 18 16 15 16 15 14 13 12
28 28 52 45 44 42 46 94 95 100 100 83 76 57 50 83 98 88 100 100 100 100 100 98 99 99 81 67 46 37 37 44 40 33 30 28 27 24 22 18 14 14 14 13 12
30 30 28 40 66 80 73 57 64 61 84 72 54 96 98 88 92 100 100 100 100 100 100 100 100 100 93 68 54 46 40 35 32 30 26 24 22 20 19 17 15 13 12 11 10
45 26 36 54 42 45 44 46 43 48 60 60 100 89 88 76 74 98 99 97 97 98 100 99 100 100 100 100 96 64 50 44 39 33 27 26 23 20 18 16 13 12 11 10 10
47 50 42 42 47 32 36 33 28 33 46 52 70 60 60 52 59 29 46 94 92 96 96 99 98 99 98 100 92 97 85 56 46 42 36 34 27 22 22 17 14 14 16 18 18
43 36 36 33 43 44 54 34 36 41 35 28 39 55 36 45 40 26 72 91 97 100 98 96 98 97 100 100 94 97 100 96 77 73 52 47 36 33 30 25 23 21 20 19 17
34 28 26 27 30 43 36 43 36 56 53 46 68 73 42 64 42 36 88 98 93 98 98 98 98 84 76 77 91 98 98 99 100 100 92 67 52 36 28 24 22 20 18 16 14
24 42 25 22 33 31 38 29 38 30 37 56 70 65 59 47 35 64 96 97 90 99 99 96 96 91 67 55 51 56 61 81 86 77 65 46 34 29 26 23 20 18 16 15 14
22 33 38 35 30 27 44 47 31 33 41 49 45 37 36 42 44 53 85 97 98 94 92 93 95 100 100 89 58 50 45 51 44 46 36 38 32 27 24 21 21 18 16 15 12
17 22 44 50 41 28 31 56 48 29 32 41 38 27 19 23 26 29 46 80 95 100 94 80 75 86 92 89 70 57 61 57 50 52 52 37 29 25 22 22 20 18 16 14 14
15 18 22 38 52 55 42 35 30 25 22 22 20 18 19 22 23 30 40 52 69 88 79 65 76 82 77 69 68 60 64 52 42 45 36 31 27 26 26 23 19 17 17 23 31
25 16 14 31 46 44 59 57 51 44 34 29 28 39 42 32 26 25 37 47 58 80 72 69 56 48 44 48 51 44 42 39 31 30 29 35 32 25 25 22 34 46 50 48 46
44 21 17 16 25 42 49 57 62 72 68 61 53 49 40 42 38 41 46 57 73 66 49 46 42 38 39 41 36 32 29 29 30 40 42 34 30 25 28 59 61 57 52 46 39
88 36 19 16 16 26 35 35 31 40 57 70 76 63 57 54 47 45 53 59 73 44 31 29 30 35 35 32 30 28 30 34 41 41 36 30 26 32 70 72 65 60 39 29 25

GFSSW_500_rhum_051.txt.gz
RH
51 26 11 9 11 11 12 13 13 13 16 18 26 32 30 35 26 31 24 19 21 75 70 45 78 85 76 36 33 49 62 26 40 61 48 53 39 31 26 25 24 21 20 18 15
14 10 18 25 26 38 33 30 28 25 26 31 24 18 35 38 34 31 25 28 20 42 79 58 48 92 95 56 60 48 55 39 51 66 51 51 39 34 28 24 22 21 18 15 12
14 27 32 13 19 46 44 69 62 62 66 72 52 28 18 43 37 29 44 35 30 19 72 75 54 69 97 96 69 85 60 44 54 50 76 52 41 36 31 25 23 19 17 15 12
29 28 10 10 38 78 86 68 49 47 83 78 67 44 30 23 43 58 60 44 32 31 37 87 69 50 90 93 80 71 88 73 50 39 57 76 44 37 34 30 22 19 16 14 15
32 12 11 31 100 99 81 55 58 81 83 80 99 97 64 25 34 41 71 56 41 41 28 80 87 52 53 93 100 91 69 64 46 41 49 88 52 42 33 26 25 21 18 17 16
19 11 16 39 100 100 74 54 74 78 94 67 98 100 100 62 33 42 62 74 62 36 37 62 92 62 52 76 96 97 77 60 50 49 50 79 69 40 37 28 25 23 20 19 17
14 11 13 31 92 100 80 51 76 76 77 86 94 99 100 99 49 35 65 72 53 64 49 75 100 71 54 53 95 98 92 80 75 63 60 60 72 46 40 38 30 24 21 18 18
15 13 12 25 99 100 94 58 54 91 98 95 88 98 98 99 60 72 68 83 63 54 67 91 100 78 58 57 78 97 99 96 96 84 62 65 57 52 40 36 33 30 26 20 19
17 22 12 20 86 99 100 69 66 68 70 79 91 98 100 97 65 56 74 100 74 62 66 96 91 95 64 56 74 94 95 95 96 92 78 59 55 48 43 34 33 33 28 23 21
24 30 24 15 38 99 100 76 76 69 64 87 100 100 99 79 55 53 66 94 92 69 53 72 100 100 88 58 65 72 87 94 97 80 72 58 52 45 39 39 38 35 30 24 19
28 30 46 16 24 59 89 73 73 87 89 87 86 100 87 82 52 42 57 86 65 61 39 65 100 92 74 55 57 67 89 98 99 81 51 53 51 44 41 38 35 31 27 23 20
33 38 50 23 20 38 51 66 69 66 68 82 88 86 89 96 88 100 73 76 48 34 44 85 92 100 100 71 61 70 80 91 96 82 57 36 35 37 32 29 25 21 18 17 15
41 48 53 36 65 61 47 54 56 61 73 92 79 71 100 100 98 88 93 63 48 46 29 89 99 99 100 69 64 77 77 98 98 92 72 42 30 27 22 19 18 17 16 15 13
32 51 53 49 44 100 100 73 61 89 100 100 100 80 100 100 97 96 88 69 51 63 78 98 100 100 98 78 62 83 71 88 95 98 75 62 41 41 30 22 18 16 14 13 14
37 46 49 40 37 50 92 63 85 99 100 100 99 98 100 80 69 70 96 68 77 60 72 98 99 98 99 99 67 78 59 71 97 87 87 50 41 48 40 30 20 19 17 16 14
27 47 39 34 39 37 51 41 67 99 100 100 100 100 100 98 100 100 100 100 87 87 100 100 100 100 98 94 78 70 61 46 71 97 62 52 49 50 51 47 35 20 17 16 14
23 36 48 27 30 37 40 46 58 66 82 90 100 100 99 100 100 100 100 98 97 100 99 100 100 100 100 98 78 65 69 49 43 80 92 72 55 55 56 50 41 32 26 23 17
20 26 38 46 47 33 34 34 38 43 61 89 96 99 98 98 100 97 99 100 100 100 100 100 100 99 89 93 81 65 50 47 39 40 63 67 40 32 31 26 21 17 15 14 13
21 18 32 31 41 44 32 36 38 46 47 46 38 61 69 66 64 56 94 100 100 99 100 100 100 100 100 100 98 77 61 50 45 41 40 42 39 31 27 24 20 18 17 14 13
14 18 19 32 32 36 41 24 32 52 34 31 46 45 40 49 45 34 96 97 99 95 99 100 100 100 99 100 100 97 99 93 72 60 50 45 42 35 31 29 28 24 20 18 18
15 22 22 28 30 26 31 38 29 46 48 45 36 35 49 53 43 43 94 96 92 98 100 99 98 100 98 95 94 97 96 99 99 89 81 76 55 47 45 36 29 28 26 23 21
15 18 25 28 30 41 37 35 28 32 36 43 47 34 29 30 40 50 88 94 91 100 95 96 97 95 95 90 78 69 86 91 93 94 98 94 79 64 48 39 29 24 22 20 18
18 15 28 31 36 26 44 35 40 32 33 46 37 33 31 33 30 43 68 79 88 89 93 93 87 85 82 81 84 65 62 60 56 76 72 60 49 46 36 30 28 24 21 19 17
45 16 17 33 44 38 36 52 35 32 36 40 36 27 18 21 23 26 35 59 73 83 83 79 74 74 84 84 86 70 53 53 51 47 50 52 39 35 32 28 25 22 21 18 17
83 35 16 17 33 37 48 42 41 33 24 24 22 21 21 20 22 20 26 35 51 68 82 80 73 71 72 78 79 76 78 66 66 65 58 57 49 36 29 30 26 25 22 20 23
100 94 29 16 24 30 36 49 50 50 42 28 25 26 30 34 30 25 21 30 42 53 80 75 61 68 80 68 55 57 52 46 53 59 52 45 36 30 31 31 27 26 41 56 56
76 100 91 22 16 21 32 38 38 42 56 62 63 54 46 36 42 40 34 41 54 69 72 63 72 75 50 42 42 49 40 33 32 31 32 32 39 31 29 27 47 77 70 59 44

GFSSW_500_rhum_054.txt.gz
RH
23 14 14 16 12 8 7 7 9 25 21 12 12 17 34 60 64 47 30 25 26 18 24 60 46 89 97 96 94 98 97 97 90 87 96 98 87 68 51 33 33 40 41 36 36
17 18 14 10 7 6 9 13 24 37 54 61 42 22 18 28 47 53 37 35 33 26 17 45 58 64 94 98 96 89 90 96 97 77 55 96 93 71 58 36 28 31 32 30 28
22 16 13 14 9 16 30 86 94 64 54 56 38 40 33 24 25 41 41 44 40 38 25 24 82 64 95 98 97 90 82 74 52 98 65 82 93 76 60 42 29 27 29 26 24
25 16 13 21 12 66 100 100 94 55 34 40 44 66 58 43 32 28 47 72 55 51 41 20 76 79 74 88 89 93 63 51 48 85 82 49 93 77 63 43 33 25 24 24 21
22 15 19 29 14 59 100 100 80 44 62 78 81 73 94 85 27 30 37 68 80 60 48 32 26 93 74 73 88 98 67 52 63 73 81 50 92 90 68 43 37 30 23 24 21
19 17 25 30 14 94 100 100 66 51 70 91 87 92 99 98 73 31 30 71 59 59 56 40 28 83 93 69 74 97 100 70 66 74 71 60 88 92 68 49 43 33 28 23 21
19 21 27 26 16 100 100 100 77 53 72 64 68 94 97 100 90 39 25 63 74 62 67 50 41 58 99 82 60 78 98 93 66 67 92 96 73 67 84 57 42 35 30 26 21
27 28 31 27 20 90 100 100 91 55 80 94 75 88 100 100 100 63 33 61 86 75 66 63 52 52 94 96 61 60 94 100 77 72 94 95 77 67 91 71 47 38 30 26 23
36 36 36 30 30 88 100 96 60 72 64 84 83 99 98 100 98 70 100 59 84 100 90 61 45 45 73 100 78 58 65 95 100 96 96 90 75 67 67 89 57 43 38 30 24
41 40 39 38 61 36 58 65 69 87 66 71 100 96 88 91 86 54 100 88 70 100 100 67 55 50 75 98 91 52 47 74 99 98 95 89 73 67 63 74 81 48 40 36 32
46 39 36 47 60 34 58 75 89 89 84 89 80 77 73 68 70 78 79 99 85 80 79 72 62 40 55 77 90 74 58 60 94 96 96 91 86 60 57 62 66 57 43 38 34
47 41 41 36 33 28 48 51 54 76 67 61 79 81 76 98 100 100 100 87 90 68 75 68 45 66 99 100 96 69 59 69 75 84 94 98 91 66 49 54 70 67 54 40 33
33 39 41 29 47 50 48 67 96 70 68 75 90 90 72 60 65 92 100 99 70 98 70 52 48 75 95 97 100 69 57 65 59 71 91 97 89 70 59 53 57 70 56 47 37
30 26 31 28 46 65 79 85 82 72 83 94 100 100 100 97 54 47 79 100 88 71 53 40 53 70 94 97 100 76 57 61 59 74 100 95 80 69 52 48 47 52 40 33 28
31 24 30 27 41 36 61 93 100 94 95 99 100 99 100 100 96 70 41 42 48 40 27 27 59 97 96 100 100 85 62 58 61 84 91 92 77 70 61 36 28 26 33 21 17
28 23 30 34 30 40 56 78 82 68 96 100 100 100 100 100 100 98 59 46 38 35 37 47 84 96 100 100 95 94 67 64 75 90 94 96 95 69 51 38 33 29 22 20 18
17 30 23 31 36 48 41 54 73 94 100 100 97 100 97 94 87 82 85 64 54 59 74 99 98 98 100 100 91 97 75 72 82 80 75 96 89 73 61 52 47 44 34 30 19
14 21 32 23 30 38 43 52 65 84 97 100 81 95 100 100 100 100 99 96 93 89 84 98 100 100 96 98 100 99 98 71 77 65 61 82 81 72 58 55 50 50 48 47 42
14 13 23 29 20 31 38 50 30 43 60 68 85 96 100 99 85 100 100 100 98 97 100 90 89 100 100 100 99 96 95 79 84 70 54 52 61 73 64 61 57 51 43 40 35
15 14 13 24 23 25 41 63 34 31 37 42 42 48 51 49 34 85 95 100 98 98 99 97 90 94 100 100 100 100 100 90 82 76 68 55 50 50 58 60 39 29 27 23 18
25 17 15 19 26 25 22 32 52 32 32 40 40 35 34 37 36 60 81 87 91 96 100 100 100 96 100 96 96 100 96 88 80 68 61 55 46 44 44 44 42 36 30 24 21
84 18 18 24 19 30 30 19 23 36 51 40 35 36 32 39 35 59 75 78 82 95 92 94 99 100 100 100 100 99 98 100 100 98 91 78 64 53 48 44 42 36 31 28 24
60 53 18 20 34 20 36 34 31 42 34 37 45 41 32 33 40 49 73 84 89 96 100 100 97 98 95 95 98 98 98 99 97 100 99 100 93 87 85 78 59 50 42 32 28
12 98 33 17 33 36 25 35 36 31 30 34 47 34 27 25 29 33 36 49 73 82 92 95 96 97 93 97 94 92 87 65 64 79 68 81 77 72 57 60 55 39 34 28 24
6 52 95 19 22 38 39 34 43 38 40 38 40 35 27 18 17 19 23 25 48 67 76 84 84 78 76 80 88 85 83 60 49 49 50 52 46 48 45 38 37 31 28 24 21
7 9 97 86 19 22 36 46 37 38 36 32 27 28 25 25 24 25 20 22 29 39 51 80 82 77 72 68 77 82 79 77 76 67 62 64 58 49 51 41 33 30 26 24 22
6 8 25 100 79 16 23 36 50 52 53 50 38 36 33 38 31 34 32 25 26 40 48 65 82 68 64 70 75 76 72 64 57 52 64 76 60 60 48 34 36 32 29 26 42

GFSSW_500_rhum_057.txt.gz
RH
39 32 19 18 14 15 13 10 9 8 9 8 8 12 16 20 41 92 97 76 39 19 18 39 46 58 87 90 93 98 94 92 96 95 97 98 89 64 62 58 54 53 50 51 55
41 30 17 14 17 17 14 15 49 71 72 58 25 14 15 28 20 41 92 99 74 28 19 19 32 56 90 88 96 95 92 92 98 98 97 96 96 77 74 67 53 46 48 51 50
41 24 17 18 18 18 23 100 100 100 100 95 64 54 41 39 30 18 42 98 92 57 33 19 21 50 82 90 93 93 84 100 97 98 97 96 96 96 66 75 61 45 37 39 43
40 23 23 22 22 21 52 100 100 97 98 79 46 29 45 73 37 34 25 95 87 89 64 32 19 25 78 88 92 93 91 97 98 97 98 95 97 97 83 77 67 55 36 35 34
29 26 28 25 20 25 97 100 100 100 71 52 75 73 86 65 36 42 25 60 95 88 70 58 28 19 64 80 86 91 100 97 99 96 97 97 91 90 100 94 74 60 45 31 28
23 27 25 28 23 27 98 99 100 94 61 58 78 83 97 79 100 56 31 33 97 78 79 64 44 23 50 95 80 71 99 96 96 90 91 99 96 85 95 90 81 66 52 33 28
23 27 31 23 20 21 92 91 100 98 76 68 61 65 100 100 100 84 45 31 95 97 91 75 62 33 37 99 90 72 97 95 96 84 69 82 88 86 93 77 79 69 54 39 30
24 28 27 37 20 22 84 96 61 65 59 89 72 89 100 97 100 100 60 34 63 95 98 100 79 47 41 81 100 78 86 90 96 89 64 66 80 95 90 83 81 74 60 42 34
25 25 27 29 42 30 45 53 86 73 72 80 83 100 98 98 100 100 76 37 34 76 99 100 88 46 38 55 96 99 78 80 95 90 76 65 76 97 89 70 78 76 63 46 38
24 25 38 30 60 36 42 69 89 70 63 90 99 100 98 96 94 99 90 61 45 79 99 92 98 60 44 48 52 62 70 70 83 91 99 90 84 96 97 81 64 76 77 55 41
23 27 28 30 48 49 35 53 70 77 76 93 91 87 99 84 80 69 100 100 61 99 96 96 82 53 42 33 48 100 100 79 64 91 94 84 84 94 89 86 72 64 82 67 49
23 26 25 29 40 56 46 50 54 64 71 80 75 88 89 100 100 65 99 98 100 91 100 89 68 48 49 43 44 66 84 78 60 85 84 100 85 96 82 73 72 66 61 77 61
23 23 30 36 31 52 53 60 69 63 56 58 64 68 77 93 100 100 96 90 70 100 97 88 72 60 51 43 42 52 70 84 69 54 70 86 98 85 78 77 67 66 63 63 72
23 25 34 33 30 47 60 66 86 99 92 64 79 100 95 100 100 99 99 62 92 98 93 77 70 58 47 61 73 58 64 94 72 52 52 82 80 96 97 79 72 55 62 69 64
22 22 33 26 27 39 86 90 92 99 99 100 100 87 82 89 71 56 100 88 93 86 76 56 50 48 53 82 94 89 91 89 71 58 46 59 72 74 83 78 78 63 50 56 62
16 22 26 31 31 67 81 89 99 72 100 100 100 71 53 99 100 100 99 100 100 77 62 54 42 36 43 66 78 86 93 88 80 62 58 55 67 64 74 84 83 65 52 52 53
25 17 20 26 42 55 52 65 58 60 94 100 99 82 100 93 85 80 70 66 47 44 46 42 32 68 88 82 71 89 97 99 93 68 51 55 63 54 72 77 70 50 34 32 30
45 12 18 22 32 32 37 46 47 66 70 92 100 100 100 69 59 75 55 57 44 44 42 31 36 56 78 96 75 89 99 93 85 63 55 62 66 55 72 76 72 50 35 30 26
20 31 14 18 23 23 25 39 41 45 60 81 99 67 62 92 80 74 69 58 51 44 44 84 100 88 100 94 100 93 92 99 96 86 68 73 69 71 80 78 71 52 45 43 43
7 49 16 16 15 27 25 27 30 42 47 45 39 41 40 52 85 92 82 67 69 85 74 90 91 100 89 100 97 100 100 100 96 92 70 69 70 69 70 79 78 71 61 53 52
6 32 36 14 18 18 26 26 26 29 45 45 36 35 36 37 42 79 78 68 82 76 74 81 76 96 95 74 98 100 98 96 93 88 82 74 71 65 71 66 59 72 69 56 49
4 12 46 22 20 19 20 17 19 23 42 44 49 38 38 49 35 47 65 76 72 69 75 82 81 94 92 95 98 88 99 95 96 93 92 73 65 63 57 52 47 44 48 46 38
3 6 43 45 22 26 19 23 19 21 39 38 44 45 34 35 46 52 64 63 78 87 96 92 88 81 89 92 84 78 99 90 95 97 93 97 81 92 81 69 57 54 46 43 41
2 7 6 75 24 27 32 20 27 23 33 36 32 48 39 27 32 40 49 60 66 80 96 100 98 100 100 100 99 100 99 95 100 100 100 95 89 85 94 97 94 92 76 57 48
3 5 6 16 79 21 34 37 23 29 30 26 27 34 41 28 20 23 25 29 36 62 74 89 91 94 97 98 95 90 84 84 90 96 78 81 72 63 69 75 71 59 64 51 41
3 4 6 7 48 49 25 41 40 28 31 33 35 32 32 26 28 25 24 23 23 33 57 67 82 87 84 82 84 87 89 80 74 64 51 48 50 50 49 49 53 51 42 37 32
2 4 10 7 10 79 54 23 42 48 38 34 30 28 23 27 23 25 27 27 26 21 34 42 53 77 80 79 74 71 84 92 87 78 70 54 61 59 56 58 56 45 36 32 30

GFSSW_500_rhum_060.txt.gz
RH
11 42 37 20 18 19 18 14 18 17 21 28 13 9 9 10 15 45 86 100 89 36 17 32 44 48 80 92 94 98 96 93 93 97 94 62 42 37 34 34 32 26 27 28 32
34 39 23 18 19 20 16 15 80 100 100 100 99 66 21 11 14 15 43 98 100 71 22 20 47 50 52 84 90 97 92 83 94 98 90 74 62 58 43 36 43 35 35 36 34
36 25 20 20 20 25 20 18 93 100 100 94 100 100 75 40 12 12 22 64 100 100 44 20 27 60 64 60 86 97 73 77 98 98 96 90 75 73 62 38 50 52 48 50 52
26 18 22 20 29 26 22 71 100 100 100 100 100 97 79 61 29 20 29 28 94 100 65 28 19 42 62 60 73 89 88 97 98 97 97 96 93 79 79 56 49 57 52 51 52
24 24 21 27 28 21 23 87 96 97 98 96 67 56 61 55 56 54 19 26 47 100 90 54 20 23 40 57 64 94 90 97 98 95 97 98 98 97 87 87 69 64 58 52 49
19 21 24 24 26 14 42 96 87 96 100 86 64 59 78 69 68 79 39 28 27 98 100 80 30 18 21 29 61 76 98 98 94 96 96 96 97 97 95 83 82 73 72 62 51
20 21 22 28 38 30 39 50 72 80 89 84 64 61 60 90 78 100 65 30 26 86 99 98 68 27 19 22 62 71 98 94 93 97 96 97 97 93 97 100 94 94 79 71 59
20 21 23 37 44 60 43 70 69 57 68 80 77 68 73 87 99 100 81 35 30 75 100 100 94 67 26 23 66 84 91 92 99 97 96 95 97 100 96 99 100 94 88 76 54
20 22 25 39 51 56 85 54 59 68 90 96 98 95 92 93 100 98 78 38 28 73 100 100 96 76 48 26 52 95 87 77 96 94 97 94 98 96 96 89 88 96 89 80 59
20 23 25 45 56 33 43 67 46 67 90 100 90 94 86 98 100 100 58 31 29 93 100 100 99 74 63 36 20 28 72 62 74 93 93 94 93 98 88 75 64 77 81 80 74
21 24 29 53 56 71 42 48 56 57 70 82 98 80 100 100 95 100 42 34 100 100 100 99 90 54 49 42 26 49 91 86 63 85 94 97 99 88 92 87 69 68 75 84 76
21 23 36 63 89 88 89 68 73 52 56 79 100 100 98 86 100 92 76 100 100 100 100 98 80 72 58 44 41 66 75 82 94 85 96 99 95 96 84 73 78 82 74 74 81
17 21 31 53 70 76 84 100 98 52 53 58 76 96 100 100 99 74 53 41 51 95 95 92 88 84 68 45 42 36 38 60 78 79 64 90 87 86 65 68 78 79 84 74 63
14 22 25 43 43 63 63 78 100 98 64 92 90 50 96 100 100 100 100 73 41 86 100 93 100 93 70 54 44 36 32 41 67 81 68 78 78 81 77 59 67 84 83 71 63
23 23 23 37 40 57 67 63 87 98 67 59 83 83 92 100 100 100 100 99 68 94 89 87 86 76 56 50 45 39 42 44 56 78 78 64 81 67 78 54 52 71 82 76 68
24 20 22 29 30 42 63 72 69 68 70 73 77 77 56 99 71 96 100 100 100 100 99 78 74 64 59 52 50 56 49 54 58 59 59 58 60 54 71 66 80 73 74 80 68
7 17 20 25 26 26 38 62 67 60 73 82 90 95 84 48 86 94 52 91 91 93 88 70 57 56 50 46 57 65 62 62 75 60 39 65 63 45 55 72 77 87 89 92 79
3 26 14 17 23 22 33 39 60 89 93 82 92 100 64 65 62 92 70 84 86 80 86 56 44 40 34 34 53 54 63 72 75 57 57 72 51 40 49 57 65 70 95 96 89
2 4 18 16 20 19 26 32 42 59 79 74 52 92 77 50 52 54 62 59 62 56 57 52 44 37 47 45 53 67 62 79 80 84 84 72 54 46 48 58 72 84 98 79 52
2 3 14 16 15 15 22 32 27 46 41 41 38 42 76 58 44 36 40 46 40 35 34 30 36 45 42 64 90 82 98 87 80 78 66 63 57 50 54 71 89 94 99 82 42
2 3 7 25 12 13 15 21 26 23 29 32 30 30 38 66 84 81 52 40 31 33 36 67 91 98 90 69 77 86 78 67 93 79 69 69 55 56 62 86 98 99 97 92 56
3 2 5 4 39 13 16 21 18 20 22 30 30 29 37 34 44 76 77 57 57 63 66 70 77 62 67 72 75 63 66 79 99 89 81 74 65 62 67 96 98 97 100 99 84
3 3 4 3 15 37 16 17 23 24 20 30 35 34 30 35 34 52 62 72 69 70 62 63 69 82 83 74 72 70 86 89 88 92 79 86 71 73 69 83 98 97 97 87 94
3 3 2 4 4 41 38 18 20 22 29 28 36 33 36 27 32 47 62 67 78 77 74 79 83 88 84 93 86 85 93 86 80 73 87 78 99 100 100 99 99 95 88 93 86
4 3 3 5 4 7 71 27 30 27 28 33 34 32 25 35 25 22 29 34 49 62 75 87 95 95 90 89 82 89 92 83 76 92 80 91 87 98 100 99 99 98 98 97 95
4 3 4 8 8 5 26 63 23 44 38 39 40 40 34 35 30 23 18 18 22 30 56 63 76 90 96 92 88 89 92 94 93 89 77 67 74 69 76 70 78 97 91 72 92
4 3 4 15 18 8 13 79 48 32 42 40 39 41 38 33 28 25 23 25 23 21 26 38 45 54 62 77 79 73 78 70 72 80 76 63 63 52 54 53 53 57 61 52 43

GFSSW_500_rhum_063.txt.gz
RH
8 20 18 19 19 19 22 16 24 27 33 36 28 34 14 16 15 12 46 96 100 96 39 17 39 42 44 72 66 100 95 80 93 96 69 52 44 33 25 20 16 16 15 16 16
11 20 19 18 28 33 21 12 13 66 99 100 100 100 100 39 14 13 14 44 100 100 91 20 29 45 45 59 70 97 92 79 85 99 97 72 61 40 29 23 21 18 18 18 20
15 20 19 28 41 26 21 17 28 100 100 100 100 100 92 97 47 14 13 20 93 100 91 34 19 48 47 52 71 86 70 77 98 97 96 93 100 57 41 29 27 36 22 24 23
17 18 19 40 19 18 18 27 44 100 99 100 100 99 100 85 61 30 16 18 40 100 99 61 18 29 43 47 86 97 82 91 98 94 96 90 89 95 59 44 34 27 34 33 30
17 18 21 32 28 31 29 35 49 67 80 89 94 89 100 100 76 84 22 18 44 96 99 91 19 20 39 42 50 74 100 100 95 98 98 98 87 95 89 66 49 44 47 44 43
17 19 33 40 52 45 42 39 49 42 83 99 100 95 71 64 72 76 52 24 28 63 100 99 29 18 34 51 50 78 80 93 96 98 94 97 99 85 87 72 61 48 54 43 37
17 20 29 40 64 72 59 64 51 61 66 54 91 80 69 51 49 54 98 26 27 32 100 100 52 20 24 42 60 58 68 98 96 98 89 97 97 87 93 77 65 62 67 59 46
15 23 36 37 69 83 86 66 51 69 75 81 59 53 55 57 63 51 100 28 29 26 98 100 94 29 20 33 51 60 62 92 96 96 99 96 96 99 96 78 82 78 78 74 66
14 26 32 32 51 70 97 43 43 55 75 85 92 89 71 72 66 100 97 37 35 28 100 100 99 49 20 24 32 57 66 70 90 93 98 91 97 97 97 97 97 93 96 89 81
13 19 32 26 48 62 90 82 50 56 69 92 99 89 91 98 98 100 100 54 36 47 100 100 99 67 25 20 23 22 42 59 78 84 91 94 98 97 95 98 98 99 100 100 96
14 17 34 32 52 60 97 100 66 87 86 100 89 87 92 100 100 100 94 62 33 62 100 100 88 66 34 20 20 22 26 35 43 80 95 95 98 96 98 97 97 94 98 97 92
15 16 26 33 53 69 84 61 93 99 100 72 94 90 85 98 95 98 74 46 31 34 100 100 85 86 62 54 28 22 28 75 89 78 93 98 97 96 94 95 94 84 89 89 91
10 16 16 33 53 61 70 41 52 94 100 75 70 71 99 100 100 89 63 47 38 80 99 82 85 84 75 66 48 30 41 81 79 72 88 90 96 96 88 79 66 60 58 58 68
5 15 14 26 40 60 56 41 38 74 74 93 90 64 94 86 82 96 91 90 100 98 100 100 99 93 75 60 50 34 36 67 86 79 67 74 68 92 97 82 75 56 54 63 66
3 13 13 24 30 50 45 32 41 51 63 65 90 98 69 61 68 100 100 100 100 100 98 90 97 94 75 58 45 38 44 34 50 60 68 70 66 62 96 79 60 60 60 63 62
3 8 13 16 23 39 71 58 64 69 83 63 62 92 96 100 87 98 100 100 100 98 99 99 94 87 71 59 48 45 40 34 31 34 31 39 44 37 66 71 60 64 65 67 69
5 3 13 13 21 26 44 54 52 56 82 94 52 72 84 72 97 90 72 78 69 88 99 98 94 79 73 58 49 44 39 35 36 31 18 34 36 20 52 74 69 68 61 64 75
7 2 5 13 18 21 24 28 32 45 40 80 57 53 48 78 92 97 51 53 78 100 95 78 72 72 58 52 46 42 48 48 43 26 33 42 21 18 49 64 68 67 70 68 72
8 4 3 12 13 15 20 24 28 38 40 26 60 42 55 45 49 56 98 100 100 95 95 63 57 47 46 48 50 42 44 56 60 48 47 33 22 26 44 55 58 58 70 79 79
8 7 3 3 19 14 16 18 25 30 38 28 19 59 36 38 29 39 37 63 61 74 77 66 53 41 37 35 32 35 60 58 58 54 52 47 48 41 52 57 53 58 65 74 78
8 8 4 3 6 21 13 16 17 24 29 24 18 19 43 52 34 33 44 57 58 49 46 48 52 52 43 36 56 56 52 71 69 59 43 40 49 64 57 59 54 62 77 73 84
8 8 5 4 3 14 23 14 17 18 20 23 24 22 22 44 86 74 34 28 28 31 30 35 38 47 67 53 45 60 80 72 63 46 52 50 41 70 76 69 64 67 85 86 91
8 8 6 6 4 3 28 25 18 21 25 23 30 24 22 28 28 71 78 55 44 36 33 36 50 83 83 78 67 64 59 54 56 66 52 65 51 95 83 86 91 97 92 97 97
9 8 8 6 6 4 6 46 24 24 23 31 38 34 29 27 35 42 57 79 80 72 75 78 75 82 76 80 73 70 67 66 75 64 72 67 98 100 98 100 98 95 97 92 96
11 9 8 7 6 7 4 27 52 28 34 32 37 40 32 32 25 35 55 64 74 84 89 89 88 80 83 86 77 78 76 70 64 79 70 86 81 100 96 93 99 96 96 98 93
15 12 10 10 6 10 7 7 65 40 40 39 42 42 39 32 34 25 22 31 39 47 58 66 81 85 85 86 90 80 76 84 84 75 67 92 95 96 98 97 100 100 97 98 100
20 18 13 11 6 8 16 13 14 69 40 57 50 52 51 43 35 33 26 22 20 21 24 40 56 61 63 70 71 70 88 82 84 90 88 69 98 75 75 74 80 89 80 82 89

GFSSW_500_rhum_066.txt.gz
RH
4 10 14 14 23 20 32 33 16 9 31 48 76 94 41 29 28 25 17 38 100 100 96 91 22 32 24 24 25 51 98 78 77 96 95 64 48 40 33 27 21 17 14 13 11
5 10 14 22 24 32 43 30 16 16 94 100 100 100 100 92 34 21 22 18 51 100 94 93 44 27 30 25 40 64 94 88 81 98 97 92 54 44 37 33 26 19 16 16 12
5 10 14 24 23 42 41 28 19 17 79 96 95 97 97 100 96 45 20 17 23 90 100 97 85 25 31 28 42 53 80 93 100 97 97 97 74 49 42 34 29 24 23 31 16
5 10 18 25 37 59 60 62 33 23 37 96 100 100 100 100 91 73 29 22 20 30 100 100 95 32 26 26 30 52 76 100 99 95 90 94 89 55 48 42 30 26 24 32 48
4 11 20 26 39 52 85 66 45 41 28 63 92 99 100 92 94 72 67 26 23 82 78 100 99 45 21 23 24 24 48 86 93 98 97 96 94 71 54 46 37 29 28 32 65
4 11 20 22 34 66 70 82 71 60 44 49 46 72 79 83 74 71 82 37 27 34 54 100 98 61 21 30 33 21 34 86 98 98 97 98 95 85 69 53 48 39 36 33 56
5 12 20 25 33 52 61 74 90 90 48 65 58 62 99 82 72 75 88 69 31 26 29 100 96 96 30 27 42 36 42 81 99 95 97 95 97 80 96 71 56 52 47 47 44
5 10 22 29 31 47 56 58 90 95 86 77 78 58 70 76 67 55 69 94 29 47 26 100 100 98 39 22 49 42 50 89 96 98 97 97 88 93 100 88 74 56 59 61 58
5 12 21 31 39 51 40 45 94 91 96 90 91 79 69 54 61 46 58 82 31 67 27 100 100 99 58 20 44 39 40 78 91 95 99 96 88 100 96 91 86 74 61 62 61
5 10 20 33 46 38 30 61 77 86 75 100 69 85 91 77 60 60 95 95 61 68 29 100 100 99 82 27 21 21 28 28 52 74 94 97 99 97 98 97 94 86 74 64 66
7 8 14 34 48 27 37 64 56 93 63 88 80 88 97 93 82 88 100 97 88 50 62 100 96 72 77 45 18 27 38 46 44 49 94 98 99 95 98 98 94 84 78 84 85
10 4 12 32 51 32 35 64 46 80 88 60 87 74 99 100 100 97 100 92 100 33 89 100 89 96 80 30 19 23 29 42 47 64 73 96 98 93 94 96 98 92 92 96 96
12 4 12 28 48 44 53 69 77 54 96 74 52 69 62 90 78 97 87 89 37 78 100 97 92 100 85 37 20 18 28 32 39 43 54 80 95 81 82 98 96 97 97 94 93
13 6 7 18 38 53 52 58 63 57 74 100 100 99 62 71 80 89 74 47 73 100 100 100 99 100 82 38 22 22 23 27 30 41 46 62 62 79 93 97 93 96 96 100 100
13 10 3 14 26 42 51 47 46 64 58 90 49 62 63 70 70 71 59 42 89 100 100 100 99 93 64 48 48 34 25 25 27 28 43 49 38 37 65 94 84 94 97 96 86
13 10 4 7 17 25 27 30 39 49 60 64 85 50 77 85 100 84 37 29 60 99 100 100 98 97 92 83 66 48 35 31 45 46 40 58 49 28 42 50 72 97 96 96 95
11 10 6 2 10 18 19 22 30 37 55 32 49 63 98 98 84 100 85 90 90 100 100 99 100 92 92 75 60 49 38 38 39 30 20 28 27 18 34 40 45 54 93 94 87
11 11 8 4 4 14 18 18 24 34 34 53 39 40 69 52 55 96 100 100 95 98 89 87 91 86 79 68 56 48 38 38 33 27 24 26 18 14 27 45 59 64 87 85 67
13 12 11 8 4 9 16 20 20 26 34 22 35 38 38 51 47 52 53 98 100 97 100 95 93 82 78 67 56 48 42 39 34 31 27 20 16 22 32 38 48 61 77 88 69
15 14 14 12 6 3 15 18 15 20 25 26 20 32 30 28 45 50 42 60 78 88 76 80 76 78 69 66 55 48 43 40 38 33 23 18 29 40 44 34 35 50 63 82 80
18 17 15 17 11 6 4 22 17 14 17 24 21 17 40 27 30 36 55 74 82 83 71 59 52 47 50 43 43 41 39 41 55 44 34 37 42 46 50 52 37 44 57 60 66
20 20 16 19 16 8 3 10 25 17 17 17 22 21 18 52 40 45 42 44 46 53 62 65 56 46 42 42 41 39 41 40 44 50 55 44 35 46 66 76 67 56 62 59 62
21 24 19 18 19 12 5 4 29 29 21 19 21 25 21 21 51 60 48 38 41 48 53 50 47 54 55 52 48 43 40 42 60 61 48 53 35 99 75 73 78 71 63 65 67
24 25 18 18 17 13 6 4 12 38 32 27 28 33 28 32 31 52 75 50 40 35 35 35 35 34 43 61 73 66 65 79 90 70 68 47 79 100 100 91 84 81 75 70 63
25 22 15 16 14 12 7 6 8 48 42 35 32 34 39 31 34 43 54 66 70 69 61 52 49 58 59 62 77 80 76 69 58 67 59 77 74 100 94 81 83 84 91 90 88
26 20 14 13 15 14 8 6 16 22 70 45 42 40 43 38 38 29 41 58 67 83 86 88 92 83 81 84 90 78 81 88 85 78 56 79 77 88 92 90 94 91 92 86 93
24 19 14 13 14 14 10 8 12 37 37 64 55 43 44 43 36 38 31 28 41 50 55 61 65 68 64 63 63 64 98 92 92 90 87 65 99 94 100 98 98 92 97 100 94

GFSSW_500_rhum_069.txt.gz
RH
12 9 7 10 13 22 29 31 31 32 46 25 87 92 93 98 46 30 26 27 62 100 96 100 99 70 27 22 51 82 76 96 84 80 96 95 85 44 36 32 23 21 23 32 34
11 9 7 11 17 26 29 22 26 40 44 26 60 100 96 100 98 40 38 28 29 62 100 99 100 55 22 21 22 47 71 87 100 98 97 96 93 71 44 37 29 22 20 16 20
11 9 7 12 16 29 27 22 29 41 44 27 76 99 100 100 100 84 39 37 31 29 92 100 100 41 40 23 35 35 36 74 100 100 96 96 93 91 58 42 36 28 21 21 17
14 9 7 11 20 29 21 31 46 43 47 32 88 100 100 100 99 96 76 40 38 31 36 100 100 63 71 25 30 30 48 58 97 97 97 98 91 95 69 50 40 31 25 26 20
15 10 7 12 25 20 30 45 44 57 48 52 47 100 100 100 100 87 86 52 33 35 32 100 100 77 76 28 20 29 65 65 94 92 99 98 96 94 86 57 47 37 29 28 27
14 10 7 14 22 24 41 48 46 66 54 68 62 79 95 97 100 90 63 66 33 31 31 100 97 99 98 51 23 24 45 73 75 98 99 97 98 99 89 65 50 43 34 31 30
13 12 7 16 22 23 44 65 54 64 56 89 81 66 50 74 93 86 62 46 50 37 42 51 100 98 98 55 30 26 41 68 100 97 99 98 96 79 93 75 59 48 39 34 32
15 13 6 18 25 49 64 70 63 63 62 87 72 70 60 88 93 83 58 72 58 99 64 59 100 100 99 80 37 67 49 67 84 94 96 98 82 100 92 86 73 56 46 39 35
14 11 6 16 32 37 64 66 66 68 56 69 86 85 61 57 92 71 59 83 92 96 68 51 98 100 100 88 37 66 48 31 62 83 90 96 90 100 99 97 84 74 58 46 40
14 10 5 15 35 35 52 65 62 78 60 44 70 81 83 55 56 68 59 95 100 66 71 65 100 96 97 91 54 50 36 33 34 63 82 98 100 98 95 95 96 81 85 64 51
16 11 6 11 32 28 39 58 61 86 56 57 75 82 100 92 53 42 52 94 100 100 80 44 94 76 83 83 56 39 38 23 31 44 98 97 97 92 96 100 98 89 78 81 73
16 13 9 7 24 25 32 40 59 79 55 65 51 46 58 87 58 83 87 100 100 97 38 86 100 96 86 91 73 40 35 30 43 48 85 98 93 99 96 97 99 93 97 80 84
14 14 13 6 13 24 24 32 51 68 46 53 85 88 54 77 61 100 80 100 100 91 34 100 99 86 78 82 77 47 27 31 39 44 52 58 84 86 96 100 95 95 86 88 83
17 16 17 8 8 22 18 22 43 54 51 62 93 68 60 59 85 100 98 100 100 46 57 97 85 88 80 89 84 55 22 31 42 39 36 42 48 50 67 99 88 87 99 90 82
19 17 19 18 5 14 19 18 32 46 66 72 87 72 67 62 66 100 100 100 44 72 100 97 95 93 97 94 87 34 21 27 30 29 31 33 29 25 40 47 76 84 98 99 93
21 19 21 26 9 6 17 17 24 35 63 82 86 95 100 58 63 63 74 58 98 100 100 96 96 100 100 91 70 23 21 22 22 19 17 22 24 20 32 46 69 86 96 94 97
24 19 21 27 15 6 10 16 18 26 30 45 93 68 70 59 30 43 62 100 100 97 100 98 94 100 100 94 53 24 21 20 18 15 12 18 20 19 39 34 46 57 60 71 95
26 20 21 21 17 8 4 18 17 20 28 34 47 78 59 50 33 24 60 99 93 93 97 100 95 92 74 59 49 29 29 24 21 16 17 32 22 25 51 60 62 54 54 51 56
29 22 21 20 17 10 5 13 20 15 24 22 32 43 45 67 60 41 44 87 80 100 96 93 94 90 81 71 69 60 51 40 28 24 26 24 22 25 27 24 28 36 36 40 57
30 23 18 15 15 13 6 6 20 17 16 22 20 28 29 36 55 72 71 75 95 100 97 97 96 91 82 80 71 62 55 47 38 35 31 26 25 40 33 28 21 22 30 40 51
31 23 18 12 13 13 10 4 9 24 15 18 22 20 28 29 40 46 55 81 86 83 90 88 86 76 81 70 64 60 53 48 44 35 29 25 38 50 58 57 41 30 30 35 43
30 24 17 13 12 12 11 5 7 27 22 18 19 21 34 26 38 42 54 62 88 66 64 79 77 71 76 71 71 62 54 48 42 40 40 39 39 57 64 63 50 43 41 42 51
32 25 18 15 12 10 10 6 4 20 33 24 26 24 26 48 37 42 61 68 61 66 67 59 54 52 46 43 41 41 47 49 48 46 37 32 24 56 62 59 49 44 40 51 65
34 26 21 16 12 10 9 6 5 7 32 31 30 36 34 37 54 74 48 48 55 56 49 53 53 60 60 62 62 56 54 48 41 32 28 21 42 77 92 72 63 53 51 50 64
38 29 23 16 12 9 8 7 5 9 23 41 34 38 44 36 46 53 75 84 47 39 44 48 52 53 52 40 38 42 78 78 66 61 40 47 47 98 92 79 68 66 66 66 67
39 31 23 18 12 9 7 6 8 9 22 39 45 36 45 52 41 43 52 67 77 68 42 43 41 41 39 39 44 56 66 78 76 75 65 75 56 85 76 69 76 72 70 83 79
39 36 25 18 13 9 7 6 9 14 19 27 56 47 38 43 48 49 40 37 56 77 84 75 73 72 74 70 58 60 96 90 87 91 79 66 100 84 86 62 62 74 76 76 76

GFSSW_500_rhum_072.txt.gz
RH
13 12 9 7 7 16 18 21 35 40 40 30 29 27 79 89 100 84 31 32 59 100 92 86 97 100 72 91 64 84 50 59 24 79 89 96 92 59 35 28 43 77 67 72 97
13 12 10 6 7 15 30 32 51 38 42 33 31 33 97 99 100 100 40 34 33 86 100 99 95 99 90 78 88 94 48 43 30 83 93 97 97 88 48 31 28 37 57 50 60
14 14 11 6 7 19 34 34 50 48 34 35 44 42 96 100 100 100 86 38 36 37 99 100 100 99 99 96 75 78 47 57 46 94 96 95 97 95 69 41 31 28 29 38 34
16 15 12 7 7 17 33 41 53 55 30 32 58 62 100 100 100 100 99 47 40 36 62 100 100 98 97 95 90 86 100 88 49 82 96 98 98 97 95 57 41 35 28 25 26
14 16 13 7 8 18 36 41 52 62 26 29 66 58 100 100 100 100 94 84 44 41 34 94 100 100 99 88 77 64 70 76 68 70 99 97 96 96 94 84 57 46 37 26 41
14 15 14 8 8 20 32 45 54 54 29 24 54 56 93 100 98 96 82 95 51 47 43 57 98 99 99 86 88 82 59 68 73 86 93 97 97 97 91 88 72 57 47 34 38
15 16 15 10 8 21 28 42 62 43 44 28 35 43 56 93 95 100 81 78 82 51 51 39 94 100 96 99 50 59 55 57 65 70 88 98 98 88 97 90 83 71 59 43 32
18 17 14 11 7 15 29 35 63 45 54 40 46 46 28 58 78 87 78 64 76 61 44 56 87 100 100 98 52 76 58 64 75 69 92 96 84 96 96 100 88 75 63 53 40
20 17 15 12 7 13 25 30 59 50 65 59 51 71 59 29 68 81 74 61 49 72 45 54 82 100 100 100 76 91 62 62 86 84 83 91 94 98 96 92 97 85 69 55 48
21 18 17 14 7 11 22 25 49 54 71 61 71 72 71 47 68 93 74 59 42 66 54 48 91 100 100 99 79 76 50 54 66 66 72 86 92 98 95 90 94 95 88 77 55
22 19 18 12 7 9 20 22 42 55 68 55 98 92 95 79 51 79 68 47 98 97 100 59 57 97 80 92 100 98 71 58 45 55 92 98 90 97 98 96 99 86 77 84 84
22 21 19 12 9 7 18 20 32 50 69 79 76 66 79 84 44 43 58 62 100 100 68 63 85 100 99 88 88 90 58 68 54 47 58 89 86 96 97 88 99 91 82 81 85
25 22 19 13 11 6 12 20 22 40 64 96 72 58 72 95 100 61 89 98 100 100 76 67 100 100 100 90 73 84 58 53 50 45 45 51 77 93 100 99 91 94 97 95 83
27 24 18 13 13 8 8 18 19 31 53 99 80 66 61 69 86 87 100 87 89 100 100 76 80 95 98 92 74 90 50 49 47 38 32 35 40 71 96 99 89 83 89 100 98
28 23 21 12 13 9 6 14 18 27 48 85 94 36 49 95 97 99 100 84 74 52 66 100 88 84 95 78 80 79 66 40 39 31 28 32 25 51 83 95 91 100 90 99 97
30 24 22 13 12 10 5 12 19 25 48 59 98 34 57 84 100 89 95 92 73 80 100 100 98 97 100 80 85 98 70 36 26 27 24 24 25 30 45 51 53 80 95 97 89
30 24 22 15 12 10 6 8 20 19 26 48 74 28 44 50 61 81 54 47 49 87 91 100 100 90 72 71 73 94 76 46 21 21 18 14 14 11 23 30 36 41 63 44 86
28 24 22 17 12 9 7 6 14 20 23 36 58 35 20 37 61 99 58 100 99 99 88 86 81 88 90 92 85 87 73 34 19 18 16 14 12 15 21 30 31 29 35 39 48
29 26 23 19 11 8 7 5 8 17 20 24 50 50 40 22 54 100 100 100 91 99 100 90 84 82 96 85 73 76 54 28 21 19 18 14 16 25 40 54 61 50 32 50 47
33 28 25 20 12 8 7 5 5 12 16 22 28 57 47 23 29 58 99 81 86 97 98 100 93 85 84 77 74 56 44 33 25 21 21 19 22 29 28 28 27 32 40 40 47
37 31 28 21 14 9 6 6 5 8 15 17 21 35 52 51 23 32 61 74 80 96 98 87 98 97 83 67 61 58 51 45 42 40 35 27 30 33 30 27 25 26 26 23 21
40 32 29 23 17 10 6 5 5 6 13 16 18 21 37 60 52 48 57 70 85 97 93 87 84 86 91 92 84 75 64 58 52 47 43 37 36 35 43 51 43 36 29 26 25
43 33 31 24 18 9 6 5 6 7 8 23 19 21 32 34 53 60 52 69 87 78 66 75 74 82 69 67 63 61 63 60 56 52 44 41 34 55 61 65 54 42 35 32 31
43 38 34 26 19 9 6 5 5 8 9 19 28 27 33 44 54 62 81 90 88 71 70 77 77 60 65 68 62 63 69 63 56 48 48 39 45 44 55 51 42 32 30 31 28
43 39 37 27 20 10 6 5 4 8 11 13 33 30 34 43 47 83 77 66 84 77 67 66 63 59 56 55 55 58 54 47 42 48 32 58 38 64 50 41 28 33 29 34 50
49 45 36 29 21 13 7 5 4 6 14 15 22 36 34 44 46 48 60 82 90 65 46 62 63 61 57 51 53 50 46 38 51 68 58 60 61 61 61 36 37 53 51 49 58
53 49 38 34 22 15 9 5 4 5 12 20 23 26 41 40 50 54 46 49 60 78 85 66 48 43 41 43 43 36 43 46 66 73 75 62 100 55 57 52 51 62 67 67 72

GFSSW_500_rhum_075.txt.gz
RH
9 7 9 8 8 6 8 20 31 39 36 34 25 28 45 31 44 36 49 46 32 38 100 98 97 100 96 76 29 69 41 59 42 89 43 34 48 95 57 42 52 74 58 95 96
9 8 10 9 8 7 8 17 31 36 41 37 28 30 40 81 88 98 75 98 51 34 99 100 84 100 94 94 58 81 66 64 32 16 26 43 54 86 93 45 46 65 73 76 88
10 12 12 9 8 7 7 19 29 36 46 42 24 23 37 89 93 94 100 100 78 34 82 100 78 84 100 87 73 53 45 57 88 70 32 38 30 62 96 82 48 44 54 70 73
12 15 14 9 8 8 7 16 26 36 49 43 22 19 40 94 100 100 100 100 99 39 45 100 96 69 86 95 94 69 93 83 68 56 90 28 39 62 98 84 55 38 36 52 54
16 18 17 9 9 9 7 15 24 38 50 46 31 21 40 93 93 100 100 100 100 46 35 93 100 78 71 92 87 93 96 96 95 98 48 37 69 65 91 92 72 48 36 35 51
18 19 18 10 10 10 7 16 23 39 57 56 46 40 25 91 86 93 100 100 100 54 38 72 100 96 79 83 99 88 95 96 98 92 66 38 54 98 90 95 96 68 51 35 34
25 20 17 12 12 10 7 15 22 45 62 71 66 64 34 68 96 100 100 95 96 70 51 58 100 100 100 73 94 97 97 93 90 92 94 74 65 79 88 94 98 88 65 50 33
26 22 17 14 13 10 7 13 22 45 69 80 73 92 46 29 99 92 87 83 90 89 56 56 99 100 93 100 92 94 97 100 96 98 98 76 56 77 100 96 98 98 75 58 46
26 24 19 15 13 10 7 12 21 39 68 87 72 73 76 40 69 100 93 67 70 98 54 52 95 100 100 83 100 99 97 96 99 100 89 72 50 88 97 92 93 94 97 75 48
25 25 21 15 12 9 7 11 20 38 66 94 72 67 99 45 55 97 87 66 59 93 65 62 83 99 100 98 94 86 90 92 94 93 85 75 78 95 92 92 98 87 96 96 84
25 26 21 15 12 9 6 10 19 37 63 94 66 74 80 54 66 95 84 68 55 86 63 61 75 86 100 100 95 100 100 98 100 78 74 86 97 96 97 97 97 92 96 96 94
27 26 21 15 11 8 6 8 19 30 60 86 45 69 92 94 56 99 84 64 46 78 58 64 76 100 100 100 100 97 100 96 97 68 86 97 96 96 91 87 97 97 87 88 94
26 24 22 15 10 8 6 8 17 27 59 56 42 83 77 100 50 78 69 45 43 100 83 75 71 100 100 96 100 89 86 93 98 65 79 81 74 71 83 94 99 99 93 84 91
25 23 20 16 10 8 5 6 15 26 58 38 51 44 74 100 91 87 66 86 99 96 57 50 81 98 99 100 100 99 87 89 95 92 69 69 53 74 76 90 92 94 87 85 100
25 24 21 16 10 7 5 6 13 26 58 40 65 69 60 99 87 100 93 99 100 90 70 69 73 100 97 100 100 100 85 72 98 99 78 55 49 52 42 52 88 92 97 79 88
27 25 23 16 12 6 5 6 10 22 56 34 36 60 66 77 52 47 71 99 94 78 78 100 87 100 100 100 98 95 96 97 100 98 79 58 37 28 20 38 59 92 88 99 96
29 27 24 17 12 6 5 5 8 16 41 36 22 34 53 60 73 66 62 58 79 69 85 100 97 100 100 92 91 98 99 92 67 77 60 49 42 25 21 29 47 80 89 99 99
33 28 25 18 12 7 6 5 6 17 26 51 17 36 60 60 69 77 49 43 86 92 97 97 92 92 100 92 99 100 100 83 66 60 31 23 23 23 27 23 29 36 39 69 85
36 30 26 20 12 7 5 5 6 10 19 39 51 35 68 50 40 48 57 86 100 100 98 96 75 65 69 96 99 100 88 75 66 47 25 23 23 23 17 16 18 18 20 28 35
38 31 28 21 13 8 5 4 6 7 15 21 36 45 48 80 81 97 100 100 100 100 100 95 98 97 87 86 85 96 96 76 70 48 31 22 24 20 20 23 34 33 35 44 34
41 33 30 23 15 9 5 4 5 7 8 17 22 31 40 49 74 86 78 81 93 91 94 89 92 91 94 88 100 85 76 77 60 37 26 39 44 21 22 25 27 27 26 24 30
43 36 34 26 18 10 5 5 4 6 8 14 19 24 32 48 27 62 64 66 67 94 87 89 91 99 100 83 79 72 71 58 47 39 34 31 30 26 29 30 34 29 25 26 24
44 38 35 28 20 12 6 5 4 5 8 12 22 20 27 39 51 41 36 48 55 76 90 95 91 97 94 93 75 66 69 68 60 50 47 51 47 42 46 43 41 33 24 21 22
45 41 33 30 23 14 6 5 4 4 7 11 16 22 24 36 44 55 74 74 70 77 77 83 89 99 99 82 81 78 81 80 68 59 61 54 59 55 51 47 39 31 22 25 25
50 44 37 34 24 16 7 5 4 4 5 10 14 23 26 35 54 50 58 75 100 97 89 78 73 71 83 80 87 84 79 72 65 72 57 63 53 59 51 40 35 31 29 22 18
55 48 41 37 26 19 9 4 4 4 4 7 14 18 31 32 37 66 66 59 74 83 100 98 87 87 72 64 65 60 55 54 52 53 47 45 43 47 46 29 26 25 23 20 30
57 51 44 41 28 23 12 5 4 4 4 5 14 22 21 37 35 46 47 66 80 77 75 70 60 68 68 66 63 55 55 52 49 47 36 34 74 53 60 52 50 44 30 30 44

GFSSW_500_rhum_078.txt.gz
RH
28 15 13 16 10 8 6 7 6 8 20 24 32 41 37 14 23 33 25 37 61 43 37 91 100 99 99 64 48 39 62 31 36 77 91 63 37 55 57 69 82 90 84 94 95
26 19 16 17 12 7 7 6 6 8 19 22 34 47 36 16 29 65 70 72 63 63 38 50 100 100 98 97 83 50 88 46 48 43 81 75 47 44 56 70 95 72 90 96 94
22 23 21 14 12 7 6 6 6 9 18 24 39 59 35 17 66 97 84 99 61 66 48 40 100 100 98 99 96 99 79 66 95 78 70 92 54 36 55 70 64 76 68 88 88
24 26 21 15 11 7 6 5 6 9 18 29 48 66 35 20 68 100 100 81 90 92 63 38 88 100 94 95 96 97 56 72 94 78 66 71 72 56 39 34 46 82 57 79 83
26 25 20 17 10 7 6 5 6 10 20 34 59 72 33 28 64 89 100 100 93 100 75 43 66 100 80 86 99 98 99 74 82 97 78 92 76 77 39 35 36 55 73 54 84
28 27 20 16 10 7 5 5 6 11 20 42 70 75 34 31 64 75 100 100 100 93 98 36 74 100 86 96 100 97 99 99 78 74 95 74 78 57 41 32 27 40 93 60 52
28 26 21 16 10 6 5 5 6 11 20 49 81 67 45 48 59 87 100 100 100 82 91 47 74 100 100 92 93 100 87 95 97 95 78 99 91 58 39 31 35 64 59 94 61
28 26 23 17 11 7 5 5 7 12 26 59 75 52 61 48 48 99 96 92 100 99 76 79 92 98 97 88 84 99 98 94 95 99 71 96 87 86 91 37 44 54 79 86 91
30 26 24 16 11 7 5 5 7 12 30 72 38 46 56 63 36 100 100 96 80 90 84 83 97 99 100 84 74 97 94 90 99 100 85 89 94 100 85 47 52 56 81 82 96
32 27 24 16 12 7 5 5 8 14 36 57 30 42 71 69 38 100 87 88 85 88 95 92 99 100 100 97 78 79 90 90 99 95 93 98 98 96 81 41 41 92 99 72 92
33 26 23 16 12 6 5 5 7 16 42 32 24 40 77 58 38 100 100 73 54 78 100 78 98 98 98 78 92 88 85 90 96 92 96 100 100 98 85 68 74 87 77 76 84
35 28 23 17 12 7 5 5 7 15 38 35 44 70 89 76 35 94 82 64 70 81 83 61 83 100 100 100 100 96 100 97 100 98 90 97 95 96 72 58 77 94 79 85 67
38 31 23 18 12 7 5 4 7 16 35 34 47 75 70 72 44 81 85 66 51 96 84 63 77 100 100 100 98 100 92 86 87 77 95 99 97 90 81 75 62 89 75 65 76
44 34 25 19 11 7 5 4 7 16 31 41 49 65 71 65 91 53 56 57 46 91 100 100 90 96 98 100 100 99 90 90 92 95 100 100 91 96 99 74 68 80 94 90 88
50 36 26 19 11 7 5 5 7 12 25 38 52 48 55 55 80 82 64 35 40 84 87 70 94 97 98 100 100 100 85 95 92 100 97 94 79 88 75 53 54 64 76 86 95
54 35 27 19 11 7 5 5 6 11 28 26 38 53 44 45 42 83 100 99 85 86 69 88 99 98 100 100 100 100 91 93 92 100 92 79 69 72 52 44 40 40 60 90 82
53 38 28 20 12 7 5 5 6 10 27 29 33 46 60 65 43 97 83 85 87 100 64 81 100 100 100 93 86 96 97 87 93 97 82 85 67 59 52 37 29 26 34 65 92
56 42 29 20 12 7 5 4 5 8 17 36 42 47 68 69 64 53 85 88 58 58 51 76 96 89 97 100 99 88 99 100 84 64 63 65 67 57 48 38 28 26 22 33 52
60 44 31 22 14 8 5 4 5 6 17 22 43 57 56 35 36 52 58 65 69 81 68 78 93 93 95 98 99 96 90 81 78 69 61 58 61 53 46 40 27 24 20 29 37
68 46 34 23 16 8 5 4 4 5 10 19 38 44 37 37 45 59 64 58 64 73 59 56 69 78 79 94 99 99 95 96 82 81 66 67 50 30 26 21 18 21 20 19 17
65 50 36 25 17 8 5 4 4 4 7 12 22 43 61 66 69 85 96 99 99 97 98 97 89 92 100 100 100 100 99 91 98 95 99 84 55 24 23 23 26 32 33 34 37
63 50 37 26 18 9 5 4 4 4 4 10 13 25 45 66 72 92 82 93 100 100 90 93 85 90 93 99 100 100 100 100 100 100 96 72 61 30 31 32 31 27 32 28 25
64 46 36 29 19 10 5 4 4 4 3 7 11 17 26 40 37 53 67 60 67 71 84 83 91 99 99 100 100 100 100 97 88 79 69 60 42 39 32 42 35 32 26 19 26
65 48 38 32 22 12 6 4 4 3 3 4 10 14 18 26 35 41 28 43 59 64 74 92 99 99 100 100 99 91 82 84 89 73 64 53 57 55 60 53 45 37 21 16 28
66 56 40 35 24 15 6 4 5 3 3 3 6 14 18 21 34 34 51 44 59 68 72 83 94 88 91 98 97 100 94 91 71 88 67 73 65 67 60 54 49 41 39 39 35
67 68 44 39 26 16 7 4 6 4 4 3 4 10 17 22 25 38 36 48 54 77 93 100 100 91 84 96 99 82 88 90 87 80 70 72 65 64 58 51 42 38 30 26 25
79 71 48 42 28 18 9 5 5 4 3 3 3 7 14 20 29 29 41 55 53 61 66 73 77 93 88 82 79 63 76 69 67 62 57 48 56 43 41 40 47 40 33 28 24

GFSSW_500_rhum_081.txt.gz
RH
40 34 27 26 21 10 6 5 4 4 5 6 13 20 28 46 49 22 14 21 22 48 59 43 68 100 47 94 94 52 98 64 56 53 96 80 65 58 56 57 65 80 89 84 94
39 36 31 27 20 10 7 5 4 4 5 7 15 23 36 55 30 22 43 91 64 49 64 52 47 100 58 95 100 91 99 66 64 62 56 59 70 65 50 51 51 74 78 91 74
41 40 38 28 19 11 8 5 5 4 5 8 17 33 46 41 29 27 73 96 99 89 65 71 47 92 73 92 98 96 97 78 72 99 62 74 88 78 56 46 44 52 64 78 90
43 43 38 29 18 13 8 6 4 4 5 9 27 42 36 29 31 30 87 83 97 100 68 84 55 73 99 80 100 94 94 96 77 70 84 56 69 74 44 43 49 56 56 64 66
46 47 38 27 22 15 8 6 4 5 6 14 31 39 27 31 38 48 74 100 71 95 77 95 64 58 100 75 91 96 97 98 88 78 86 57 67 83 42 32 36 47 53 56 78
49 50 36 25 24 15 8 6 4 5 7 17 38 24 25 37 34 52 95 100 80 85 88 100 57 66 96 100 88 88 95 96 99 96 62 66 74 93 72 38 29 44 55 54 73
53 53 34 29 22 15 8 5 4 5 8 22 28 24 29 42 42 58 86 100 96 95 92 86 54 74 92 92 98 97 100 92 99 88 96 95 69 57 86 58 33 31 40 42 48
57 53 36 29 22 15 8 5 5 5 11 31 23 25 32 51 38 76 84 100 81 92 99 68 56 60 100 98 98 100 96 99 98 98 93 96 88 90 88 71 48 34 32 34 42
61 54 41 29 22 13 8 5 5 6 12 29 24 26 39 50 22 74 93 84 100 97 87 82 66 65 97 100 100 95 99 98 98 98 84 97 98 98 97 73 64 41 31 32 34
66 55 44 30 24 12 7 5 5 6 18 28 32 23 23 28 22 81 98 91 92 80 84 97 66 98 95 99 99 96 95 97 97 95 97 97 92 99 87 74 60 54 30 28 32
71 60 48 33 25 12 6 5 5 8 22 28 28 28 23 15 30 99 92 96 68 64 96 99 86 87 83 100 98 96 100 100 100 98 83 87 100 90 98 76 51 65 41 27 30
76 63 51 37 25 12 6 5 6 7 24 31 33 30 37 20 46 93 79 71 64 71 100 100 100 68 96 100 97 97 97 99 100 98 94 93 84 98 98 79 77 78 75 45 33
81 67 59 41 24 12 6 5 5 9 22 28 38 36 41 54 47 75 75 61 47 53 98 100 100 100 94 87 89 84 85 90 92 96 99 99 100 93 88 82 95 87 65 38 38
89 71 66 37 22 11 6 5 5 9 22 33 39 47 42 61 67 56 55 58 57 47 100 100 100 100 96 100 98 86 100 100 94 93 98 98 96 98 95 95 83 80 61 40 40
94 73 63 35 22 11 6 5 5 8 16 30 42 51 47 50 97 100 53 42 47 60 95 95 100 100 100 95 95 100 80 89 97 97 98 96 96 95 76 75 69 59 54 51 54
92 73 61 36 20 10 6 5 5 7 16 25 42 43 53 58 94 90 86 34 85 93 100 87 96 98 91 91 84 85 80 74 90 96 94 84 83 100 75 92 69 61 57 50 55
91 76 60 35 21 10 5 4 5 6 16 29 42 40 54 58 52 93 60 60 85 99 76 79 97 100 100 94 92 80 89 85 100 100 98 78 74 95 71 73 68 61 55 53 47
90 80 59 34 21 10 5 4 5 6 10 35 36 33 19 55 58 73 89 89 61 74 73 100 100 94 99 98 81 73 98 95 99 94 80 76 64 81 66 59 58 52 41 33 32
89 80 61 35 22 9 5 4 4 6 8 24 37 23 26 36 50 50 50 73 52 89 100 100 99 91 88 87 87 88 87 74 78 82 83 82 72 78 67 61 54 47 39 29 21
90 85 60 36 22 8 5 4 4 5 7 18 38 34 46 49 39 36 50 69 58 48 93 95 100 100 91 92 98 97 90 88 88 89 83 75 69 69 70 68 61 53 44 31 27
92 84 58 37 22 8 5 4 4 4 7 10 33 49 47 59 72 62 62 43 31 34 62 69 80 84 87 74 90 99 93 96 100 100 91 74 63 64 43 36 32 32 26 22 20
91 76 58 34 21 8 5 4 4 4 4 8 13 45 57 62 74 98 91 93 88 56 36 38 56 62 89 90 81 83 98 99 100 100 89 74 65 57 38 26 23 22 23 24 26
84 68 51 32 21 10 5 4 4 3 4 6 9 14 49 46 70 80 81 83 87 88 92 85 75 72 78 84 87 90 89 93 92 95 85 74 64 67 58 37 31 27 19 18 21
78 65 44 32 21 10 5 4 4 3 3 4 7 9 16 29 41 54 68 68 58 64 68 79 88 91 95 94 93 95 99 97 89 85 98 86 88 69 61 42 31 33 29 20 37
71 61 43 33 22 11 5 4 4 4 3 3 3 7 11 17 21 34 42 36 34 41 57 82 92 92 99 100 100 100 100 91 81 96 84 88 77 73 64 58 58 51 43 42 44
72 67 45 35 22 11 5 7 4 4 4 4 3 4 10 14 16 22 32 41 52 57 68 77 99 100 96 89 78 92 99 96 90 89 85 98 89 100 88 63 57 57 50 44 40
88 76 55 38 24 12 6 8 4 4 4 4 4 4 5 12 15 17 23 35 52 65 78 93 98 100 100 99 93 86 87 80 83 79 75 71 90 76 69 61 60 54 45 37 34

GFSSW_500_rhum_084.txt.gz
RH
57 56 53 45 44 37 26 17 10 7 5 5 4 4 8 19 20 21 22 22 19 16 25 35 64 52 71 89 56 97 83 51 58 65 71 100 86 55 67 71 71 88 95 98 96
60 61 57 47 48 36 24 17 9 7 5 5 4 6 13 16 17 21 27 25 59 80 30 72 70 67 84 97 61 99 87 93 61 85 96 87 100 68 58 52 59 85 88 90 95
66 65 62 49 52 33 23 17 9 6 6 4 4 7 15 14 21 30 30 32 79 100 57 96 97 70 80 100 76 100 80 83 68 97 97 80 90 77 50 62 51 52 74 83 90
72 70 67 53 52 31 24 17 8 6 6 5 5 10 14 17 24 34 32 61 72 98 100 74 96 71 78 99 75 94 91 74 72 80 96 84 89 84 52 55 66 52 58 74 79
79 75 72 59 54 34 25 16 8 7 6 4 6 14 12 18 26 27 62 76 89 82 100 82 100 74 68 100 73 84 94 88 98 85 99 85 81 72 69 58 62 55 44 76 76
82 84 73 64 57 37 25 15 9 7 6 4 7 14 13 17 32 48 85 100 91 70 97 98 100 80 63 98 69 89 92 87 99 85 98 99 84 63 54 42 58 55 48 52 78
83 95 78 68 62 39 27 16 9 8 5 5 11 14 16 18 28 59 99 100 89 77 84 100 100 88 67 91 73 89 99 96 97 92 98 98 92 74 61 39 42 50 49 45 67
98 94 86 73 65 42 29 17 10 7 5 6 17 17 19 16 14 58 100 89 88 81 100 93 98 70 73 91 70 94 100 100 98 98 88 88 99 91 59 40 31 43 43 42 43
100 94 90 78 68 46 32 17 11 7 5 7 20 25 28 13 11 48 80 100 99 86 100 78 98 83 84 100 89 97 100 96 96 97 98 95 94 87 64 50 40 33 37 32 30
99 99 94 84 71 50 33 16 11 6 5 10 20 30 43 19 10 59 76 82 90 100 97 87 95 81 99 96 95 90 96 97 97 98 93 98 98 68 70 60 68 68 48 38 32
99 97 97 91 74 55 31 17 11 5 5 14 22 35 38 34 32 74 67 71 72 91 100 94 98 83 98 100 86 93 84 94 100 98 98 99 98 98 98 76 65 43 40 51 46
72 97 97 94 77 56 24 17 9 5 5 17 24 43 38 69 35 71 77 71 59 59 94 90 68 99 90 90 96 98 94 98 100 98 97 98 99 100 99 98 99 76 56 45 43
42 96 97 94 79 43 23 16 8 5 7 20 28 47 47 70 68 34 74 78 53 65 78 100 68 100 86 87 100 80 90 92 99 100 99 100 99 94 92 96 87 72 58 45 40
24 94 98 90 76 37 22 13 7 5 7 21 30 46 58 83 96 51 39 52 52 79 91 100 88 90 100 93 100 97 100 100 100 100 99 98 96 92 85 98 92 79 62 44 42
17 90 98 84 76 35 20 12 6 5 8 28 33 45 63 65 78 100 49 54 40 48 97 99 100 99 80 100 100 100 100 99 100 100 98 97 99 93 91 84 89 72 53 39 35
26 79 97 84 71 33 20 9 5 6 8 24 36 43 46 57 70 59 60 48 45 48 94 96 100 85 81 99 100 94 93 90 94 97 90 97 98 84 77 99 78 62 54 58 54
32 80 97 82 65 30 19 7 5 5 7 23 36 24 36 59 57 41 33 48 46 62 92 99 100 100 87 76 90 100 96 92 98 96 97 93 80 73 99 94 85 75 64 51 46
26 94 97 86 53 28 16 6 4 5 6 23 31 27 29 51 65 58 92 100 63 61 97 100 100 100 100 98 98 90 91 81 84 93 91 85 73 62 66 70 66 69 62 63 53
29 93 98 87 48 27 12 5 4 5 6 14 29 36 40 24 44 79 46 90 57 73 87 94 92 99 91 100 89 72 53 75 80 99 100 91 84 65 63 69 72 68 71 64 49
38 96 98 86 44 24 9 4 4 5 5 10 31 39 42 50 35 42 36 61 98 98 100 96 96 71 67 66 67 66 73 100 98 100 97 93 85 73 72 76 75 69 62 57 49
62 97 96 79 40 18 6 4 4 4 4 7 27 46 40 55 64 46 44 68 98 99 99 100 98 86 81 81 85 91 83 82 77 75 70 73 80 74 67 60 52 48 40 40 35
78 97 93 67 34 13 5 4 4 4 4 6 16 44 55 61 67 50 34 39 57 60 77 68 71 69 67 61 69 78 81 85 86 86 80 83 78 78 70 57 58 56 52 48 49
93 98 83 58 31 10 4 4 3 3 3 4 8 25 46 59 71 72 61 34 29 33 56 60 64 61 51 72 81 72 79 83 83 83 83 78 79 82 74 51 37 33 28 24 22
97 97 74 47 25 8 4 4 4 3 3 4 6 8 22 43 78 77 74 74 75 76 64 56 67 78 83 86 87 87 77 65 76 85 93 93 97 99 92 76 48 31 25 23 26
98 94 71 40 23 7 4 5 4 3 3 4 5 6 11 20 38 55 71 70 65 62 54 60 75 81 87 88 85 90 90 84 82 93 80 100 97 100 92 87 75 50 32 28 39
98 77 55 35 21 7 4 4 4 4 3 3 4 5 7 10 16 27 38 47 50 53 51 63 73 92 92 89 90 94 95 96 96 90 80 99 90 91 81 72 65 57 50 47 49
98 71 48 34 22 7 6 4 5 5 4 4 4 4 6 8 11 14 21 27 36 48 62 79 88 90 88 87 82 87 84 77 77 89 95 89 100 92 65 52 60 64 63 58 53

GFSSW_500_rhum_087.txt.gz
RH
65 65 69 64 66 64 56 50 43 26 16 10 10 7 5 4 6 8 8 11 10 15 28 41 17 24 64 51 38 52 73 91 68 57 47 97 100 92 93 94 93 91 96 100 97
81 75 71 67 68 69 62 53 41 25 16 11 11 7 4 4 7 8 10 12 12 23 65 79 47 44 68 59 50 47 65 54 77 65 52 99 99 98 91 85 94 91 95 94 82
71 85 79 72 72 73 68 57 42 24 16 14 12 7 4 5 10 9 11 11 16 24 83 100 57 73 90 66 59 39 47 88 100 77 49 96 99 95 79 70 77 84 94 95 97
92 77 84 79 85 77 69 64 44 28 19 18 11 6 5 7 10 9 12 22 44 48 89 100 66 93 98 73 70 43 45 96 100 91 55 64 85 86 74 53 53 77 94 97 97
88 89 88 90 91 86 74 67 47 33 24 19 11 6 5 11 11 10 14 63 80 83 69 99 73 100 100 77 69 32 42 94 98 100 77 60 75 72 63 56 54 80 86 90 95
51 82 79 96 97 90 78 73 52 41 29 18 9 6 8 13 12 9 67 74 77 76 96 88 74 100 100 79 50 34 42 98 100 98 90 64 81 72 64 42 53 73 76 86 91
26 33 81 94 97 94 80 75 55 50 30 16 8 7 14 14 14 10 81 100 72 73 89 74 89 98 92 83 65 82 70 100 100 97 87 78 85 84 73 71 46 55 75 95 93
10 28 56 88 97 95 83 71 67 52 26 14 8 11 17 17 20 44 79 58 77 83 84 92 100 96 78 75 83 99 90 99 97 96 98 89 95 82 77 82 65 48 49 62 92
9 28 39 79 95 93 91 70 80 46 23 12 9 14 21 20 29 54 71 61 63 70 69 88 100 97 74 68 81 100 89 98 99 93 95 86 90 88 72 71 65 58 52 47 80
11 18 44 54 88 94 95 78 81 39 20 11 11 15 23 27 34 36 70 63 81 100 90 84 100 84 74 72 82 93 70 90 100 98 98 97 81 89 69 67 57 60 50 40 36
12 7 24 44 76 92 96 89 66 39 19 9 9 20 26 40 40 45 63 68 72 96 100 73 100 100 63 64 86 92 76 100 99 98 100 100 93 99 98 80 59 49 54 44 32
11 5 21 36 53 87 98 86 72 36 18 10 12 23 29 53 56 37 64 56 67 80 73 82 94 100 95 76 92 97 97 100 99 100 98 98 100 98 96 87 69 58 55 47 42
7 5 18 26 48 84 97 89 65 37 14 9 14 23 29 61 75 43 67 60 60 76 96 85 89 94 100 96 97 100 100 92 96 99 98 99 96 97 93 73 79 69 48 44 48
6 6 20 27 35 86 98 84 65 31 10 12 17 30 36 58 87 47 64 69 45 44 100 78 93 81 82 92 98 89 90 94 98 99 100 98 100 96 98 96 84 84 66 48 49
7 5 14 60 33 94 98 84 54 23 9 16 17 25 37 49 68 86 42 56 52 67 100 80 97 100 84 79 100 80 100 80 93 94 99 99 96 94 85 97 97 99 78 57 51
8 4 4 18 68 94 98 74 43 14 11 12 16 25 41 55 54 48 55 46 43 64 99 99 90 98 100 99 83 100 98 80 92 94 96 98 97 90 88 93 98 99 92 88 71
8 5 4 14 85 94 96 59 31 13 8 11 19 30 29 58 38 33 40 36 39 70 92 95 88 91 93 76 93 100 100 98 99 100 96 91 97 88 68 70 89 85 78 72 58
7 6 17 54 97 97 97 43 29 8 8 11 24 36 28 57 54 29 35 32 38 86 98 100 93 80 87 99 100 94 81 94 96 91 94 90 93 86 76 72 72 81 84 75 54
6 6 6 32 87 100 85 36 19 6 8 11 24 46 41 40 49 45 33 33 82 100 100 100 92 73 63 66 96 98 61 77 80 99 87 81 87 87 67 92 98 100 86 69 53
10 6 6 39 89 100 66 29 10 5 6 11 26 50 53 38 45 45 41 44 91 100 95 100 100 79 91 80 93 77 92 83 74 94 96 73 65 64 68 68 74 88 66 66 60
7 7 8 52 96 97 49 19 6 4 6 9 24 48 57 40 34 36 38 53 91 81 100 100 100 100 100 100 86 68 68 77 98 91 86 90 78 85 86 72 58 66 62 54 50
9 8 20 80 91 79 36 13 4 4 5 8 21 48 64 53 20 32 46 53 99 94 92 90 89 85 80 77 83 88 89 97 96 100 85 88 76 91 96 72 63 72 69 65 59
25 23 48 93 95 59 20 6 4 4 4 6 12 43 53 55 36 20 45 76 59 54 64 71 67 55 45 41 59 76 74 81 81 85 77 74 68 76 70 75 68 63 57 48 39
27 34 70 98 86 37 14 4 4 3 4 5 9 27 41 49 60 29 38 44 26 23 22 26 33 28 32 30 35 57 59 66 65 67 70 75 88 85 77 69 68 60 52 53 49
13 30 95 98 69 26 8 4 4 3 4 4 6 8 20 33 51 66 60 58 55 53 64 60 51 47 64 66 55 56 60 65 71 76 78 99 94 96 86 80 76 62 42 31 28
56 91 98 90 45 17 5 4 4 4 4 4 4 6 8 16 41 44 56 67 64 62 60 53 42 39 52 71 76 70 66 68 73 75 75 76 72 78 75 77 73 70 65 46 29
74 96 98 68 32 10 4 4 4 4 4 4 4 4 5 7 10 17 32 36 42 47 47 46 44 40 48 72 78 71 68 65 65 67 64 63 73 59 50 52 57 62 64 68 63

GFSSW_500_rhum_093.txt.gz
RH
20 8 6 6 7 8 9 11 69 78 74 90 83 84 76 66 47 31 32 15 10 6 4 4 5 4 4 5 11 27 40 31 24 24 16 40 69 92 93 89 69 61 64 88 96
23 24 18 8 6 10 14 14 16 59 86 83 82 79 80 72 49 44 26 14 9 6 5 5 4 4 5 10 18 35 64 45 28 36 19 32 76 87 98 94 90 67 62 93 96
19 26 29 26 10 8 10 20 15 33 67 96 96 92 88 81 55 38 22 12 7 6 6 5 4 8 18 20 19 31 47 76 43 45 32 28 100 94 100 74 76 80 69 76 92
18 23 24 33 28 17 11 13 26 41 59 83 98 94 94 85 57 36 19 9 8 8 6 6 18 32 42 43 86 62 63 79 65 55 46 34 94 84 98 68 55 69 84 95 88
36 24 21 35 35 29 22 14 21 84 64 74 95 96 93 90 52 31 14 8 9 8 10 21 38 58 59 67 80 76 76 75 71 66 57 46 98 78 96 99 73 73 84 91 91
42 29 32 41 37 31 28 24 21 97 76 96 99 97 92 77 48 22 13 13 10 11 26 26 26 52 77 74 79 97 100 84 93 72 56 58 99 68 99 100 94 71 90 90 83
48 47 41 44 37 32 28 22 21 95 89 78 91 96 93 64 35 16 18 15 14 22 27 19 33 100 86 80 79 100 100 100 100 73 42 50 98 67 88 99 83 86 100 94 95
45 58 39 49 42 33 28 24 19 38 97 99 97 94 93 57 26 21 21 21 20 30 36 58 63 77 70 87 100 100 100 99 82 61 41 68 73 72 78 94 99 92 86 82 88
65 72 49 43 50 42 31 26 15 14 99 100 98 95 85 47 22 28 26 28 23 45 52 49 59 82 95 96 100 94 98 100 86 59 50 90 97 100 65 69 76 96 97 97 88
78 75 73 39 46 53 47 29 16 13 92 99 98 96 73 32 26 32 33 34 26 49 89 68 73 95 99 98 94 96 100 100 94 55 82 99 100 98 76 76 72 78 96 97 97
67 63 38 50 40 43 54 39 17 28 100 96 96 96 75 26 32 35 42 41 29 49 69 94 99 76 100 92 91 92 98 98 98 56 83 100 98 100 85 74 78 92 93 94 95
27 44 38 27 34 44 50 40 22 23 85 99 98 97 35 27 35 42 54 46 37 39 58 74 89 100 86 82 92 96 90 100 96 71 85 99 100 96 91 86 80 96 92 97 97
8 9 15 17 27 38 46 33 24 25 96 99 98 66 29 29 38 61 66 47 55 53 59 60 83 99 80 81 91 96 85 91 99 80 92 100 98 99 88 90 90 100 94 97 97
22 17 8 8 17 29 39 30 24 50 99 99 97 59 24 37 49 71 71 48 60 70 66 87 61 99 98 84 100 95 88 91 99 98 99 99 99 100 91 98 100 96 98 93 84
93 53 25 9 12 20 26 27 26 77 99 98 95 45 30 42 56 67 61 62 60 44 66 53 53 98 86 93 89 96 78 72 90 92 99 98 99 95 93 98 100 97 97 95 96
64 86 58 16 9 13 20 24 40 100 99 100 94 26 42 31 24 42 56 58 52 57 78 53 54 100 82 96 91 100 79 66 92 76 100 99 99 99 100 93 77 75 93 97 90
61 55 67 29 10 9 17 21 92 99 98 99 64 26 33 15 16 23 41 54 68 96 82 61 46 100 93 98 71 100 75 54 61 62 94 100 96 98 87 98 72 98 99 82 97
77 56 49 43 11 10 17 31 97 82 100 99 30 40 23 20 25 29 40 77 100 96 80 62 62 94 100 82 82 100 86 50 53 55 86 97 96 83 78 83 94 83 96 96 99
63 45 44 29 9 13 18 66 54 100 100 81 22 50 24 25 29 48 62 90 96 86 76 81 62 100 96 95 99 73 86 79 62 58 70 94 99 82 88 90 92 98 72 97 98
90 37 18 11 10 15 26 26 100 100 100 54 27 54 23 31 38 59 87 100 80 57 91 80 93 93 81 76 100 100 85 93 99 80 62 82 100 91 92 90 76 84 98 100 98
40 10 16 11 12 21 24 100 100 100 98 26 36 62 30 37 43 65 100 96 81 88 98 93 73 89 74 84 86 90 100 94 87 81 79 94 98 86 82 97 100 88 73 73 86
11 14 13 12 32 22 93 100 100 100 73 22 42 63 31 32 43 86 95 95 93 78 85 72 65 67 97 74 79 81 77 62 89 89 72 67 80 89 79 70 75 97 97 77 74
13 13 11 22 25 73 100 100 100 97 29 22 40 66 28 37 46 62 79 74 89 87 75 64 75 83 70 70 67 59 51 49 62 70 82 67 65 63 56 55 59 58 58 68 81
10 11 16 19 54 82 100 100 95 38 18 21 41 65 28 33 35 38 71 75 74 74 66 60 47 34 32 38 46 49 47 49 52 79 93 81 70 68 63 60 58 55 48 44 45
13 24 41 48 81 100 100 100 38 14 14 16 30 59 40 25 28 32 61 61 61 66 38 50 55 59 54 44 32 37 47 52 49 48 49 54 62 64 58 54 54 66 64 54 50
22 39 79 100 100 100 100 32 13 9 10 10 20 47 61 35 24 24 37 51 59 30 39 42 38 32 30 42 50 30 24 30 33 38 38 39 42 40 40 41 49 52 57 69 79
77 95 94 100 100 98 38 10 8 7 6 9 15 34 45 53 37 26 29 43 48 35 44 46 46 40 34 30 35 44 46 43 46 50 51 49 32 32 32 32 31 34 43 51 56

GFSSW_500_rhum_096.txt.gz
RH
32 31 31 21 18 26 23 16 10 12 15 21 25 33 78 96 79 75 78 75 69 61 44 30 20 12 7 4 4 4 4 2 3 5 9 14 12 12 31 55 51 30 30 38 86
37 36 36 32 27 20 25 29 20 9 11 15 22 40 50 93 100 87 91 83 78 60 43 29 18 10 5 4 4 4 4 4 6 11 19 19 17 16 42 50 59 38 33 45 56
45 38 28 35 37 28 20 28 31 25 13 11 19 46 62 65 96 97 91 89 78 51 30 22 13 7 5 4 6 5 5 12 11 20 40 22 22 22 26 56 63 47 40 51 47
53 49 35 26 33 39 26 29 35 31 26 19 16 89 76 63 82 96 93 80 54 34 25 15 9 6 4 4 8 8 20 22 18 26 81 48 29 30 24 55 71 72 60 65 52
61 57 51 36 33 46 38 32 36 35 30 25 23 97 91 80 94 93 85 62 39 24 15 11 7 6 5 10 25 36 43 41 42 39 73 70 38 40 27 45 87 96 75 90 74
65 68 62 56 41 45 50 44 38 36 33 24 22 41 93 99 95 95 85 42 19 15 12 10 10 9 8 16 35 69 65 59 67 62 61 87 42 54 53 53 75 92 80 72 90
76 74 75 75 63 50 57 54 45 36 32 24 19 20 85 100 99 94 68 22 19 15 14 16 20 18 17 74 85 71 65 86 81 75 69 88 59 53 65 71 62 100 78 70 98
94 84 84 85 74 57 59 56 54 42 35 26 18 16 53 100 95 93 43 21 20 20 26 28 27 31 49 57 67 85 94 79 83 86 84 68 66 76 74 64 82 98 72 69 97
100 97 85 92 87 78 82 78 54 52 45 33 16 19 100 96 97 80 26 25 27 26 40 34 48 47 74 71 79 100 100 100 98 96 79 74 73 70 71 65 96 98 66 69 94
100 100 97 89 91 86 72 65 54 54 54 45 17 45 100 99 95 41 30 32 33 30 43 43 64 96 84 81 99 99 90 99 100 87 83 68 80 72 89 88 93 97 81 72 94
100 100 100 93 89 56 43 42 47 50 53 44 24 31 100 98 82 35 37 45 39 32 60 60 74 76 99 73 100 100 93 99 100 79 76 59 73 80 99 87 97 99 88 77 92
14 18 29 50 69 39 31 42 33 42 49 40 25 73 99 96 42 36 48 56 41 36 51 66 75 93 96 70 74 96 92 90 100 100 61 53 82 99 92 72 99 99 97 85 97
42 36 14 8 16 32 24 26 30 33 45 34 37 97 98 85 38 53 67 61 47 54 41 43 63 97 77 79 92 89 100 99 100 94 82 99 97 95 68 75 81 85 77 90 94
99 95 93 37 15 9 14 20 19 21 37 36 66 99 89 42 55 67 80 51 63 62 47 36 66 84 89 87 100 86 90 95 100 98 99 98 99 97 100 84 58 82 72 94 96
75 76 98 84 31 15 10 11 14 18 32 52 98 97 48 31 20 43 59 67 60 49 44 41 48 76 73 92 100 91 69 98 100 84 100 93 100 85 97 98 72 79 82 97 97
91 60 66 53 41 26 13 9 10 20 43 91 99 62 28 18 20 40 55 57 42 45 42 44 76 99 93 90 100 94 74 100 98 97 95 96 99 99 94 86 83 90 99 98 96
92 98 64 54 60 40 16 10 12 17 63 100 91 44 20 24 28 31 48 54 77 71 45 49 90 98 86 100 100 100 76 87 75 75 100 100 98 90 98 92 94 93 96 100 97
79 64 63 47 63 48 24 10 13 30 100 100 64 40 23 28 38 63 67 89 85 82 49 56 95 100 80 100 100 97 56 51 58 60 97 100 100 97 98 90 78 95 82 90 82
100 100 76 55 75 48 19 11 14 87 100 96 43 39 26 33 37 65 83 98 67 62 68 89 100 80 100 100 100 88 57 50 57 54 91 98 100 100 90 79 76 86 80 81 91
100 84 67 66 61 21 11 13 76 100 100 38 53 29 28 44 71 82 71 62 74 67 70 99 100 100 98 80 95 82 64 51 44 47 60 98 97 94 100 82 100 92 77 97 99
67 61 40 42 21 11 12 63 100 100 77 31 50 27 32 49 82 90 67 82 78 83 80 100 100 100 97 97 94 96 83 74 52 40 47 68 87 91 99 97 90 95 96 96 83
70 30 19 15 12 13 44 100 100 99 28 36 61 29 35 38 80 75 59 92 100 86 76 92 94 99 99 100 100 100 93 73 62 54 68 64 66 86 98 83 81 92 96 88 93
41 15 12 11 13 42 100 100 100 53 25 46 65 30 31 65 86 90 74 72 72 68 65 73 83 72 77 82 84 87 99 77 72 68 66 55 56 64 68 77 84 88 89 97 94
12 11 12 18 62 100 100 100 98 25 28 52 54 27 38 55 67 73 80 72 81 79 73 53 51 58 56 53 55 49 57 69 75 62 52 48 46 46 43 45 50 53 54 54 63
11 15 42 99 100 100 100 100 35 24 26 50 30 32 34 38 59 67 61 62 63 47 50 50 34 31 36 47 44 34 32 34 52 61 53 40 32 39 48 41 34 28 27 30 35
18 59 92 100 100 100 100 37 20 19 20 42 34 32 33 33 48 62 61 55 38 31 46 40 41 48 50 34 33 41 40 35 36 36 45 43 38 39 41 36 29 28 26 25 24
66 99 100 100 100 100 52 15 11 13 14 25 31 28 26 26 29 32 46 46 50 34 48 45 37 32 30 34 30 19 27 28 30 29 28 27 31 32 31 29 28 26 26 28 25

GFSSW_500_rhum_099.txt.gz
RH
45 43 41 42 40 35 34 33 33 24 25 27 22 12 12 11 18 32 44 76 86 87 86 83 75 72 69 57 42 26 21 17 13 8 5 3 3 3 3 3 4 5 8 5 33
59 57 54 53 48 42 35 31 34 36 26 27 30 18 12 12 13 18 54 52 74 90 92 94 93 81 67 51 37 27 22 18 13 7 4 3 3 3 4 4 4 5 7 10 12
61 58 55 58 59 51 46 41 30 34 38 24 31 32 28 18 15 42 74 63 92 86 85 83 88 78 59 39 28 23 24 14 10 4 3 3 3 4 3 7 19 8 10 16 17
62 62 59 59 66 63 55 49 44 32 41 40 28 35 30 28 25 56 79 90 85 84 80 84 56 42 36 30 22 26 18 8 4 3 3 2 3 6 5 8 31 18 16 33 16
61 58 62 68 72 75 68 61 54 48 46 46 36 37 29 26 25 48 66 81 95 86 79 56 34 31 31 24 16 16 7 4 3 3 5 8 7 10 10 14 39 47 21 36 26
68 74 75 72 78 87 87 90 82 84 69 50 45 35 28 26 30 29 46 80 94 84 60 37 17 14 21 14 9 5 4 4 7 11 30 26 15 17 14 22 60 20 26 54 63
88 87 88 84 94 98 100 99 98 100 87 58 53 38 30 24 22 22 44 90 96 65 30 18 13 16 17 9 9 8 10 22 34 38 41 45 34 23 36 43 38 29 28 51 69
100 100 97 96 100 100 100 100 100 100 87 66 59 49 39 29 17 27 96 91 55 26 20 19 22 26 22 20 29 30 45 72 69 57 67 87 47 43 62 76 33 46 30 52 84
90 96 100 100 100 100 100 100 99 100 96 88 63 64 50 37 28 73 80 88 38 25 24 24 40 39 45 37 48 51 51 72 94 96 76 52 80 73 100 62 58 32 33 56 86
89 86 97 100 100 100 100 100 100 100 100 87 64 62 53 49 29 57 98 80 33 30 26 36 51 54 51 64 61 69 63 60 92 100 59 91 100 80 98 57 74 48 40 70 87
98 94 96 100 100 100 100 100 97 95 93 56 52 56 46 35 30 98 96 47 38 39 29 54 55 58 78 70 71 78 56 71 100 100 55 99 100 100 96 56 85 63 48 68 91
34 32 28 35 50 84 100 100 100 67 39 32 37 49 44 32 83 96 67 44 49 36 35 58 61 70 75 65 54 57 56 92 86 93 74 93 97 95 85 77 78 70 49 99 86
84 100 100 89 57 37 31 62 76 37 25 24 26 36 38 59 95 72 50 49 46 44 45 54 58 71 66 67 60 68 92 100 100 85 81 67 68 69 87 88 80 81 97 92 85
100 100 98 88 77 73 59 98 31 18 13 19 24 54 78 99 72 32 28 39 51 58 54 45 54 60 75 92 88 74 98 100 100 95 97 84 99 99 99 89 94 92 98 95 81
100 98 63 96 100 54 69 79 26 14 17 43 42 87 100 40 20 25 44 53 65 51 42 41 51 53 84 100 96 71 95 100 99 100 100 100 100 100 57 53 65 95 96 96 98
91 92 70 54 93 77 42 18 14 12 27 41 83 100 30 19 18 32 57 54 48 46 37 42 58 68 86 100 100 85 99 100 99 97 99 98 99 100 66 49 56 73 90 100 98
65 74 78 62 66 74 52 25 12 14 54 66 100 61 26 29 32 45 52 52 51 75 47 72 96 90 95 100 96 100 100 100 100 98 100 99 100 96 99 92 73 80 63 95 98
68 77 100 90 72 55 68 17 23 14 32 100 86 26 31 45 67 59 80 79 76 76 60 86 96 97 100 75 97 100 100 100 99 100 100 98 100 98 99 97 94 76 64 98 96
99 78 70 66 49 59 23 16 50 79 100 100 39 29 39 36 71 83 78 68 57 43 60 72 100 100 100 99 93 81 86 79 80 100 96 99 98 98 97 98 91 78 92 98 98
99 100 74 44 45 23 14 45 81 100 100 77 29 34 59 78 71 68 49 39 58 75 99 100 98 100 100 96 85 65 52 53 52 94 97 100 99 98 90 77 83 83 92 87 87
59 34 32 31 23 17 38 100 100 100 81 50 30 42 57 93 65 56 56 65 64 94 90 94 100 100 100 98 93 63 52 48 52 74 100 97 99 89 99 76 62 88 94 94 93
21 25 22 19 16 23 86 100 99 64 66 38 36 47 77 100 66 72 74 59 65 100 100 99 82 99 90 90 77 55 49 46 41 50 62 62 75 70 78 83 98 99 98 85 89
15 14 14 17 24 97 100 97 38 46 66 39 38 46 78 70 65 100 79 83 83 100 98 100 100 94 82 95 90 53 47 43 48 43 41 38 43 51 45 38 38 47 62 61 63
13 15 22 76 99 98 95 36 34 56 58 35 34 59 79 86 64 70 57 85 83 85 78 74 80 85 87 93 89 70 51 45 48 44 45 56 40 38 36 42 48 49 46 35 41
27 84 96 98 100 99 34 30 30 53 56 28 36 58 67 77 78 67 77 86 66 39 38 43 58 56 56 58 77 80 67 49 31 32 33 32 30 24 21 18 20 24 30 29 21
90 96 100 100 100 82 33 28 31 55 34 25 39 51 51 62 68 59 49 34 49 50 49 46 39 38 46 38 31 34 46 44 37 27 20 17 21 19 25 27 32 33 37 31 31
99 100 99 86 40 30 21 18 28 32 19 27 38 41 46 48 52 52 44 41 37 44 36 34 33 42 30 37 37 34 28 27 30 34 34 37 32 30 33 35 31 29 26 26 25

GFSSW_500_rhum_102.txt.gz
RH
54 53 52 49 49 52 53 53 49 44 38 33 33 34 30 26 24 21 16 15 12 12 35 54 63 85 84 68 69 75 65 50 55 50 38 28 21 15 12 10 9 5 4 4 3
61 61 61 59 59 64 61 60 57 57 49 40 34 32 35 34 26 25 18 16 15 12 36 64 76 76 88 88 82 72 61 54 54 51 47 37 26 19 14 13 12 7 4 3 3
81 81 75 64 69 74 73 67 59 61 58 51 46 44 35 38 34 28 27 26 21 22 50 66 66 72 66 74 74 77 66 63 57 50 48 45 35 24 19 17 13 8 4 3 3
93 93 93 81 75 75 79 82 76 65 66 62 57 53 47 44 40 34 28 27 28 34 55 67 58 62 62 61 61 59 59 56 47 42 44 44 39 33 26 20 13 6 5 3 3
96 93 96 98 96 92 89 93 95 89 87 79 72 61 55 49 43 36 31 28 28 28 50 52 71 65 56 49 44 47 39 41 45 43 43 38 37 35 28 21 9 4 3 3 3
100 98 96 99 98 99 99 100 100 92 100 100 91 76 71 69 46 39 30 28 27 25 30 67 56 46 41 31 25 22 21 20 20 20 19 19 19 14 13 4 4 3 3 3 2
100 98 100 97 98 99 99 99 99 98 100 100 99 100 100 94 59 44 34 28 21 28 68 68 56 43 32 22 18 16 15 12 11 8 6 5 5 4 4 4 6 6 5 6 4
100 96 96 100 98 100 100 99 100 98 99 100 100 100 100 92 66 50 39 31 22 55 65 62 49 27 23 18 19 17 14 14 15 24 30 28 10 16 10 12 8 10 8 9 82
100 98 98 100 100 100 100 100 100 100 97 100 100 100 92 94 81 61 46 37 31 36 69 66 41 26 22 32 31 32 38 27 41 46 47 55 20 18 23 27 23 14 17 84 78
68 100 100 92 100 100 100 100 100 100 99 100 99 100 100 93 70 62 56 36 54 94 79 53 33 25 35 38 49 52 40 37 39 74 95 49 61 48 60 80 23 31 26 100 71
100 100 100 90 92 94 100 100 100 100 100 100 100 98 97 74 56 46 48 55 74 74 53 42 31 36 44 45 41 46 40 43 60 92 61 49 56 58 95 97 48 95 96 90 68
97 100 99 100 84 93 79 100 100 94 100 100 100 98 67 50 48 42 43 65 78 56 46 32 34 49 44 47 37 34 35 53 76 88 57 57 65 63 97 100 93 71 97 66 40
100 100 100 100 100 85 83 95 100 100 96 98 93 62 33 38 46 63 80 80 50 38 25 30 53 50 52 49 44 44 50 88 94 82 79 88 63 57 66 82 50 60 62 29 43
78 100 99 100 99 95 100 99 78 96 99 67 49 34 36 73 95 92 66 47 35 28 35 48 53 50 54 74 56 72 77 90 96 96 100 96 98 88 96 62 58 69 46 25 68
64 96 80 69 86 97 100 100 94 57 88 25 23 52 90 98 67 39 30 35 44 57 48 47 49 46 91 75 75 98 99 96 85 100 99 100 100 94 100 90 77 85 46 63 88
76 84 72 100 100 98 100 100 80 30 84 80 71 99 44 25 17 21 34 53 48 42 42 46 51 54 86 89 83 90 93 96 95 100 100 98 97 100 100 100 97 74 62 92 99
59 76 59 82 91 74 79 48 20 90 67 74 100 66 30 35 33 43 51 48 48 58 54 48 62 68 96 97 100 100 100 100 100 99 100 100 100 99 99 94 93 97 100 95 99
57 72 58 65 67 36 17 34 100 83 99 100 89 39 50 49 61 73 57 46 77 84 95 86 86 92 100 89 100 99 97 100 100 100 100 99 100 100 100 70 74 94 98 97 97
45 55 51 51 47 76 100 87 64 100 100 97 31 38 71 87 81 68 55 79 84 87 100 100 99 100 93 93 92 93 94 100 100 98 99 96 99 99 98 96 64 68 85 92 98
32 33 37 30 72 86 86 61 100 100 100 58 41 61 84 81 63 53 51 76 81 94 99 96 97 100 93 73 93 76 75 94 98 100 99 99 90 96 99 100 100 99 93 97 98
26 25 18 17 62 82 63 69 85 100 60 37 60 86 74 56 46 47 57 85 100 100 98 100 100 97 69 78 72 51 62 92 97 100 100 89 90 93 95 100 98 98 96 96 88
13 12 13 42 84 70 77 96 100 67 35 46 82 80 60 69 42 52 78 98 100 100 96 100 100 97 85 59 52 50 45 60 84 88 85 86 95 96 89 80 88 94 95 94 97
58 54 68 90 91 99 92 95 58 35 46 66 84 82 76 81 81 79 98 100 100 100 98 97 80 96 94 81 61 52 45 46 63 60 55 54 72 65 84 79 73 80 92 88 76
100 96 99 88 82 34 34 49 45 36 47 74 60 60 75 86 95 91 91 99 99 100 100 98 72 85 79 68 48 36 32 38 45 46 44 42 26 32 36 50 48 42 40 49 42
47 39 54 58 31 28 34 54 43 35 53 57 59 36 53 64 78 89 73 57 50 55 75 87 94 97 81 52 48 37 39 40 32 38 50 18 26 19 22 20 38 45 39 30 26
19 15 15 18 22 25 31 30 20 26 36 37 49 46 38 53 67 44 48 58 52 42 36 47 50 52 67 78 69 69 70 56 41 51 49 56 56 52 46 52 42 39 50 45 39
6 7 8 9 14 19 19 16 14 20 25 31 43 44 53 48 34 37 39 39 36 36 42 41 33 39 34 28 30 47 55 54 50 48 40 42 40 40 40 38 38 36 32 30 27

GFSSW_500_rhum_105.txt.gz
RH
56 57 64 65 64 64 66 65 58 52 51 50 50 51 48 41 35 33 33 30 25 21 18 16 16 12 12 26 30 48 64 53 61 60 56 57 45 39 32 25 25 17 14 11 10
74 74 72 74 82 86 84 80 72 63 61 61 59 60 57 54 47 38 33 34 34 28 23 18 17 15 15 60 48 50 49 62 71 62 53 53 54 50 40 31 29 22 17 15 13
97 96 97 98 98 99 98 96 96 79 69 76 70 70 66 62 57 53 47 38 34 34 29 23 23 20 18 35 57 52 40 62 66 68 64 52 48 48 46 46 41 36 19 17 16
98 98 98 98 99 98 99 98 97 98 84 82 86 82 74 72 62 55 53 49 40 36 34 27 24 24 24 45 54 44 49 55 60 60 60 59 57 50 47 44 46 43 37 24 21
99 98 99 99 99 99 99 99 99 99 95 96 96 89 82 81 78 72 64 57 48 38 38 32 26 25 30 51 46 39 37 39 41 48 52 54 54 53 51 52 50 47 44 37 29
100 99 100 99 99 100 99 100 99 99 98 99 100 98 94 94 84 78 71 63 53 42 40 30 25 23 25 37 37 33 31 32 31 31 34 38 43 44 43 50 50 49 40 41 35
100 84 67 80 97 100 100 100 100 99 100 98 98 98 97 93 91 87 80 81 82 45 39 32 26 24 39 49 42 38 31 26 21 21 20 25 28 16 15 22 28 31 39 37 39
100 88 65 50 62 89 98 99 100 100 100 100 100 100 99 99 99 100 96 99 66 45 38 32 26 26 30 42 46 34 28 15 14 15 14 13 21 22 18 16 18 18 17 15 16
75 93 70 69 59 80 86 100 100 100 100 100 100 99 98 100 93 97 96 88 68 52 40 34 29 43 42 41 36 30 16 15 20 17 15 14 19 23 14 9 8 8 8 8 6
100 100 100 100 100 74 100 100 100 98 100 94 100 100 100 100 99 100 90 84 73 53 44 34 42 56 49 42 27 18 17 20 25 28 39 33 25 24 15 8 5 5 4 4 5
100 100 100 100 100 98 96 100 100 100 100 100 100 86 99 100 100 100 96 99 54 47 42 34 51 53 44 26 30 30 22 28 30 45 51 34 31 39 48 91 51 36 13 7 10
96 91 100 87 92 76 94 100 100 100 100 100 100 100 100 100 99 89 59 50 47 46 47 66 61 37 22 28 33 29 28 34 49 91 57 59 44 42 61 60 60 73 83 25 35
82 83 82 78 84 73 93 100 99 99 100 100 100 100 99 89 63 50 51 58 68 80 76 49 24 24 37 40 37 29 31 57 67 61 72 78 58 34 39 46 42 67 89 56 99
71 76 52 74 84 100 92 90 89 97 99 100 100 97 58 30 38 50 80 100 89 64 32 18 41 36 46 57 44 38 54 64 49 66 81 94 90 82 60 78 53 50 55 54 72
48 59 63 65 60 100 100 100 98 94 98 99 95 71 49 67 97 100 99 71 43 23 25 45 49 46 55 58 56 62 72 65 82 91 100 100 87 100 100 62 54 59 56 63 70
51 45 60 62 79 80 95 86 87 100 66 52 41 78 96 68 34 32 38 35 41 44 48 45 49 61 58 58 79 75 83 98 100 98 100 98 100 100 87 75 90 74 35 44 77
50 57 58 72 94 86 83 97 100 97 94 93 100 44 29 28 30 44 53 59 51 46 46 46 47 53 63 74 98 99 98 100 100 100 96 96 96 100 99 100 54 38 53 93 95
44 53 59 89 80 80 97 100 92 86 100 94 33 33 46 46 44 48 47 47 55 62 72 55 66 76 79 93 99 100 100 100 100 95 99 99 98 99 97 100 96 91 98 99 97
35 32 34 40 73 65 68 90 87 100 98 47 68 64 63 78 67 41 61 74 87 99 79 74 78 64 87 94 99 100 100 100 100 100 100 97 100 96 86 98 99 99 98 98 99
20 19 33 48 37 51 70 60 87 97 39 50 84 96 89 85 64 72 71 70 92 98 100 96 88 86 88 90 86 99 100 100 96 99 98 99 96 99 97 85 95 98 98 98 95
35 37 27 32 23 52 75 72 93 78 49 71 91 98 84 68 56 87 96 100 100 100 100 89 70 70 85 69 76 99 98 99 97 98 98 92 98 100 99 98 95 93 95 93 97
97 90 72 70 64 81 80 92 53 47 76 89 61 57 64 56 73 93 100 100 92 86 95 87 79 77 69 55 71 92 98 99 98 97 94 68 94 94 98 97 94 98 99 96 98
60 71 47 31 74 84 56 37 54 78 81 58 42 38 43 68 97 100 100 100 99 100 100 89 82 77 47 46 47 59 78 85 91 98 89 69 90 96 92 100 94 96 98 95 90
20 18 22 27 47 29 34 57 54 40 46 39 27 48 61 81 92 86 98 78 81 87 85 97 74 59 50 44 44 46 59 52 63 75 72 56 54 87 94 97 77 68 60 59 57
10 10 13 19 23 25 34 42 38 31 36 40 46 56 56 63 61 50 57 88 100 75 62 66 76 78 57 49 39 33 36 42 44 54 82 34 49 30 35 43 32 28 26 21 24
7 7 8 10 15 17 20 25 25 24 23 29 41 45 38 38 38 33 41 43 49 67 75 71 73 61 54 43 37 45 51 43 43 38 56 44 48 44 46 47 54 46 32 29 32
9 8 7 7 7 10 12 15 16 24 27 32 38 33 32 32 30 30 30 32 31 31 35 38 44 52 53 62 60 56 56 54 54 53 52 53 49 52 50 45 41 46 44 38 33

GFSSW_500_rhum_108.txt.gz
RH
88 85 80 75 72 67 64 66 67 70 61 60 58 54 53 45 44 43 37 37 34 30 28 26 23 20 18 14 13 13 10 8 8 15 42 62 52 51 43 40 42 38 33 26 20
98 98 98 98 98 98 94 88 84 82 74 73 70 62 59 56 54 52 51 48 43 36 34 33 33 30 24 19 16 16 13 13 19 14 16 45 57 61 46 40 47 44 37 31 25
100 99 98 100 99 99 98 98 98 99 97 98 90 74 71 66 68 63 61 61 56 47 42 39 35 34 34 28 21 18 16 18 22 20 15 24 47 54 59 46 47 49 45 39 32
100 100 100 100 100 100 100 99 98 99 100 98 100 92 89 75 75 70 68 64 61 54 50 49 45 40 35 33 27 20 21 20 22 31 28 22 37 50 49 52 53 53 52 46 41
99 100 100 100 100 99 100 100 99 99 99 99 100 96 95 90 86 85 82 75 68 64 63 58 56 53 44 37 33 23 24 33 37 35 31 24 21 44 48 50 60 55 50 49 42
95 88 96 80 93 98 100 100 100 100 100 98 100 97 98 100 92 94 92 88 83 77 72 68 64 58 48 40 35 24 20 25 30 31 27 25 31 25 37 52 52 57 56 50 45
62 52 64 86 100 98 95 97 98 99 99 100 100 97 100 100 100 100 94 90 86 78 72 69 68 64 48 39 30 24 32 46 41 35 28 22 22 28 31 34 38 43 49 55 51
41 50 52 82 100 95 80 50 41 96 99 100 98 100 100 100 100 99 96 93 79 70 67 68 69 61 48 34 26 26 33 46 38 27 20 17 15 21 23 27 30 33 36 41 47
84 71 73 100 97 84 62 47 36 82 100 100 99 100 100 98 99 99 100 74 72 69 64 72 67 52 40 31 27 24 23 32 29 22 18 19 16 28 19 19 21 24 28 30 32
100 100 100 100 100 66 52 74 88 97 100 100 100 100 100 95 100 96 96 100 83 74 71 70 63 47 36 34 40 37 36 33 28 24 17 12 11 19 17 17 18 18 19 20 23
58 100 100 95 55 95 89 100 100 100 100 100 100 96 98 100 100 100 100 78 72 73 70 66 53 42 35 30 35 47 40 20 21 15 11 26 23 26 19 14 16 16 16 17 16
51 72 85 72 80 78 97 100 100 100 100 100 100 100 100 100 100 92 80 77 71 73 65 50 45 40 41 52 53 26 17 23 23 17 27 44 44 32 42 48 44 45 33 18 8
64 70 71 37 40 39 73 100 100 100 100 100 100 100 100 100 95 95 90 74 64 55 48 47 48 59 55 30 20 31 26 21 28 42 53 65 65 38 38 44 34 36 39 45 14
52 51 67 90 66 27 83 100 100 100 98 98 100 100 86 80 83 84 68 57 53 56 69 75 58 30 21 32 44 32 24 36 42 51 57 81 73 81 90 70 64 52 39 48 55
51 45 52 100 73 72 90 91 99 100 100 95 98 91 79 62 59 52 50 58 84 86 66 36 23 37 44 47 37 37 51 52 68 77 87 99 85 95 98 100 72 44 56 47 98
50 41 70 99 74 77 75 89 100 94 90 98 94 78 61 51 73 98 98 88 60 28 22 36 48 44 47 39 60 55 82 100 100 87 82 100 99 87 60 67 59 64 60 54 79
46 78 93 90 88 90 93 97 94 83 80 76 73 91 84 69 44 27 24 29 40 47 51 48 52 65 46 62 88 97 100 100 100 98 99 100 99 65 97 76 39 47 69 91 75
62 65 82 82 70 63 67 72 68 84 97 100 53 36 36 37 46 51 50 52 48 50 44 46 49 56 61 95 99 93 98 99 95 100 95 98 98 86 93 93 93 98 98 99 98
40 53 68 58 56 64 70 73 66 82 46 33 50 68 65 44 41 52 67 57 92 78 76 62 56 70 96 100 93 100 99 98 99 100 100 97 99 98 99 99 98 99 99 99 98
24 26 31 40 51 63 76 67 59 59 66 65 63 66 61 65 66 73 85 99 100 100 90 70 69 92 99 99 100 100 95 97 97 99 98 99 98 98 99 98 99 99 99 99 98
60 73 48 74 76 74 68 47 44 71 71 48 49 48 65 78 96 100 100 100 100 100 85 81 89 100 99 98 100 100 97 97 92 83 98 98 100 98 98 98 98 97 98 98 98
22 35 49 50 63 67 60 70 66 54 39 34 46 68 98 100 100 86 85 84 89 70 79 88 98 100 98 99 98 100 98 99 93 94 100 84 98 100 98 98 99 98 98 97 98
15 19 26 32 37 45 43 46 35 29 28 35 53 76 84 70 67 79 96 82 82 81 83 93 92 70 62 88 94 99 100 97 98 98 97 69 92 96 98 98 97 96 99 93 78
12 18 23 34 28 29 24 21 20 28 46 58 74 79 68 60 64 73 85 88 90 80 83 77 62 61 60 66 80 87 96 100 99 99 93 78 69 86 94 93 81 85 80 64 58
8 10 15 18 21 20 19 16 30 36 45 49 44 46 47 60 52 46 53 60 69 69 66 61 55 46 37 42 46 47 63 72 79 81 100 76 74 53 52 67 53 50 56 54 59
8 6 7 9 12 16 21 23 25 30 28 30 31 25 25 32 40 44 49 46 51 56 55 52 48 36 29 26 28 29 27 22 31 23 43 37 41 26 30 30 37 36 36 36 39
12 10 8 8 8 8 11 17 21 26 28 27 25 20 17 20 24 30 34 38 38 45 47 43 34 29 25 22 21 20 22 17 16 20 27 35 23 28 29 31 33 26 30 28 23

GFSSW_500_rhum_111.txt.gz
RH
100 100 100 99 99 98 97 86 90 86 72 70 64 61 60 55 50 47 43 41 35 32 29 27 26 24 22 18 16 15 12 10 9 9 8 10 11 32 50 47 45 40 28 24 23
100 100 100 100 99 100 99 98 98 97 93 94 83 76 77 70 58 58 54 50 44 39 37 34 32 29 28 27 22 20 15 14 13 12 10 10 8 9 21 52 52 47 44 34 28
75 100 100 100 100 100 100 99 100 99 97 98 99 95 88 76 72 70 67 61 54 51 46 42 40 37 34 32 28 23 19 21 18 15 11 11 11 12 10 19 60 59 52 46 36
100 90 98 100 100 100 99 100 100 99 100 99 98 100 93 97 96 94 79 67 61 58 54 53 49 49 44 37 34 27 25 24 24 24 16 13 12 11 10 14 35 61 61 55 43
100 99 98 76 97 99 96 98 100 99 99 99 100 98 97 90 100 98 96 88 75 67 63 60 57 52 48 44 42 37 34 31 30 28 24 17 14 13 12 11 29 52 54 57 46
100 100 89 75 66 93 77 78 96 100 100 99 100 100 98 98 99 99 97 96 92 76 71 68 62 58 55 53 47 45 39 39 38 37 28 22 16 14 21 19 17 18 48 53 53
100 84 62 69 59 70 93 88 69 97 100 100 100 100 100 99 100 100 98 94 92 88 82 74 71 67 64 60 52 45 40 38 37 35 30 23 17 17 23 18 16 19 21 48 53
44 57 77 58 44 59 97 100 87 94 98 100 100 100 100 100 100 100 98 87 88 88 84 76 71 65 61 59 50 44 38 38 34 31 26 22 21 35 30 24 19 14 18 28 51
72 99 100 100 65 92 100 100 93 85 77 100 100 100 100 100 100 100 95 92 92 92 89 74 55 53 49 46 42 38 39 39 31 25 22 21 22 32 25 19 16 14 16 24 29
80 72 100 100 96 99 99 61 67 68 84 98 100 100 100 100 100 100 100 99 92 79 69 65 53 45 38 42 46 44 41 32 28 44 21 16 14 22 21 16 17 16 16 16 23
45 79 88 63 96 85 85 91 58 44 100 100 100 100 100 100 99 98 70 66 73 71 76 60 48 40 49 55 52 41 30 27 37 37 34 38 31 24 15 14 12 12 13 16 16
62 58 51 92 100 100 99 100 99 100 100 100 100 100 100 100 97 100 85 81 77 79 54 49 49 57 58 50 40 33 31 35 40 38 29 14 12 30 36 44 27 19 16 14 15
68 63 37 48 91 100 100 100 100 100 100 100 100 100 100 96 89 93 94 80 67 53 52 59 53 53 50 41 39 46 48 36 22 14 21 34 35 60 55 50 38 53 43 36 30
73 78 30 24 51 93 88 99 100 100 98 100 100 100 97 95 94 91 79 74 69 66 63 55 51 50 46 46 46 26 20 17 18 34 46 55 38 71 86 77 77 70 69 56 37
61 29 45 66 74 60 66 90 85 85 70 85 85 84 83 83 91 84 80 80 73 64 58 55 47 54 50 26 21 20 27 39 48 58 66 92 73 84 89 95 89 62 47 36 39
31 34 35 38 38 63 77 73 81 90 82 100 100 99 90 85 75 69 67 63 65 59 52 55 43 26 24 35 31 47 61 87 81 79 91 100 98 87 58 61 51 47 44 43 66
27 29 47 61 58 63 69 82 88 89 84 95 92 87 65 55 55 68 74 75 62 55 34 23 26 35 38 42 62 78 91 96 94 89 96 99 89 71 71 46 54 58 69 78 86
47 46 48 54 62 69 70 72 78 92 93 93 79 54 42 35 29 25 22 22 24 34 38 42 46 52 55 70 80 92 99 80 77 72 94 98 98 97 90 81 90 93 96 98 99
46 48 49 52 62 76 85 96 71 76 43 45 45 37 30 36 40 43 44 52 43 44 54 56 50 58 81 88 93 98 96 76 74 89 98 99 99 98 98 98 98 98 98 99 100
75 80 74 72 77 71 54 43 44 47 39 35 40 47 58 61 62 79 92 93 94 80 69 60 65 79 97 96 98 94 72 70 83 96 98 99 98 98 99 98 99 98 99 99 99
26 44 50 47 47 44 30 34 38 44 50 58 68 89 97 100 100 100 100 100 97 73 65 71 83 96 100 100 95 88 89 92 96 97 97 98 98 98 98 98 98 98 98 98 98
18 22 30 37 52 25 29 36 43 55 77 83 81 77 95 100 100 100 93 84 80 73 74 86 94 97 100 100 92 96 94 99 87 97 100 91 98 98 98 98 98 98 98 97 98
14 17 21 24 23 32 40 43 54 63 68 66 63 86 90 99 93 95 72 64 72 85 93 90 90 96 98 98 95 95 96 90 96 100 96 95 97 99 98 98 98 98 100 97 97
9 12 16 20 27 36 36 42 42 50 50 54 59 64 70 68 71 68 54 66 79 89 70 70 70 72 73 88 96 87 90 97 97 94 92 98 90 94 100 89 86 82 76 96 95
7 8 9 14 21 24 35 38 36 31 31 37 43 46 53 55 52 64 64 62 69 61 56 48 46 49 50 54 66 72 81 83 83 85 84 81 88 70 62 74 74 64 59 62 64
9 8 8 8 10 14 16 18 21 26 24 22 28 33 32 36 45 49 47 50 48 44 44 39 30 27 24 27 32 34 33 53 69 50 67 47 55 28 25 32 31 34 34 30 29
13 11 10 9 8 9 11 13 16 19 17 14 14 17 22 25 29 30 32 39 37 36 33 32 30 27 22 21 20 20 15 15 18 24 29 33 27 26 28 27 35 29 26 24 21

GFSSW_500_rhum_114.txt.gz
RH
36 72 46 84 100 100 99 99 98 96 94 86 75 62 49 43 42 43 46 45 40 36 32 27 24 20 18 16 16 15 12 12 12 12 10 9 8 7 6 7 28 39 29 26 26
100 100 98 72 88 100 98 99 98 100 98 97 96 83 66 55 49 49 50 51 49 47 40 36 30 26 22 21 19 17 16 16 15 14 13 12 10 8 7 6 6 17 42 40 32
100 100 99 97 98 100 100 96 100 99 99 100 99 97 93 74 64 60 62 63 60 57 52 45 40 35 31 28 24 21 19 21 20 18 16 15 13 10 9 8 8 8 15 37 49
100 100 100 100 100 100 100 99 100 100 100 99 99 99 98 98 91 83 76 74 73 64 56 52 50 45 41 34 34 26 24 26 26 23 20 19 16 14 11 9 10 10 9 11 31
100 100 100 100 100 100 100 97 100 99 100 100 99 98 100 100 99 96 96 93 83 73 66 62 59 54 49 44 41 33 32 30 30 30 23 21 20 17 12 14 11 11 9 9 11
100 100 100 100 92 86 100 97 80 96 100 100 98 99 100 100 100 99 98 96 96 94 87 74 68 62 56 53 50 44 42 39 35 33 31 28 23 18 19 15 13 11 10 9 8
66 58 55 71 58 93 82 86 61 54 87 100 99 100 100 100 93 99 97 99 99 97 95 90 79 70 65 61 56 49 44 42 39 38 34 28 22 18 15 13 12 13 12 12 12
63 67 48 44 67 48 63 88 82 45 44 100 97 100 98 99 97 100 95 98 98 97 99 97 90 83 76 70 62 55 49 48 44 42 35 28 21 20 18 17 12 12 13 13 13
53 70 71 66 95 76 65 100 99 47 36 98 100 100 100 100 100 100 98 95 98 97 97 98 92 89 82 74 64 55 46 37 29 27 23 20 15 19 24 25 20 19 17 20 22
54 93 95 86 61 59 86 100 90 80 86 100 100 100 100 100 97 100 87 89 95 99 99 91 89 89 79 59 48 36 29 23 21 28 19 16 15 22 25 24 20 21 26 24 19
48 96 100 82 99 96 78 78 80 100 100 100 100 100 100 100 98 100 100 100 100 95 93 88 84 70 59 46 35 26 19 16 33 37 28 28 21 20 29 24 26 22 18 16 14
39 61 97 71 76 86 70 85 82 100 100 100 100 100 100 100 100 94 90 88 82 81 82 69 57 48 37 25 17 16 22 35 34 34 27 24 23 29 29 25 18 16 15 17 18
45 71 92 72 95 96 84 95 100 100 100 100 100 100 100 100 100 92 84 75 68 63 55 46 39 29 23 22 28 42 39 36 28 30 35 29 28 22 18 27 56 32 33 34 24
17 25 60 67 72 86 96 100 100 100 98 100 100 100 100 100 100 95 83 73 62 51 42 34 30 27 32 36 42 42 33 29 32 27 17 28 21 43 62 80 69 43 48 56 60
18 18 32 45 64 71 73 82 93 99 83 98 99 98 100 97 95 84 76 65 53 39 34 36 38 41 48 42 33 34 34 22 23 34 37 66 56 66 82 96 89 76 61 68 62
51 32 40 64 67 76 75 76 82 79 68 90 98 98 90 89 84 85 72 59 52 56 58 54 51 46 37 36 28 22 33 52 63 51 69 87 99 95 82 70 67 34 28 41 33
50 50 48 53 74 67 68 69 71 67 83 89 88 83 81 91 82 79 70 64 60 51 50 45 40 36 29 25 39 59 77 60 59 76 89 89 94 77 58 49 42 34 38 48 76
62 64 72 73 75 76 76 73 74 70 69 69 71 69 59 57 54 56 52 50 50 45 42 28 28 29 39 53 74 81 67 60 66 78 86 91 95 97 92 88 93 97 98 100 98
36 36 31 30 36 44 63 65 51 44 43 42 33 24 23 28 27 24 23 23 24 26 32 42 50 55 63 76 77 69 67 74 77 89 97 95 97 98 97 99 98 99 100 91 98
24 30 30 35 35 33 34 35 35 34 36 37 37 41 51 65 67 57 48 44 46 48 55 61 71 73 76 79 74 70 70 85 97 98 98 97 96 97 98 96 96 98 96 97 99
25 27 28 34 44 51 47 54 63 73 85 86 89 89 98 100 93 79 71 67 73 77 81 73 80 82 93 80 90 92 96 97 99 97 97 99 96 96 96 96 94 99 98 98 98
25 25 21 24 42 33 38 49 74 95 95 100 100 100 99 96 91 86 85 82 80 81 77 75 89 98 99 84 82 85 96 96 96 98 97 93 91 98 98 96 98 98 99 99 99
14 19 20 20 22 23 30 43 59 73 90 94 100 100 94 75 69 70 70 79 90 92 97 91 85 98 99 99 97 73 77 86 93 94 98 97 97 98 99 98 99 98 98 97 98
8 9 17 16 16 16 18 22 38 49 54 54 57 67 65 57 59 69 80 75 68 76 74 72 78 86 83 85 85 87 79 81 99 98 100 99 100 99 99 98 99 96 94 97 97
8 7 8 12 13 13 18 17 20 24 28 37 43 48 51 54 56 67 67 58 59 56 46 39 38 39 50 66 80 82 81 88 89 91 100 100 100 96 92 71 75 73 84 83 83
10 8 8 7 8 12 14 15 16 17 16 17 19 26 36 39 44 48 48 47 47 47 41 35 28 23 23 28 24 25 55 66 60 54 78 79 67 71 67 65 56 60 65 67 66
14 12 10 9 8 7 8 9 11 12 13 12 13 16 20 22 25 29 26 30 32 35 31 28 27 25 22 20 19 18 15 21 31 33 30 31 33 34 32 39 42 37 34 40 38

GFSSW_500_rhum_117.txt.gz
RH
96 100 100 83 71 42 35 98 100 98 99 96 82 80 58 52 43 36 30 29 32 34 31 28 28 24 19 15 13 12 11 12 12 10 10 10 10 9 8 6 6 10 28 35 27
90 100 100 100 100 92 77 78 94 100 100 98 97 96 76 72 60 48 38 33 33 36 38 34 31 30 25 21 17 14 13 14 14 13 12 12 12 11 10 9 7 6 6 12 28
99 100 91 100 100 100 99 97 98 97 99 98 100 100 97 90 81 67 51 42 40 40 41 40 36 34 31 29 25 20 18 17 15 14 15 15 14 13 13 11 11 9 8 6 5
91 96 100 100 100 100 100 86 78 90 94 99 100 99 99 99 100 79 70 55 48 46 46 47 48 42 37 34 30 26 23 20 20 19 18 18 17 16 14 15 14 10 10 9 8
100 100 100 100 100 100 100 100 98 92 77 94 97 97 100 98 95 98 97 82 64 55 55 58 59 55 49 44 40 34 33 32 28 24 21 20 22 19 16 19 14 15 12 10 9
63 69 95 100 100 100 100 100 96 98 100 86 82 95 100 100 97 97 100 96 91 74 68 69 72 65 58 52 48 47 45 41 38 34 29 25 24 21 27 20 19 16 15 12 10
38 36 40 56 89 100 100 100 100 86 84 99 83 89 97 100 100 100 88 86 98 97 95 93 90 77 69 64 59 56 54 50 46 42 35 31 28 27 25 25 25 22 19 15 12
43 46 49 40 60 50 81 100 100 64 62 100 95 99 100 100 100 99 89 92 100 99 98 97 100 97 90 80 72 66 62 58 55 50 44 38 30 35 33 31 27 23 20 16 14
87 62 66 80 57 66 51 77 82 72 50 76 98 100 100 100 100 96 85 83 89 98 98 96 96 97 94 87 80 73 66 62 58 52 45 40 32 31 28 25 24 22 19 16 15
84 57 72 71 92 74 66 64 65 50 35 40 71 100 100 100 99 98 94 92 96 97 98 98 97 95 90 82 73 68 64 61 52 41 35 31 27 22 12 12 15 14 15 15 13
48 39 52 59 95 77 69 82 98 74 42 43 86 100 100 100 100 99 97 93 94 89 89 91 91 86 77 71 66 66 55 40 29 20 20 16 19 15 16 20 15 17 14 12 11
50 71 55 62 91 100 100 100 100 100 100 100 100 100 100 100 100 100 89 85 81 86 86 80 69 73 67 59 50 40 23 13 12 13 15 16 13 14 25 29 26 22 20 20 20
49 50 46 50 45 79 100 100 100 100 100 100 100 100 100 100 99 96 91 83 80 82 77 68 59 54 44 30 19 13 11 13 13 20 23 22 17 21 23 22 18 19 20 19 19
58 60 63 69 88 80 98 100 100 100 88 100 100 100 100 100 96 87 76 86 87 67 54 44 35 27 20 16 18 18 22 24 29 27 23 27 17 39 42 59 60 55 29 27 38
64 69 68 70 84 87 94 100 98 91 74 100 100 98 99 99 92 81 81 80 63 50 40 35 25 24 25 29 34 32 31 27 22 20 24 37 38 66 82 86 78 66 62 61 49
70 64 59 60 71 76 83 88 82 88 73 99 97 100 100 97 85 69 58 52 49 34 27 34 42 40 38 35 29 32 30 23 21 31 44 63 79 95 86 68 65 50 37 28 27
50 67 74 72 61 67 70 69 73 57 79 93 98 98 92 84 76 69 63 54 48 44 42 40 36 36 34 33 26 23 30 38 48 60 68 77 68 84 91 57 50 47 44 48 60
22 25 32 38 41 54 61 65 44 51 55 65 63 61 61 64 61 62 57 44 37 42 42 38 32 30 26 34 53 62 59 54 58 70 65 76 90 85 85 93 91 97 95 89 96
28 28 29 28 28 30 34 31 33 46 46 40 32 34 46 43 43 43 40 38 29 27 27 22 24 41 59 66 71 74 71 71 72 68 88 99 93 97 95 92 96 99 99 99 96
22 38 38 44 53 59 40 37 40 40 46 53 58 55 49 39 35 31 29 25 27 30 40 62 66 66 66 80 78 87 87 93 90 94 96 97 98 98 90 86 87 86 99 98 100
13 18 28 43 62 60 41 61 62 69 73 78 80 61 48 49 49 49 56 64 70 76 80 83 78 78 95 98 97 97 96 94 97 97 98 97 99 97 93 81 82 100 95 98 99
9 11 16 36 52 51 52 57 59 63 65 65 65 64 65 72 78 80 82 82 82 88 89 94 99 98 97 90 94 93 95 99 97 97 99 98 93 97 100 99 98 98 99 98 99
7 8 13 20 31 33 32 33 38 44 49 50 55 60 66 77 83 88 92 89 92 94 97 96 92 95 92 91 92 82 83 89 97 100 93 96 96 90 97 100 99 99 97 99 100
6 6 8 12 18 21 24 28 28 28 28 35 43 56 66 74 76 69 71 71 60 56 52 54 62 84 90 90 92 92 93 93 89 93 96 97 98 98 99 98 97 98 100 97 98
8 6 6 7 10 14 17 18 20 24 27 31 35 42 47 48 49 51 48 41 34 30 30 29 28 33 41 32 37 66 72 78 84 91 82 89 85 80 80 78 75 78 87 94 94
12 9 6 5 6 8 12 14 15 15 16 23 30 33 34 36 37 40 39 36 33 27 24 22 20 19 18 18 18 19 22 38 46 43 34 42 51 52 46 48 51 51 49 51 50
14 14 11 8 6 6 7 9 11 12 13 14 16 18 19 21 21 22 22 20 19 18 19 19 21 20 16 14 14 14 18 22 21 19 18 19 17 18 18 20 25 26 31 32 31

GFSSW_500_rhum_120.txt.gz
RH
85 86 100 100 100 82 64 56 40 92 100 100 99 91 67 59 49 33 26 25 28 29 28 21 18 15 12 12 12 11 9 10 9 9 8 8 7 8 8 7 6 7 14 24 30
96 75 100 100 100 100 90 91 71 37 98 100 100 98 93 70 63 50 38 30 28 30 32 31 27 23 21 21 20 17 13 11 12 12 11 10 9 9 10 9 9 7 6 5 8
98 68 100 100 100 100 85 94 70 44 42 100 100 100 98 100 79 60 55 44 35 33 33 33 34 32 27 27 26 22 21 17 14 14 13 12 12 12 11 11 11 10 9 8 7
76 96 95 99 100 100 96 97 100 61 58 86 100 100 96 98 94 74 67 60 50 42 38 35 34 36 37 32 31 26 26 23 21 19 17 14 13 14 13 16 12 11 12 11 10
31 46 99 100 100 100 87 79 88 67 65 73 96 100 100 100 98 99 94 72 63 55 46 41 39 39 40 42 37 34 34 30 26 23 23 20 18 16 18 18 16 15 14 13 12
38 29 36 100 100 100 98 100 100 52 40 59 81 100 100 99 100 100 97 93 77 67 57 49 45 44 44 46 44 43 41 38 34 29 28 28 26 25 28 22 21 19 18 15 13
57 60 45 49 99 100 96 100 88 50 39 32 56 100 100 100 100 93 94 92 96 95 73 59 54 52 52 55 53 52 48 45 42 40 38 38 38 35 34 31 27 24 22 19 17
60 75 57 40 66 99 88 96 82 51 64 77 90 88 100 99 100 100 81 82 88 89 93 96 81 63 65 65 67 64 58 54 53 51 48 47 41 44 41 36 32 28 25 22 20
70 94 71 38 32 66 98 71 81 66 72 100 90 92 99 100 100 99 82 70 74 73 78 87 89 96 93 90 86 82 76 73 67 63 56 52 46 50 44 39 35 33 30 27 23
66 76 67 61 51 54 61 86 61 74 70 88 100 100 100 100 100 100 90 89 79 72 73 82 87 88 88 90 87 86 83 80 76 64 57 50 45 42 35 32 28 25 23 22 20
42 68 73 56 53 73 64 69 81 58 47 57 100 100 98 100 100 100 100 89 81 76 80 91 91 88 88 88 87 84 79 71 62 52 44 38 33 24 20 17 15 14 13 13 12
75 92 98 96 72 49 33 37 44 47 35 49 78 100 100 100 100 97 98 92 80 79 82 88 85 82 80 77 74 66 56 47 42 30 22 17 14 12 11 10 9 9 9 8 8
74 76 91 89 100 97 99 91 76 58 37 56 98 100 100 100 94 90 92 84 86 76 76 77 76 72 65 58 51 43 32 17 14 12 12 11 9 13 11 14 18 17 15 17 17
61 75 81 93 100 98 100 100 100 100 89 100 100 100 100 98 95 88 82 83 78 75 72 67 60 51 43 34 24 16 15 12 11 10 12 15 9 18 29 42 45 52 55 55 45
48 54 63 68 84 96 100 100 100 95 68 100 100 99 96 100 100 96 93 87 73 70 61 50 37 29 21 16 15 14 12 12 16 20 20 21 20 52 73 78 99 83 78 51 42
46 59 56 55 56 61 61 82 84 72 70 95 93 97 98 91 81 75 81 73 66 57 40 32 18 14 14 17 18 21 23 25 23 22 22 43 40 45 52 60 63 63 64 86 97
28 25 32 54 48 48 50 57 59 40 72 85 81 83 80 82 77 69 61 45 38 27 18 16 17 18 21 29 28 27 36 40 37 50 55 52 58 67 64 52 62 70 81 72 65
41 43 37 28 26 46 42 46 38 49 54 62 62 54 54 46 40 35 31 29 21 24 20 23 30 32 31 27 48 61 49 57 80 80 88 66 75 67 71 70 60 64 79 79 88
31 36 40 60 39 23 31 44 28 35 37 36 33 33 30 26 31 30 32 29 26 32 34 26 24 33 56 65 66 79 88 100 98 82 87 86 92 85 76 68 65 78 88 93 97
25 30 38 42 64 56 35 27 31 36 33 32 31 31 33 34 34 34 34 32 26 26 35 48 57 65 73 88 97 100 100 99 92 91 85 92 91 82 76 79 82 84 91 98 92
20 20 28 37 45 47 42 38 34 32 31 28 26 27 28 28 32 38 46 53 61 68 68 74 91 97 100 100 100 100 97 92 86 84 80 76 78 74 84 85 93 93 92 96 97
12 16 19 24 38 30 36 46 51 55 58 59 64 67 69 69 69 72 74 89 94 96 98 99 95 91 93 98 97 95 90 87 83 80 72 74 81 77 78 97 98 99 100 91 95
6 11 14 17 21 20 25 37 44 52 60 67 69 74 76 79 80 87 88 92 89 84 82 88 91 93 80 81 76 74 78 71 81 84 85 88 92 78 93 98 98 94 98 100 98
6 6 9 13 15 15 17 22 30 40 48 55 58 57 58 64 55 46 42 36 36 39 48 59 46 37 48 61 64 64 64 70 77 69 84 83 80 81 74 78 90 74 92 95 97
8 6 6 7 9 11 12 14 20 27 32 38 42 44 46 43 39 34 30 27 27 26 22 20 19 19 20 26 31 36 44 53 52 48 54 54 49 42 38 38 36 38 37 34 27
12 9 6 6 6 7 9 11 12 14 18 22 25 28 30 31 31 28 26 25 22 20 19 17 14 12 12 14 19 22 25 21 24 23 22 21 20 19 17 15 15 15 15 16 14
11 12 11 8 6 6 6 6 8 9 10 12 14 15 16 16 14 13 13 13 12 12 11 10 11 13 11 12 11 11 13 15 14 12 10 10 11 12 12 11 11 10 9 9 9

GFSSW_500_rhum_123.txt.gz
RH
93 78 68 100 100 100 88 97 89 46 30 32 84 100 89 65 45 30 24 22 23 21 19 18 14 12 8 9 10 11 12 10 9 7 6 7 7 8 8 10 14 18 23 26 28
59 94 71 98 100 100 100 89 77 60 43 41 64 100 97 93 64 48 32 25 24 24 26 24 23 18 12 10 9 9 10 10 11 9 7 8 7 7 7 7 8 8 6 6 9
51 69 100 89 100 100 100 100 97 70 53 77 100 100 99 95 89 64 50 34 27 24 25 28 28 27 24 16 12 11 12 15 12 10 9 9 8 9 8 8 8 9 9 8 6
48 46 100 100 100 100 100 97 84 64 67 92 100 99 98 100 96 84 64 53 38 29 26 26 30 29 31 29 24 20 21 23 22 18 12 10 10 10 10 12 10 10 10 10 9
59 43 96 99 100 100 100 78 66 65 60 45 100 100 96 95 98 99 85 69 55 44 33 29 29 31 31 33 34 29 27 27 27 25 19 16 15 12 15 14 13 13 13 13 12
65 61 79 99 100 100 98 84 83 69 74 48 93 100 100 100 100 100 98 94 71 60 50 40 36 35 33 34 34 37 36 33 33 31 28 25 22 17 23 20 19 17 17 17 17
56 48 48 98 100 100 99 68 78 64 58 76 84 100 98 100 100 100 100 96 90 68 60 54 49 44 41 40 37 38 38 40 39 38 34 30 29 24 27 27 28 25 25 24 22
62 62 34 97 94 100 100 98 47 44 31 51 67 100 100 100 99 99 91 86 90 97 77 68 60 54 51 48 45 44 44 43 44 42 38 37 36 35 38 38 39 37 37 34 31
45 58 59 96 90 100 97 91 52 32 42 56 50 100 100 100 100 94 100 95 84 92 98 90 76 66 61 55 52 49 48 54 51 51 44 45 42 49 48 50 46 45 41 37 34
67 42 84 88 71 82 41 57 43 26 56 94 83 87 100 100 99 94 73 79 94 85 83 92 91 94 94 91 82 63 69 69 69 62 59 55 53 58 60 52 47 43 40 38 35
66 47 41 43 57 66 48 34 49 59 66 100 89 84 100 100 100 92 81 76 83 82 75 70 70 70 74 78 82 80 84 79 74 64 61 61 53 54 47 40 36 32 29 26 25
83 85 49 31 34 32 41 61 54 43 61 100 100 100 100 100 99 100 98 93 92 85 75 72 79 81 81 82 82 83 80 74 73 61 56 50 42 33 22 17 14 12 11 11 12
89 99 100 84 42 45 50 52 38 30 43 100 100 100 100 100 99 98 93 96 91 87 75 76 78 77 74 71 68 66 65 61 54 44 32 29 18 13 10 10 9 8 8 6 6
55 75 87 88 86 93 71 36 30 43 64 88 100 99 90 98 97 98 91 90 91 80 75 73 68 67 67 66 60 55 48 34 22 16 13 11 11 8 8 8 8 15 30 27 27
39 44 62 46 78 91 92 90 78 89 78 88 100 94 82 79 78 79 84 91 81 71 69 69 65 65 55 44 32 19 14 12 11 11 9 11 10 10 21 31 41 35 34 44 41
27 34 46 51 51 63 65 78 85 78 73 95 94 80 85 90 80 79 78 75 75 67 59 50 38 28 18 12 11 11 11 10 8 10 13 16 16 23 43 39 40 36 35 45 56
28 24 32 32 38 52 56 56 60 48 75 83 87 88 75 69 67 75 72 65 57 50 36 21 14 12 13 14 12 11 16 19 19 19 20 33 35 46 43 37 36 37 45 56 72
25 23 22 26 25 32 41 50 46 41 48 56 65 66 65 61 55 52 46 40 30 26 17 14 15 12 12 17 23 25 30 34 44 52 60 51 64 54 54 55 58 50 58 74 73
34 32 24 19 22 28 31 41 23 24 28 27 30 33 31 30 30 29 25 23 20 16 14 15 18 24 24 28 36 51 63 78 76 83 87 78 80 63 59 55 57 54 52 67 77
27 30 34 35 28 33 34 20 21 20 19 21 22 22 22 23 24 21 22 20 21 28 27 25 32 49 54 57 75 91 97 98 95 84 75 77 68 60 61 68 69 72 66 63 81
19 21 26 35 44 43 32 28 24 21 19 20 20 22 24 25 25 25 25 28 34 42 49 56 61 75 92 95 98 96 97 88 87 88 83 81 76 80 79 82 91 85 72 67 86
7 14 16 25 40 42 44 45 43 43 44 44 47 54 57 59 60 71 78 80 84 87 92 90 90 95 95 90 84 86 81 81 85 87 84 79 74 78 85 68 74 88 96 83 74
6 7 11 12 17 24 30 42 54 56 61 61 63 68 71 75 76 75 76 80 86 89 87 84 87 80 71 76 76 65 66 71 76 76 79 78 75 56 41 34 35 26 23 41 90
6 6 6 8 11 12 17 27 36 45 50 52 50 40 35 35 33 32 33 35 32 25 24 25 34 47 49 53 51 63 69 62 56 57 51 45 31 23 19 17 15 13 13 13 13
10 7 6 6 6 9 9 10 18 24 32 38 39 38 36 35 33 29 26 24 22 20 18 16 16 18 20 22 23 27 32 34 33 24 22 18 15 14 12 11 11 11 11 9 10
13 12 9 6 6 6 7 7 7 8 15 17 16 16 15 14 13 14 13 13 13 16 16 14 14 13 12 13 16 17 18 17 16 15 13 12 11 10 9 8 9 9 9 8 7
8 12 13 11 8 6 6 6 6 6 6 8 9 10 12 11 8 8 7 7 8 8 8 7 7 8 9 10 10 10 10 12 12 11 10 10 10 9 9 10 9 8 8 8 7